[[{"header":{"parameterUnit":"m.s-1","parameterCategory":1,"la1":31.0,"la2":29.5877,"lo1":-88.7671,"lo2":-86.6584,"dy":0.0162,"dx":0.0185,"nx":115,"ny":88,"refTime":"2026-04-01T12:00:00:Z","depth":0,"parameterNumber":2,"parameterNumberName":"U-component_of_WINDS"},"data":[0.0,0.0,0.0,0.0,0.0,0.0,0.0,0.0,0.0,0.0,0.0,0.0,0.0,0.0,0.0,0.0,0.0,0.0,0.0,0.0,0.0,0.0,0.0,0.0,0.0,0.0,0.0,0.0,0.0,0.0,0.0,0.0,0.0,0.0,0.0,0.0,0.0,0.0,0.0,0.0,0.0,0.0,0.0,0.0,0.0,0.0,0.0,0.0,0.0,0.0,0.0,0.0,0.0,0.0,0.0,0.0,0.0,0.0,0.0,0.0,0.0,0.0,0.0,0.0,0.0,0.0,0.0,0.0,0.0,0.0,0.0,0.0,0.0,0.0,0.0,0.0,0.0,0.0,0.0,0.0,0.0,0.0,0.0,0.0,0.0,0.0,0.0,0.0,0.0,0.0,0.0,0.0,0.0,0.0,0.0,0.0,0.0,0.0,0.0,0.0,0.0,0.0,0.0,0.0,0.0,0.0,0.0,0.0,0.0,0.0,0.0,0.0,0.0,0.0,0.0,0.0,0.0,0.0,0.0,0.0,0.0,0.0,0.0,0.0,0.0,0.0,0.0,0.0,0.0,0.0,0.0,0.0,0.0,0.0,0.0,0.0,0.0,0.0,0.0,0.0,0.0,0.0,0.0,0.0,0.0,0.0,0.0,0.0,0.0,0.0,0.0,0.0,0.0,0.0,0.0,0.0,0.0,0.0,0.0,0.0,0.0,0.0,0.0,0.0,0.0,0.0,0.0,0.0,0.0,0.0,0.0,0.0,0.0,0.0,0.0,0.0,0.0,0.0,0.0,0.0,0.0,0.0,0.0,0.0,0.0,0.0,0.0,0.0,0.0,0.0,0.0,0.0,0.0,0.0,0.0,0.0,0.0,0.0,0.0,0.0,0.0,0.0,0.0,0.0,0.0,0.0,0.0,0.0,0.0,0.0,0.0,0.0,0.0,0.0,0.0,0.0,0.0,0.0,0.0,0.0,0.0,0.0,0.0,0.0,0.0,0.0,0.0,0.0,0.0,0.0,0.0,0.0,0.0,0.0,0.0,0.0,0.0,0.0,0.0,0.0,0.0,0.0,0.0,0.0,0.0,0.0,0.0,0.0,0.0,0.0,0.0,0.0,0.0,0.0,0.0,0.0,0.0,0.0,0.0,0.0,0.0,0.0,0.0,0.0,0.0,0.0,0.0,0.0,0.0,0.0,0.0,0.0,0.0,0.0,0.0,0.0,0.0,0.0,0.0,0.0,0.0,0.0,0.0,0.0,0.0,0.0,0.0,0.0,0.0,0.0,0.0,0.0,0.0,0.0,0.0,0.0,0.0,0.0,0.0,0.0,0.0,0.0,0.0,0.0,0.0,0.0,0.0,0.0,0.0,0.0,0.0,0.0,0.0,0.0,0.0,0.0,0.0,0.0,0.0,0.0,0.0,0.0,0.0,0.0,0.0,0.0,0.0,0.0,0.0,0.0,0.0,0.0,0.0,0.0,0.0,0.0,0.0,0.0,0.0,0.0,0.0,0.0,0.0,0.0,0.0,0.0,0.0,0.0,0.0,0.0,0.0,0.0,0.0,0.0,0.0,0.0,0.0,0.0,0.0,0.0,0.0,0.0,0.0,0.0,0.0,0.0,0.0,0.0,0.0,0.0,0.0,0.0,0.0,0.0,0.0,0.0,0.0,0.0,0.0,0.0,0.0,0.0,0.0,0.0,0.0,0.0,0.0,0.0,0.0,0.0,0.0,0.0,0.0,0.0,0.0,0.0,0.0,0.0,0.0,0.0,0.0,0.0,0.0,0.0,0.0,0.0,0.0,0.0,0.0,0.0,0.0,0.0,0.0,0.0,0.0,0.0,0.0,0.0,0.0,0.0,0.0,0.0,0.0,0.0,0.0,0.0,0.0,0.0,0.0,0.0,0.0,0.0,0.0,0.0,0.0,0.0,0.0,0.0,0.0,0.0,0.0,0.0,0.0,0.0,0.0,0.0,0.0,0.0,0.0,0.0,0.0,0.0,0.0,0.0,0.0,0.0,0.0,0.0,0.0,0.0,0.0,0.0,0.0,0.0,0.0,0.0,0.0,0.0,0.0,0.0,0.0,0.0,0.0,0.0,0.0,0.0,0.0,0.0,0.0,0.0,0.0,0.0,0.0,0.0,0.0,0.0,0.0,0.0,0.0,0.0,0.0,0.0,0.0,0.0,0.0,0.0,0.0,0.0,0.0,0.0,0.0,0.0,0.0,0.0,0.0,0.0,0.0,0.0,0.0,0.0,0.0,0.0,0.0,0.0,0.0,0.0,0.0,0.0,0.0,0.0,0.0,0.0,0.0,0.0,0.0,0.0,0.0,0.0,0.0,0.0,0.0,0.0,0.0,0.0,0.0,0.0,0.0,0.0,0.0,0.0,0.0,0.0,0.0,0.0,0.0,0.0,0.0,0.0,0.0,0.0,0.0,0.0,0.0,0.0,0.0,0.0,0.0,0.0,0.0,0.0,0.0,0.0,0.0,0.0,0.0,0.0,0.0,0.0,0.0,0.0,0.0,0.0,0.0,0.0,0.0,0.0,0.0,0.0,0.0,0.0,0.0,0.0,0.0,0.0,0.0,0.0,0.0,0.0,0.0,0.0,0.0,0.0,0.0,0.0,0.0,0.0,0.0,0.0,0.0,0.0,0.0,0.0,0.0,0.0,0.0,0.0,0.0,0.0,0.0,0.0,0.0,0.0,0.0,0.0,0.0,0.0,0.0,0.0,0.0,0.0,0.0,0.0,0.0,0.0,0.0,0.0,0.0,0.0,0.0,0.0,0.0,0.0,0.0,0.0,0.0,0.0,0.0,0.0,0.0,0.0,0.0,0.0,0.0,0.0,0.0,0.0,0.0,0.0,0.0,0.0,0.0,0.0,0.0,0.0,0.0,0.0,0.0,0.0,0.0,0.0,0.0,0.0,0.0,0.0,0.0,0.0,0.0,0.0,0.0,0.0,0.0,0.0,0.0,0.0,0.0,0.0,0.0,0.0,0.0,0.0,0.0,0.0,0.0,0.0,0.0,0.0,0.0,0.0,0.0,0.0,0.0,0.0,0.0,0.0,0.0,0.0,0.0,0.0,0.0,0.0,0.0,0.0,0.0,0.0,0.0,0.0,0.0,0.0,0.0,0.0,0.0,0.0,0.0,0.0,0.0,0.0,0.0,0.0,0.0,0.0,0.0,0.0,0.0,0.0,0.0,0.0,0.0,0.0,0.0,0.0,0.0,0.0,0.0,0.0,0.0,0.0,0.0,0.0,0.0,0.0,0.0,0.0,0.0,0.0,0.0,0.0,0.0,0.0,0.0,0.0,0.0,0.0,0.0,0.0,0.0,0.0,0.0,0.0,0.0,0.0,0.0,0.0,0.0,0.0,0.0,0.0,0.0,0.0,0.0,0.0,0.0,0.0,0.0,0.0,0.0,0.0,0.0,0.0,0.0,0.0,0.0,0.0,0.0,0.0,0.0,0.0,0.0,0.0,0.0,0.0,0.0,0.0,0.0,0.0,0.0,0.0,0.0,0.0,0.0,0.0,0.0,0.0,0.0,0.0,0.0,0.0,0.0,0.0,0.0,0.0,0.0,0.0,0.0,0.0,0.0,0.0,0.0,0.0,0.0,0.0,0.0,0.0,0.0,0.0,0.0,0.0,0.0,0.0,0.0,0.0,0.0,0.0,0.0,0.0,0.0,0.0,0.0,0.0,0.0,0.0,0.0,0.0,0.0,0.0,0.0,0.0,0.0,0.0,0.0,0.0,0.0,0.0,0.0,0.0,0.0,0.0,0.0,0.0,0.0,0.0,0.0,0.0,0.0,0.0,0.0,0.0,0.0,0.0,0.0,0.0,0.0,0.0,0.0,0.0,0.0,0.0,0.0,0.0,0.0,0.0,0.0,0.0,0.0,0.0,0.0,0.0,0.0,0.0,0.0,0.0,0.0,0.0,0.0,0.0,0.0,0.0,0.0,0.0,0.0,0.0,0.0,0.0,0.0,0.0,0.0,0.0,0.0,0.0,0.0,0.0,0.0,0.0,0.0,0.0,0.0,0.0,0.0,0.0,0.0,0.0,0.0,0.0,0.0,0.0,0.0,0.0,0.0,0.0,0.0,0.0,0.0,0.0,0.0,0.0,0.0,0.0,0.0,0.0,0.0,0.0,0.0,0.0,0.0,0.0,0.0,0.0,0.0,0.0,0.0,0.0,0.0,0.0,0.0,0.0,0.0,0.0,0.0,0.0,0.0,0.0,0.0,0.0,0.0,0.0,0.0,0.0,-1.5296,0.0,0.0,0.0,0.0,0.0,0.0,0.0,0.0,0.0,0.0,0.0,0.0,0.0,0.0,0.0,0.0,0.0,0.0,0.0,0.0,0.0,0.0,0.0,0.0,0.0,0.0,0.0,0.0,0.0,0.0,0.0,0.0,0.0,0.0,0.0,0.0,0.0,0.0,0.0,0.0,0.0,0.0,0.0,0.0,0.0,0.0,0.0,0.0,0.0,0.0,0.0,0.0,0.0,0.0,0.0,0.0,0.0,0.0,0.0,0.0,0.0,0.0,0.0,0.0,0.0,0.0,0.0,0.0,0.0,0.0,0.0,0.0,0.0,0.0,0.0,0.0,0.0,0.0,0.0,0.0,0.0,0.0,0.0,0.0,0.0,0.0,0.0,0.0,0.0,0.0,0.0,0.0,0.0,0.0,0.0,0.0,0.0,0.0,0.0,0.0,0.0,0.0,0.0,0.0,0.0,0.0,0.0,0.0,0.0,0.0,-1.7772,-1.7772,-1.7266,-1.6343,-1.5049,0.0,0.0,0.0,0.0,0.0,0.0,0.0,0.0,0.0,0.0,0.0,0.0,0.0,0.0,0.0,0.0,0.0,0.0,0.0,0.0,0.0,0.0,0.0,0.0,0.0,0.0,0.0,0.0,0.0,0.0,0.0,0.0,0.0,0.0,0.0,0.0,0.0,0.0,0.0,0.0,0.0,0.0,0.0,0.0,0.0,0.0,0.0,0.0,0.0,0.0,0.0,0.0,0.0,0.0,0.0,0.0,0.0,0.0,0.0,0.0,0.0,0.0,0.0,0.0,0.0,0.0,0.0,0.0,0.0,0.0,0.0,0.0,0.0,0.0,0.0,0.0,0.0,0.0,0.0,0.0,0.0,0.0,0.0,0.0,0.0,0.0,0.0,0.0,0.0,0.0,0.0,0.0,0.0,0.0,0.0,0.0,0.0,0.0,0.0,0.0,0.0,0.0,0.0,0.0,0.0,0.0,0.0,0.0,0.0,0.0,0.0,0.0,-1.7082,-1.6189,-1.5176,0.0,0.0,0.0,0.0,0.0,0.0,0.0,0.0,0.0,0.0,0.0,0.0,0.0,0.0,0.0,0.0,0.0,0.0,0.0,0.0,0.0,0.0,0.0,0.0,0.0,0.0,0.0,0.0,0.0,0.0,0.0,0.0,0.0,0.0,0.0,0.0,0.0,0.0,0.0,0.0,0.0,0.0,0.0,0.0,0.0,0.0,0.0,0.0,0.0,0.0,0.0,0.0,0.0,0.0,0.0,0.0,0.0,0.0,0.0,0.0,0.0,0.0,0.0,0.0,0.0,0.0,0.0,0.0,0.0,0.0,0.0,0.0,0.0,0.0,0.0,0.0,0.0,0.0,0.0,0.0,0.0,0.0,0.0,0.0,0.0,0.0,0.0,0.0,0.0,0.0,0.0,0.0,0.0,0.0,0.0,0.0,0.0,0.0,0.0,0.0,0.0,0.0,0.0,0.0,0.0,0.0,0.0,0.0,0.0,0.0,-1.7674,-1.8289,-1.7895,0.0,-1.6182,0.0,0.0,0.0,0.0,0.0,0.0,0.0,0.0,0.0,0.0,0.0,0.0,0.0,0.0,0.0,0.0,0.0,0.0,0.0,0.0,0.0,0.0,0.0,0.0,0.0,0.0,0.0,0.0,0.0,0.0,0.0,0.0,0.0,0.0,0.0,0.0,0.0,0.0,0.0,0.0,0.0,0.0,0.0,0.0,0.0,0.0,0.0,0.0,0.0,0.0,0.0,0.0,0.0,0.0,0.0,0.0,0.0,0.0,0.0,0.0,0.0,0.0,0.0,0.0,0.0,0.0,0.0,0.0,0.0,0.0,0.0,0.0,0.0,0.0,0.0,0.0,0.0,0.0,0.0,0.0,0.0,0.0,0.0,0.0,0.0,0.0,0.0,0.0,0.0,0.0,0.0,0.0,0.0,0.0,0.0,0.0,0.0,0.0,0.0,0.0,0.0,0.0,0.0,0.0,0.0,0.0,0.0,0.0,0.0,0.0,-1.7934,-1.8044,-1.6924,-1.5871,0.0,0.0,0.0,0.0,0.0,0.0,0.0,0.0,0.0,0.0,0.0,0.0,0.0,0.0,0.0,0.0,0.0,0.0,0.0,0.0,0.0,0.0,0.0,0.0,0.0,0.0,0.0,0.0,0.0,0.0,0.0,0.0,0.0,0.0,0.0,0.0,0.0,0.0,0.0,0.0,0.0,0.0,0.0,0.0,0.0,0.0,0.0,0.0,0.0,0.0,0.0,0.0,0.0,0.0,0.0,0.0,0.0,0.0,0.0,0.0,0.0,0.0,0.0,0.0,0.0,0.0,0.0,0.0,0.0,0.0,0.0,0.0,0.0,0.0,0.0,0.0,0.0,0.0,0.0,0.0,0.0,0.0,0.0,0.0,0.0,0.0,0.0,0.0,0.0,0.0,0.0,0.0,0.0,0.0,0.0,0.0,0.0,0.0,0.0,0.0,0.0,0.0,0.0,0.0,0.0,0.0,0.0,0.0,0.0,0.0,-1.8052,-1.7936,-1.749,-1.6335,-1.511,-1.3855,0.0,0.0,0.0,0.0,0.0,0.0,0.0,0.0,0.0,0.0,0.0,0.0,0.0,0.0,0.0,0.0,0.0,0.0,0.0,0.0,0.0,0.0,0.0,0.0,0.0,0.0,0.0,0.0,0.0,0.0,0.0,0.0,0.0,0.0,0.0,0.0,0.0,0.0,0.0,0.0,0.0,0.0,0.0,0.0,0.0,0.0,0.0,0.0,0.0,0.0,0.0,0.0,0.0,0.0,0.0,0.0,0.0,0.0,0.0,0.0,0.0,0.0,0.0,0.0,0.0,0.0,0.0,0.0,0.0,0.0,0.0,0.0,0.0,0.0,0.0,0.0,0.0,0.0,0.0,0.0,0.0,0.0,0.0,0.0,0.0,0.0,0.0,0.0,0.0,0.0,0.0,0.0,0.0,0.0,0.0,0.0,0.0,0.0,0.0,0.0,0.0,0.0,0.0,0.0,0.0,0.0,0.0,0.0,0.0,-1.828,-1.7479,-1.6818,-1.6652,-1.5725,0.0,0.0,0.0,0.0,0.0,0.0,0.0,0.0,0.0,0.0,0.0,0.0,0.0,0.0,0.0,0.0,0.0,0.0,0.0,0.0,0.0,0.0,0.0,0.0,0.0,0.0,0.0,0.0,0.0,0.0,0.0,0.0,0.0,0.0,0.0,0.0,0.0,0.0,0.0,0.0,0.0,0.0,0.0,0.0,0.0,0.0,0.0,0.0,0.0,0.0,0.0,0.0,0.0,0.0,0.0,0.0,0.0,0.0,0.0,0.0,0.0,0.0,0.0,0.0,0.0,0.0,0.0,0.0,0.0,0.0,0.0,0.0,0.0,0.0,0.0,0.0,0.0,0.0,0.0,0.0,0.0,0.0,0.0,0.0,0.0,0.0,0.0,0.0,0.0,0.0,0.0,0.0,0.0,0.0,0.0,0.0,0.0,0.0,0.0,0.0,0.0,0.0,0.0,0.0,0.0,0.0,0.0,0.0,0.0,-1.7059,-1.6302,-1.6331,-1.722,-1.5741,-1.4888,0.0,0.0,0.0,0.0,0.0,0.0,0.0,0.0,0.0,0.0,0.0,0.0,0.0,0.0,0.0,0.0,0.0,0.0,0.0,0.0,0.0,0.0,0.0,0.0,0.0,0.0,0.0,0.0,0.0,0.0,0.0,0.0,0.0,0.0,0.0,0.0,0.0,0.0,0.0,0.0,0.0,0.0,0.0,0.0,0.0,0.0,0.0,0.0,0.0,0.0,0.0,0.0,0.0,0.0,0.0,0.0,0.0,0.0,0.0,0.0,0.0,0.0,0.0,0.0,0.0,0.0,0.0,0.0,0.0,0.0,0.0,0.0,0.0,0.0,0.0,0.0,0.0,0.0,0.0,0.0,0.0,0.0,0.0,0.0,0.0,0.0,0.0,0.0,0.0,0.0,0.0,0.0,0.0,0.0,0.0,0.0,0.0,0.0,0.0,0.0,0.0,0.0,0.0,0.0,0.0,0.0,0.0,0.0,0.0,-1.637,0.0,-1.635,0.0,-1.5381,-1.4466,0.0,0.0,0.0,0.0,0.0,0.0,0.0,0.0,0.0,0.0,0.0,0.0,0.0,0.0,0.0,0.0,0.0,0.0,0.0,0.0,0.0,0.0,0.0,0.0,0.0,0.0,0.0,0.0,0.0,0.0,0.0,0.0,0.0,0.0,0.0,0.0,0.0,0.0,0.0,0.0,0.0,0.0,0.0,0.0,0.0,0.0,0.0,0.0,0.0,0.0,0.0,0.0,0.0,0.0,0.0,0.0,0.0,0.0,0.0,0.0,0.0,0.0,0.0,0.0,0.0,0.0,0.0,0.0,0.0,0.0,0.0,0.0,0.0,0.0,0.0,0.0,0.0,0.0,0.0,0.0,0.0,0.0,0.0,0.0,0.0,0.0,0.0,0.0,0.0,0.0,0.0,0.0,0.0,0.0,0.0,0.0,0.0,0.0,0.0,0.0,0.0,0.0,0.0,0.0,0.0,0.0,0.0,0.0,-1.7027,-1.7535,-1.7999,-1.7469,-1.5903,-1.5724,-1.4539,0.0,0.0,0.0,0.0,0.0,0.0,0.0,0.0,0.0,0.0,0.0,0.0,0.0,0.0,0.0,0.0,0.0,0.0,0.0,0.0,0.0,0.0,0.0,0.0,0.0,0.0,0.0,0.0,0.0,0.0,0.0,0.0,0.0,0.0,0.0,0.0,0.0,0.0,0.0,0.0,0.0,0.0,0.0,0.0,0.0,0.0,0.0,0.0,0.0,0.0,0.0,0.0,0.0,0.0,0.0,0.0,0.0,0.0,0.0,0.0,0.0,0.0,0.0,0.0,0.0,0.0,0.0,0.0,0.0,0.0,0.0,0.0,0.0,0.0,0.0,0.0,0.0,0.0,0.0,0.0,0.0,0.0,0.0,0.0,0.0,0.0,0.0,0.0,0.0,0.0,0.0,0.0,0.0,0.0,0.0,0.0,0.0,0.0,0.0,0.0,0.0,0.0,0.0,0.0,0.0,0.0,0.0,0.0,0.0,-1.6339,-1.6768,-1.7053,-1.7042,-1.5351,-1.4466,0.0,0.0,0.0,0.0,0.0,0.0,0.0,0.0,0.0,0.0,0.0,0.0,0.0,0.0,0.0,0.0,0.0,0.0,0.0,0.0,0.0,0.0,0.0,0.0,0.0,0.0,0.0,0.0,0.0,0.0,0.0,0.0,0.0,0.0,0.0,0.0,0.0,0.0,0.0,0.0,0.0,0.0,0.0,0.0,0.0,0.0,0.0,0.0,0.0,0.0,0.0,0.0,0.0,0.0,0.0,0.0,0.0,0.0,0.0,0.0,0.0,0.0,0.0,0.0,0.0,0.0,0.0,0.0,0.0,0.0,0.0,0.0,0.0,0.0,0.0,0.0,0.0,0.0,0.0,0.0,0.0,0.0,0.0,0.0,0.0,0.0,0.0,0.0,0.0,0.0,0.0,0.0,0.0,0.0,0.0,0.0,0.0,0.0,0.0,0.0,0.0,0.0,0.0,0.0,0.0,0.0,0.0,0.0,0.0,-1.8427,-1.8439,-1.8455,-1.8463,-1.6383,-1.5321,-1.5365,0.0,0.0,0.0,0.0,0.0,0.0,0.0,0.0,0.0,0.0,0.0,0.0,0.0,0.0,0.0,0.0,0.0,0.0,0.0,0.0,0.0,0.0,0.0,0.0,0.0,0.0,0.0,0.0,0.0,0.0,0.0,0.0,0.0,0.0,0.0,0.0,0.0,0.0,0.0,0.0,0.0,0.0,0.0,0.0,0.0,0.0,0.0,0.0,0.0,0.0,0.0,0.0,0.0,0.0,0.0,0.0,0.0,0.0,0.0,0.0,0.0,0.0,0.0,0.0,0.0,0.0,0.0,0.0,0.0,0.0,0.0,0.0,0.0,0.0,0.0,0.0,0.0,0.0,0.0,0.0,0.0,0.0,0.0,0.0,0.0,0.0,0.0,0.0,0.0,0.0,0.0,0.0,0.0,0.0,0.0,0.0,0.0,0.0,0.0,0.0,0.0,0.0,0.0,0.0,0.0,0.0,0.0,0.0,-2.2948,-2.2498,-2.1485,-1.9966,-1.8523,-1.6891,0.0,0.0,0.0,0.0,0.0,0.0,0.0,0.0,0.0,0.0,0.0,0.0,0.0,0.0,0.0,0.0,0.0,0.0,0.0,0.0,0.0,0.0,0.0,0.0,0.0,0.0,0.0,0.0,0.0,0.0,0.0,0.0,0.0,0.0,0.0,0.0,0.0,0.0,0.0,0.0,0.0,0.0,0.0,0.0,0.0,0.0,0.0,0.0,0.0,0.0,0.0,0.0,0.0,0.0,0.0,0.0,0.0,0.0,0.0,0.0,0.0,0.0,0.0,0.0,0.0,0.0,0.0,0.0,0.0,0.0,0.0,0.0,0.0,0.0,0.0,0.0,0.0,0.0,0.0,0.0,0.0,0.0,0.0,0.0,0.0,0.0,0.0,0.0,0.0,0.0,0.0,0.0,0.0,0.0,0.0,0.0,0.0,0.0,0.0,0.0,0.0,0.0,0.0,0.0,0.0,0.0,0.0,0.0,0.0,-2.5005,-2.5134,-2.4347,-2.2604,-1.9899,-1.7984,0.0,0.0,0.0,0.0,0.0,0.0,0.0,0.0,0.0,0.0,0.0,0.0,0.0,0.0,0.0,0.0,0.0,0.0,0.0,0.0,0.0,0.0,0.0,0.0,0.0,0.0,0.0,0.0,0.0,0.0,0.0,0.0,0.0,0.0,0.0,0.0,0.0,0.0,0.0,0.0,0.0,0.0,0.0,0.0,0.0,0.0,0.0,0.0,0.0,0.0,0.0,0.0,0.0,0.0,0.0,0.0,0.0,0.0,0.0,0.0,0.0,0.0,0.0,0.0,0.0,0.0,0.0,0.0,0.0,0.0,0.0,0.0,0.0,0.0,0.0,0.0,0.0,0.0,0.0,0.0,0.0,0.0,0.0,0.0,0.0,0.0,0.0,0.0,0.0,0.0,0.0,0.0,0.0,0.0,0.0,0.0,0.0,0.0,0.0,0.0,0.0,0.0,0.0,0.0,0.0,0.0,0.0,0.0,-2.4353,-2.6283,-2.7211,-2.7043,-2.5704,-2.2233,-1.9809,0.0,0.0,0.0,0.0,0.0,0.0,0.0,0.0,0.0,0.0,0.0,0.0,0.0,0.0,0.0,0.0,0.0,0.0,0.0,0.0,0.0,0.0,0.0,0.0,0.0,0.0,0.0,0.0,0.0,0.0,0.0,0.0,0.0,0.0,0.0,0.0,0.0,0.0,0.0,0.0,0.0,0.0,0.0,0.0,0.0,0.0,0.0,0.0,0.0,0.0,0.0,0.0,0.0,0.0,0.0,0.0,0.0,0.0,0.0,0.0,0.0,0.0,0.0,0.0,0.0,0.0,0.0,0.0,0.0,0.0,0.0,0.0,0.0,0.0,0.0,0.0,0.0,0.0,0.0,0.0,0.0,0.0,0.0,0.0,0.0,0.0,0.0,0.0,0.0,0.0,0.0,0.0,0.0,0.0,0.0,0.0,0.0,0.0,0.0,0.0,0.0,0.0,0.0,0.0,0.0,0.0,0.0,0.0,-2.559,-2.7026,-2.8708,-2.9295,-2.8607,-2.4859,-2.1864,0.0,0.0,0.0,0.0,0.0,0.0,0.0,0.0,0.0,0.0,0.0,0.0,0.0,0.0,0.0,0.0,0.0,0.0,0.0,0.0,0.0,0.0,0.0,0.0,0.0,0.0,0.0,0.0,0.0,0.0,0.0,0.0,0.0,0.0,0.0,0.0,0.0,0.0,0.0,0.0,0.0,0.0,0.0,0.0,0.0,0.0,0.0,0.0,0.0,0.0,0.0,0.0,0.0,0.0,0.0,0.0,0.0,0.0,0.0,0.0,0.0,0.0,0.0,0.0,0.0,0.0,0.0,0.0,0.0,0.0,0.0,0.0,0.0,0.0,0.0,0.0,0.0,0.0,0.0,0.0,0.0,0.0,0.0,0.0,0.0,0.0,0.0,0.0,0.0,0.0,0.0,0.0,0.0,0.0,0.0,0.0,0.0,0.0,0.0,0.0,0.0,0.0,0.0,0.0,0.0,0.0,0.0,0.0,-2.6342,-2.7898,-2.9009,-2.9532,-2.9382,-2.5495,-2.2503,0.0,0.0,0.0,0.0,0.0,0.0,0.0,0.0,0.0,0.0,0.0,0.0,0.0,0.0,0.0,0.0,0.0,0.0,0.0,0.0,0.0,0.0,0.0,0.0,0.0,0.0,0.0,0.0,0.0,0.0,0.0,0.0,0.0,0.0,0.0,0.0,0.0,0.0,0.0,0.0,0.0,0.0,0.0,0.0,0.0,0.0,0.0,0.0,-0.6923,0.0,0.0,0.0,0.0,0.0,0.0,0.0,0.0,0.0,0.0,0.0,0.0,0.0,0.0,0.0,0.0,0.0,0.0,0.0,0.0,0.0,0.0,0.0,0.0,0.0,0.0,0.0,0.0,0.0,0.0,0.0,0.0,0.0,0.0,0.0,0.0,0.0,0.0,0.0,0.0,0.0,0.0,0.0,0.0,0.0,0.0,0.0,0.0,0.0,0.0,0.0,0.0,0.0,0.0,0.0,0.0,0.0,0.0,0.0,-2.7079,-2.8621,-2.9535,-2.9894,-2.9502,-2.6303,-2.349,0.0,0.0,0.0,0.0,0.0,0.0,0.0,0.0,0.0,0.0,0.0,0.0,0.0,0.0,0.0,0.0,0.0,0.0,0.0,0.0,0.0,0.0,0.0,0.0,0.0,0.0,0.0,0.0,0.0,0.0,0.0,0.0,0.0,0.0,0.0,0.0,0.0,0.0,0.0,0.0,0.0,0.0,0.0,0.0,0.0,0.0,0.0,0.0,0.0,0.0,0.0,0.0,0.0,0.0,0.0,0.0,0.0,0.0,0.0,0.0,0.0,0.0,0.0,0.0,0.0,0.0,0.0,0.0,0.0,0.0,0.0,0.0,0.0,0.0,0.0,0.0,0.0,0.0,0.0,0.0,0.0,0.0,0.0,0.0,0.0,0.0,0.0,0.0,0.0,0.0,0.0,0.0,0.0,0.0,0.0,0.0,0.0,0.0,0.0,0.0,0.0,0.0,0.0,0.0,0.0,0.0,0.0,-2.5096,-2.7586,-2.9353,-3.0051,-3.0133,-2.9592,-2.6901,-2.4246,-2.1754,0.0,0.0,0.0,0.0,0.0,0.0,0.0,0.0,0.0,0.0,0.0,0.0,0.0,0.0,0.0,0.0,0.0,0.0,0.0,0.0,0.0,0.0,0.0,0.0,0.0,0.0,0.0,0.0,0.0,0.0,0.0,0.0,0.0,0.0,0.0,0.0,0.0,0.0,-0.7824,-0.8392,0.0,0.0,0.0,0.0,0.0,0.0,0.0,0.0,-0.6554,0.0,0.0,0.0,0.0,0.0,0.0,0.0,0.0,0.0,0.0,0.0,0.0,0.0,0.0,0.0,0.0,0.0,0.0,0.0,0.0,0.0,0.0,0.0,0.0,0.0,0.0,0.0,0.0,0.0,0.0,0.0,0.0,0.0,0.0,0.0,0.0,0.0,0.0,0.0,0.0,0.0,0.0,0.0,0.0,0.0,0.0,0.0,0.0,0.0,0.0,0.0,0.0,0.0,0.0,0.0,0.0,-2.5052,-2.5715,-2.7403,-3.021,-2.9948,-2.9711,-2.9532,-2.6452,-2.3797,-2.1724,0.0,0.0,0.0,0.0,0.0,0.0,0.0,0.0,0.0,0.0,0.0,0.0,0.0,0.0,0.0,0.0,0.0,0.0,0.0,0.0,0.0,0.0,0.0,0.0,0.0,0.0,0.0,0.0,0.0,0.0,0.0,0.0,0.0,0.0,0.0,0.0,0.0,0.0,0.0,-0.9926,-0.9982,0.0,0.0,0.0,0.0,0.0,0.0,0.0,0.0,-0.7199,0.0,0.0,0.0,0.0,0.0,0.0,0.0,0.0,0.0,0.0,0.0,0.0,0.0,0.0,0.0,0.0,0.0,0.0,0.0,0.0,0.0,0.0,0.0,0.0,0.0,0.0,0.0,0.0,0.0,0.0,0.0,0.0,0.0,0.0,0.0,0.0,0.0,0.0,0.0,0.0,0.0,0.0,0.0,0.0,0.0,0.0,0.0,0.0,0.0,0.0,0.0,0.0,0.0,0.0,0.0,-2.5044,-2.6455,-2.8351,-3.0851,-3.0073,-2.9621,-2.9532,-2.6004,-2.3319,0.0,0.0,0.0,0.0,0.0,0.0,0.0,0.0,0.0,0.0,0.0,0.0,0.0,0.0,0.0,0.0,0.0,0.0,0.0,0.0,0.0,0.0,0.0,0.0,0.0,0.0,0.0,0.0,0.0,0.0,0.0,0.0,0.0,0.0,0.0,0.0,0.0,0.0,0.0,0.0,-1.0782,-1.0997,-1.228,0.0,0.0,0.0,0.0,0.0,0.0,-0.8635,-0.8216,0.0,0.0,0.0,0.0,0.0,0.0,0.0,0.0,0.0,0.0,0.0,0.0,0.0,0.0,0.0,0.0,0.0,0.0,0.0,0.0,0.0,0.0,0.0,0.0,0.0,0.0,0.0,0.0,0.0,0.0,0.0,0.0,0.0,0.0,0.0,0.0,0.0,0.0,0.0,0.0,0.0,0.0,0.0,0.0,0.0,0.0,0.0,0.0,0.0,0.0,0.0,0.0,0.0,0.0,0.0,-2.4621,-2.6972,-2.9286,-3.133,-3.0253,-2.9621,-2.9532,-2.5728,-2.3011,0.0,0.0,0.0,0.0,0.0,0.0,0.0,0.0,0.0,0.0,0.0,0.0,0.0,0.0,0.0,0.0,0.0,0.0,0.0,0.0,0.0,0.0,0.0,0.0,0.0,0.0,0.0,0.0,0.0,0.0,0.0,0.0,0.0,0.0,0.0,0.0,0.0,0.0,0.0,0.0,0.0,-1.2319,-1.3674,-1.2062,0.0,0.0,0.0,0.0,-0.9542,-0.9641,0.0,0.0,0.0,0.0,0.0,0.0,0.0,0.0,0.0,0.0,0.0,0.0,0.0,0.0,0.0,0.0,0.0,0.0,0.0,0.0,0.0,0.0,0.0,0.0,0.0,0.0,0.0,0.0,0.0,0.0,0.0,0.0,0.0,0.0,0.0,0.0,0.0,0.0,0.0,0.0,0.0,0.0,0.0,0.0,0.0,0.0,0.0,0.0,0.0,0.0,0.0,0.0,0.0,0.0,0.0,0.0,-2.4621,-2.6934,-2.9208,-3.13,-3.0253,-2.9621,-2.9562,-2.5728,-2.3011,0.0,0.0,0.0,0.0,0.0,0.0,0.0,0.0,0.0,0.0,0.0,0.0,0.0,0.0,0.0,0.0,0.0,0.0,0.0,0.0,0.0,0.0,0.0,0.0,0.0,0.0,0.0,0.0,0.0,0.0,0.0,0.0,0.0,0.0,0.0,0.0,0.0,0.0,0.0,0.0,0.0,-1.4235,-1.3396,-1.2669,-1.2049,0.0,0.0,-1.1369,-1.1809,-1.1724,0.0,0.0,0.0,0.0,0.0,0.0,0.0,0.0,0.0,0.0,0.0,0.0,0.0,0.0,0.0,0.0,0.0,0.0,0.0,0.0,0.0,0.0,0.0,0.0,0.0,0.0,0.0,0.0,0.0,0.0,0.0,0.0,0.0,0.0,0.0,0.0,0.0,0.0,0.0,0.0,0.0,0.0,0.0,0.0,0.0,0.0,0.0,0.0,0.0,0.0,0.0,0.0,0.0,0.0,0.0,-2.1845,-2.4695,-2.7832,-3.0147,-3.1391,-3.0253,-2.9621,-2.9592,-2.5368,-2.2673,0.0,0.0,0.0,0.0,0.0,0.0,0.0,0.0,0.0,0.0,0.0,0.0,0.0,0.0,0.0,0.0,0.0,0.0,0.0,0.0,0.0,0.0,0.0,0.0,0.0,0.0,0.0,0.0,0.0,0.0,0.0,0.0,0.0,0.0,0.0,0.0,0.0,0.0,0.0,0.0,0.0,0.0,-1.4055,-1.3675,0.0,0.0,0.0,-1.2382,-1.2645,0.0,0.0,0.0,0.0,0.0,0.0,0.0,0.0,0.0,0.0,0.0,0.0,0.0,0.0,0.0,0.0,0.0,0.0,0.0,0.0,0.0,0.0,0.0,0.0,0.0,0.0,0.0,0.0,0.0,0.0,0.0,0.0,0.0,0.0,0.0,0.0,0.0,0.0,0.0,0.0,0.0,0.0,0.0,0.0,0.0,0.0,0.0,0.0,0.0,0.0,0.0,0.0,0.0,0.0,0.0,0.0,0.0,-2.4726,-2.8541,-3.0823,-3.1451,-3.0402,-2.9771,-2.9532,-2.5555,0.0,0.0,0.0,0.0,0.0,0.0,0.0,0.0,0.0,0.0,0.0,0.0,0.0,0.0,0.0,0.0,0.0,0.0,0.0,0.0,0.0,0.0,0.0,0.0,0.0,0.0,0.0,-0.7403,0.0,0.0,0.0,0.0,0.0,0.0,0.0,0.0,0.0,0.0,0.0,0.0,0.0,0.0,-1.4459,-1.4575,-1.4612,-1.4683,0.0,0.0,-1.3451,-1.3191,-1.3608,-1.2849,0.0,0.0,0.0,0.0,0.0,0.0,0.0,0.0,0.0,0.0,0.0,0.0,0.0,0.0,0.0,0.0,0.0,0.0,0.0,0.0,0.0,0.0,0.0,0.0,0.0,0.0,0.0,0.0,0.0,0.0,0.0,0.0,0.0,0.0,0.0,0.0,0.0,0.0,0.0,0.0,0.0,0.0,0.0,0.0,0.0,0.0,0.0,0.0,0.0,0.0,0.0,0.0,0.0,0.0,0.0,-2.4737,-2.8541,-3.0851,-3.1451,-3.0793,-3.0163,-2.9592,-2.6871,-2.4238,0.0,0.0,0.0,0.0,0.0,0.0,0.0,0.0,0.0,0.0,0.0,0.0,0.0,0.0,0.0,0.0,0.0,0.0,0.0,0.0,0.0,0.0,0.0,0.0,0.0,0.0,0.0,0.0,0.0,0.0,0.0,0.0,0.0,0.0,0.0,0.0,0.0,0.0,0.0,0.0,0.0,-1.5116,-1.4674,-1.5491,-1.5916,0.0,0.0,-1.4697,-1.3726,-1.4209,-1.3559,-1.0116,0.0,0.0,0.0,0.0,0.0,0.0,0.0,0.0,0.0,0.0,0.0,0.0,0.0,0.0,0.0,0.0,0.0,0.0,0.0,0.0,0.0,0.0,0.0,0.0,0.0,0.0,0.0,0.0,0.0,0.0,0.0,0.0,0.0,0.0,0.0,0.0,0.0,0.0,0.0,0.0,0.0,0.0,0.0,0.0,0.0,0.0,0.0,0.0,0.0,0.0,0.0,0.0,0.0,-2.2516,-2.5351,-2.8748,-3.0823,-3.1451,-3.0851,-3.0193,-2.9621,-2.6991,-2.4567,0.0,0.0,0.0,0.0,0.0,0.0,0.0,0.0,0.0,0.0,0.0,0.0,0.0,0.0,0.0,0.0,0.0,0.0,0.0,0.0,0.0,0.0,0.0,0.0,0.0,0.0,0.0,0.0,-0.9557,-0.9309,-0.8221,0.0,0.0,0.0,0.0,0.0,0.0,0.0,0.0,0.0,0.0,-1.5056,-1.5402,-1.5977,0.0,0.0,-1.6337,-1.5914,-1.5785,-1.4935,-1.3467,-1.0974,-0.9408,0.0,0.0,0.0,0.0,0.0,0.0,0.0,0.0,0.0,0.0,0.0,0.0,0.0,0.0,0.0,0.0,0.0,0.0,0.0,0.0,0.0,0.0,0.0,0.0,0.0,0.0,0.0,0.0,0.0,0.0,0.0,0.0,0.0,0.0,0.0,0.0,0.0,0.0,0.0,0.0,0.0,0.0,0.0,0.0,0.0,0.0,0.0,0.0,0.0,0.0,0.0,0.0,-2.229,-2.5581,-2.8637,-3.0642,-3.1481,-3.1061,-3.0432,-2.9592,-2.759,-2.5375,0.0,0.0,0.0,0.0,0.0,0.0,0.0,0.0,0.0,0.0,0.0,0.0,0.0,0.0,0.0,0.0,0.0,0.0,0.0,0.0,0.0,0.0,0.0,0.0,0.0,0.0,0.0,0.0,-1.0431,-0.9867,-0.8407,0.0,0.0,0.0,0.0,0.0,0.0,0.0,0.0,0.0,0.0,-1.5085,-1.5873,-1.6151,-1.6463,-1.6985,-1.6494,-1.6031,-1.5873,-1.4728,-1.3209,-1.1425,0.0,0.0,0.0,0.0,0.0,0.0,0.0,0.0,0.0,0.0,0.0,0.0,0.0,0.0,0.0,0.0,0.0,0.0,0.0,0.0,0.0,0.0,0.0,0.0,0.0,0.0,0.0,-1.978,0.0,0.0,-1.9737,0.0,0.0,0.0,0.0,0.0,0.0,0.0,0.0,0.0,0.0,0.0,0.0,0.0,0.0,0.0,0.0,0.0,0.0,0.0,0.0,0.0,0.0,-2.1549,-2.5111,-2.8147,-3.0253,-3.1451,-3.1481,-3.0853,-2.9681,-2.8906,-2.6961,-2.361,0.0,0.0,0.0,0.0,0.0,0.0,0.0,0.0,0.0,0.0,0.0,0.0,0.0,0.0,0.0,0.0,0.0,0.0,0.0,0.0,0.0,0.0,0.0,0.0,0.0,0.0,-0.9969,-0.9637,-0.9105,0.0,0.0,0.0,0.0,0.0,0.0,0.0,0.0,0.0,0.0,-1.4248,-1.5377,-1.5936,-1.6003,-1.5847,-1.5347,-1.53,-1.4822,-1.3375,-1.3322,-1.2935,0.0,0.0,0.0,0.0,0.0,0.0,0.0,0.0,0.0,0.0,0.0,0.0,0.0,0.0,0.0,0.0,0.0,0.0,0.0,0.0,0.0,0.0,0.0,0.0,0.0,0.0,0.0,-2.3864,-2.2815,0.0,0.0,0.0,0.0,0.0,0.0,0.0,0.0,0.0,0.0,0.0,-2.6931,-2.738,0.0,0.0,0.0,0.0,0.0,0.0,0.0,0.0,0.0,0.0,0.0,0.0,-2.2637,-2.5838,-2.8721,-3.0614,-3.1481,-3.1511,-3.1062,-3.0223,-2.9175,-2.6632,-2.2473,0.0,0.0,0.0,0.0,0.0,0.0,0.0,0.0,0.0,0.0,0.0,0.0,0.0,0.0,0.0,0.0,0.0,0.0,0.0,0.0,0.0,0.0,0.0,0.0,0.0,-1.0756,0.0,0.0,0.0,0.0,0.0,0.0,0.0,0.0,0.0,0.0,0.0,-1.3145,-1.4411,-1.5035,-1.5519,-1.6065,-1.6126,-1.6187,0.0,0.0,0.0,0.0,0.0,0.0,0.0,0.0,0.0,0.0,0.0,0.0,0.0,0.0,-0.8498,-0.6254,-0.5773,-0.5653,-0.5448,0.0,0.0,0.0,0.0,0.0,0.0,0.0,0.0,0.0,0.0,0.0,0.0,0.0,0.0,-2.7394,0.0,-2.6077,0.0,0.0,0.0,0.0,0.0,0.0,0.0,0.0,-2.8865,-3.0253,-3.0672,-3.1091,-3.0969,0.0,-2.8966,-2.6099,0.0,0.0,0.0,0.0,0.0,0.0,0.0,0.0,-2.3459,-2.6389,-2.9094,-3.0821,-3.1481,-3.1511,-3.1182,-3.0492,-2.9026,-2.6632,-2.3191,-2.1446,-1.9453,0.0,0.0,0.0,0.0,0.0,0.0,0.0,0.0,0.0,0.0,0.0,0.0,0.0,0.0,0.0,0.0,0.0,0.0,0.0,0.0,0.0,0.0,0.0,-1.1605,0.0,0.0,0.0,0.0,0.0,0.0,0.0,0.0,0.0,-1.2178,-1.3441,-1.4691,-1.5583,-1.6032,-1.6172,-1.5912,0.0,0.0,0.0,0.0,0.0,0.0,0.0,-1.2896,-1.2684,-1.115,-0.9866,-0.9619,-0.9828,-0.9743,-0.8814,0.0,0.0,-0.7279,-0.6934,-0.6879,-0.6692,-0.6813,-0.6963,-0.6963,-0.7196,-0.7264,0.0,0.0,0.0,0.0,0.0,0.0,0.0,0.0,-3.0821,-3.1091,0.0,-2.9594,0.0,0.0,0.0,0.0,0.0,-2.8897,0.0,0.0,-3.4692,-3.5821,-3.4653,-3.4593,-3.4294,-3.3664,-3.3544,-3.2168,-2.9475,-2.3939,0.0,0.0,0.0,0.0,0.0,0.0,-2.4081,-2.6716,-2.9265,-3.0881,-3.1511,-3.1511,-3.1182,-3.0492,-2.8693,-2.7046,-2.5674,-2.3819,-2.2173,-2.074,-1.7043,0.0,0.0,0.0,0.0,0.0,0.0,0.0,0.0,0.0,0.0,0.0,0.0,0.0,0.0,0.0,0.0,0.0,0.0,0.0,0.0,-1.2033,0.0,0.0,0.0,0.0,0.0,0.0,0.0,0.0,0.0,0.0,-1.3516,-1.5171,-1.646,-1.6337,0.0,0.0,0.0,0.0,-1.5596,-1.4074,-1.3831,-1.3493,-1.2516,-1.2988,-1.3385,-1.2993,0.0,0.0,-1.0872,-1.0535,-1.0099,-0.8743,-0.8992,-0.9257,-0.9217,-0.8738,-0.8429,-0.839,-0.8404,-0.8456,-0.8469,-0.8631,-0.8805,-3.8033,0.0,0.0,0.0,0.0,-3.3425,-3.4801,-3.6836,-3.6357,-3.5459,-3.4322,-3.3275,0.0,0.0,0.0,0.0,0.0,0.0,-3.191,-3.3578,-3.5105,-3.6297,-3.7255,-3.7285,-3.7165,-3.6956,-3.6058,-3.4981,-3.3694,-3.0672,-2.6452,-2.1306,0.0,0.0,0.0,0.0,-2.6093,-2.8637,-3.0402,-3.154,-3.2198,-3.175,-3.1182,-3.0522,-2.9535,-2.8393,-2.7076,-2.6004,-2.4072,-2.1119,-1.949,0.0,0.0,0.0,0.0,0.0,0.0,0.0,0.0,0.0,0.0,0.0,0.0,0.0,0.0,0.0,0.0,0.0,0.0,0.0,-1.2658,-1.3588,-1.3593,0.0,0.0,0.0,0.0,0.0,0.0,0.0,0.0,0.0,-1.6676,-1.6575,-1.6635,0.0,0.0,-1.5916,-1.4991,-1.4917,-1.4696,-1.4112,-1.4009,0.0,-1.405,-1.375,-1.3574,-1.3724,-1.3681,-1.3032,-1.1351,-1.124,-1.1122,-1.0118,-1.0104,-1.0211,-1.014,-0.9742,-0.9353,-0.9325,-0.9472,-0.9606,-0.9633,-0.986,-0.9896,-4.3389,-3.9978,-3.7345,-3.6836,-3.7853,-3.8123,-3.926,-4.0935,-4.0546,-3.9679,-3.8512,-3.7345,-3.528,-3.2617,-3.133,0.0,0.0,0.0,-3.4302,-3.6058,-3.6746,-3.7674,-3.8751,-3.8811,-3.8811,-3.8751,-3.7734,-3.7045,-3.6626,-3.4651,-3.13,-2.6662,0.0,0.0,-2.4477,-2.6512,-2.8487,-3.0313,-3.163,-3.2348,-3.2497,-3.1839,-3.1182,-3.0522,-2.9894,-2.9112,-2.8034,-2.7081,-2.5444,-2.2976,-2.1613,-1.9307,0.0,0.0,0.0,0.0,0.0,0.0,0.0,0.0,0.0,0.0,0.0,-1.0119,-0.8195,0.0,0.0,0.0,-1.1487,-1.2782,-1.4234,-1.4626,0.0,0.0,0.0,0.0,0.0,0.0,0.0,-1.5737,-1.6994,-1.8055,-1.8731,-1.8455,-1.8304,-1.8655,-1.8289,-1.7506,-1.6302,0.0,-1.6229,-1.5279,-1.4835,-1.4699,-1.498,-1.4453,-1.4034,-1.4128,-1.4279,-1.3602,-1.1872,-1.192,-1.1872,-1.0933,-1.0586,-1.0586,-1.0586,-1.0305,-1.0064,-1.0064,-1.0198,-1.0287,-1.0301,-1.0466,-1.0428,-4.7429,-4.701,-4.2791,-4.1294,-4.1743,-4.244,-4.3,-4.3529,-4.3529,-4.3469,-4.323,-4.1444,-3.9559,-3.7554,-3.4562,0.0,-3.5102,-3.6267,-3.7439,-3.8571,-3.9104,-3.9403,-3.9403,-3.9373,-3.9403,-3.9409,-3.8751,-3.8482,-3.8362,-3.6626,-3.4771,-3.2856,-3.0402,-2.8996,-2.8757,-2.9894,-3.0881,-3.166,-3.2826,-3.3125,-3.2527,-3.1899,-3.1241,-3.0522,-2.9921,-2.9292,-2.8607,-2.729,-2.6279,-2.5514,-2.3341,-2.1283,-1.9383,0.0,0.0,0.0,0.0,0.0,0.0,0.0,0.0,0.0,0.0,0.0,0.0,0.0,0.0,0.0,-1.4354,0.0,-1.583,-1.5421,0.0,0.0,0.0,-1.4615,-1.5146,-1.6637,-1.7688,-1.7907,0.0,0.0,-1.9936,-2.0415,-2.0817,-2.0943,-2.1214,-2.0709,-1.8765,-1.9127,-1.9107,-1.7116,-1.6144,-1.5605,-1.5537,-1.5137,-1.4705,-1.4451,-1.4913,-1.4473,-1.2472,-1.2443,-1.2305,-1.087,-1.0586,-1.0586,-1.0586,-1.0559,-1.0586,-1.0559,-1.0573,-1.0586,-1.0573,-1.0586,-1.0555,-4.8506,-4.7967,-4.686,-4.5633,-4.4436,-4.5095,-4.5454,-4.5562,-4.5603,-4.4994,-4.4018,-4.3021,-4.1803,-4.0397,-3.9619,-3.9439,-3.9738,-3.9559,-3.9649,-3.9888,-3.9559,-3.9403,-3.9403,-3.9403,-3.9403,-3.9373,-3.926,-3.917,-3.911,-3.8182,-3.7225,-3.6207,-3.4651,-3.2347,-2.9505,-3.0103,-3.136,-3.3006,-3.2856,-3.2677,-3.2527,-3.2377,-3.1719,-3.0522,-2.9894,-2.9265,-2.8607,-2.729,-2.6079,-2.4936,-2.3891,-2.2265,-1.9998,-1.6927,0.0,0.0,0.0,0.0,0.0,0.0,0.0,0.0,0.0,-1.425,-1.1204,0.0,-1.4833,0.0,-1.5451,-1.6479,-1.7368,-1.698,0.0,0.0,-1.7437,-1.7466,-1.8516,-1.8981,-1.9258,-1.9308,-2.0014,-2.0641,-2.1069,-2.1245,-2.1769,-2.2975,-2.1819,-2.0628,-2.0108,-1.9448,-1.888,-1.8396,-1.7793,-1.7148,-1.6434,-1.5762,-1.5235,-1.5128,-1.5264,-1.4776,-1.3023,-1.2856,-1.2489,-1.0996,-1.0586,-1.0586,-1.0586,-1.0586,-1.0586,-1.0586,-1.0586,-1.0586,-1.0586,-1.0586,-1.0586,-4.9494,-4.9134,-4.8835,-4.7758,-4.6232,-4.6591,-4.6548,-4.6279,-4.6279,-4.5723,-4.4706,-4.3778,-4.2791,-4.1841,-4.1504,-4.1422,-4.1354,-4.0995,-4.0846,-4.0786,-4.0157,-3.9858,-3.9828,-3.9559,-3.9403,-3.9403,-3.9403,-3.9403,-3.9373,-3.902,-3.8482,-3.7853,-3.7135,-3.54,-3.2736,-3.2108,-3.2377,-3.3484,-3.3125,-3.3095,-3.3365,-3.2826,-3.1869,-3.0552,-2.9624,-2.8697,-2.7739,-2.6398,-2.5265,-2.4282,-2.359,-2.2381,-2.0444,-1.817,-1.6279,0.0,0.0,0.0,0.0,0.0,0.0,0.0,0.0,0.0,0.0,0.0,-1.6913,-1.6409,-1.769,-1.8628,-1.878,-1.8852,-1.9078,-1.9578,-1.94,-1.9532,-2.0465,-2.0765,-2.0916,-2.0916,-2.1418,-2.1895,-2.2171,-2.2447,-2.3025,-2.4205,-2.3474,-2.2659,-2.2209,-2.1436,-2.0722,-2.0279,-1.9298,-1.8125,-1.6902,-1.6297,-1.5829,-1.5508,-1.541,-1.4864,-1.3312,-1.3009,-1.2458,-1.0996,-1.0586,-1.0586,-1.0586,-1.0586,-1.0586,-1.0586,-1.0586,-1.0586,-1.0586,-1.0586,-1.0586,-5.0255,-5.0136,-4.9643,-4.8686,-4.7549,-4.7459,-4.695,-4.6202,-4.616,-4.5843,-4.5214,-4.4018,-4.318,-4.262,-4.1923,-4.1624,-4.1624,-4.1534,-4.1542,-4.1512,-4.0756,-4.0397,-4.0367,-3.9738,-3.9403,-3.9403,-3.9403,-3.9403,-3.9403,-3.9403,-3.908,-3.8422,-3.8302,-3.7674,-3.6447,-3.4651,-3.3664,-3.3514,-3.3574,-3.3904,-3.4322,-3.3066,-3.1749,-3.0402,-2.9146,-2.7889,-2.6632,-2.5292,-2.4335,-2.3759,-2.3152,-2.2295,-2.1129,-1.9469,-1.7884,0.0,-1.5273,0.0,0.0,0.0,0.0,0.0,0.0,0.0,0.0,-1.9139,-1.9505,-1.893,-2.0434,-2.109,-2.0246,-2.0781,-2.117,-2.0999,-2.1018,-2.1245,-2.1845,-2.2272,-2.2523,-2.2523,-2.2869,-2.3095,-2.307,-2.3597,-2.418,-2.4675,-2.5101,-2.5062,-2.4578,-2.3802,-2.2959,-2.228,-2.0548,-1.8711,-1.7467,-1.6882,-1.6395,-1.5762,-1.5488,-1.4854,-1.3282,-1.3009,-1.2489,-1.1028,-1.0586,-1.0586,-1.0586,-1.0586,-1.0586,-1.0586,-1.0586,-1.0586,-1.0586,-1.0586,-1.0586,-5.0674,-5.0166,-5.0076,-4.9613,-4.8865,-4.8327,-4.71,-4.5484,-4.5484,-4.5424,-4.5244,-4.4496,-4.4077,-4.3898,-4.3269,-4.2931,-4.2901,-4.2402,-4.2201,-4.2171,-4.0965,-4.0397,-4.0367,-3.9738,-3.9403,-3.9403,-3.9403,-3.9403,-3.9403,-3.9403,-3.908,-3.8392,-3.7853,-3.7225,-3.6477,0.0,0.0,0.0,-3.4054,-3.4114,-3.3664,-3.2348,-3.1062,-2.9801,-2.8483,0.0,-2.6602,-2.5292,-2.4522,-2.4395,-2.3789,0.0,0.0,0.0,0.0,0.0,0.0,0.0,0.0,0.0,0.0,0.0,-2.1585,-2.1138,-2.0317,-2.1754,-2.251,-2.1947,-2.2701,-2.2909,-2.2168,-2.2194,-2.2399,-2.261,-2.2644,-2.3045,-2.3998,-2.3879,-2.3678,-2.3678,-2.3346,-2.312,-2.317,-2.3627,-2.4205,-2.4782,-2.5285,-2.5728,-2.6009,-2.4578,-2.3489,-2.3091,-2.0974,-1.9255,-1.8867,-1.7623,-1.6804,-1.6395,-1.581,-1.4851,-1.3467,-1.3072,-1.2489,-1.0965,-1.0586,-1.0618,-1.0586,-1.0586,-1.0586,-1.0586,-1.0586,-1.0586,-1.0586,-1.0586,-1.0586,-5.102,-5.0674,-5.0674,-5.0152,0.0,-4.8566,-4.7339,-4.5843,-4.6142,-4.6112,-4.5783,-4.5454,-4.4945,-4.4287,-4.3589,-4.315,-4.2821,-4.2201,-4.2081,-4.2351,-4.1324,-4.0876,-4.0876,-4.0217,-3.9738,-3.9403,-3.9403,-3.9403,-3.9403,-3.9403,-3.9194,-3.8901,-3.8571,-3.8242,-3.7913,-3.7255,-3.6118,-3.4502,-3.4503,-3.4503,-3.4442,-3.3514,-3.2198,-3.0582,-2.9564,0.0,0.0,0.0,0.0,0.0,0.0,0.0,0.0,0.0,0.0,-2.2003,-2.2173,-2.2363,-2.2484,-2.3185,-2.4029,-2.5039,-2.5428,-2.4896,-2.3259,-2.4627,-2.5414,-2.5127,-2.5344,-2.5173,-2.4431,-2.4255,-2.4142,-2.3971,-2.3948,-2.4199,-2.465,-2.4582,-2.4406,-2.4381,-2.4123,-2.3948,-2.3948,-2.4205,-2.4607,-2.5109,-2.541,-2.5812,-2.6246,-2.5205,-2.4,-2.2914,-2.1275,-1.9803,-1.9316,-1.8672,-1.7793,-1.7389,-1.696,-1.604,-1.4501,-1.423,-1.3578,-1.1713,-1.1202,-1.1108,-1.0681,-1.0586,-1.0586,-1.0586,-1.0586,-1.0586,-1.0586,-1.0586,-1.0586,-5.1229,-5.1229,-5.1229,-5.0601,-4.9599,-4.8895,-4.7878,-4.6638,0.0,0.0,0.0,-4.6279,-4.5723,-4.4616,-4.3828,-4.321,-4.271,-4.2081,-4.2051,-4.253,-4.1901,-4.1602,-4.1542,-4.0756,-4.0098,-3.9619,-3.9469,-3.9403,-3.9403,-3.9403,-3.9403,-3.9403,-3.9403,-3.9403,-3.9379,-3.8721,-3.7614,-3.6058,-3.513,-3.4921,-3.5459,-3.4623,-3.3365,-3.172,-3.0911,-2.9445,-2.723,-2.6482,-2.58,-2.5166,-2.4597,-2.4298,-2.4328,-2.4837,-2.4928,-2.4575,-2.5497,-2.6193,-2.6297,-2.6797,-2.7375,-2.7914,-2.8547,-2.8188,-2.6422,-2.729,-2.7921,-2.7892,-2.7645,-2.7145,-2.6371,-2.603,-2.5673,-2.4998,-2.4926,-2.4951,-2.5084,-2.5008,-2.4926,-2.4926,-2.4825,-2.48,-2.475,-2.485,-2.5109,-2.5485,-2.5711,-2.5946,-2.6211,-2.5406,-2.3963,-2.2355,-2.1179,-2.0312,-1.9744,-1.9333,-1.9023,-1.834,-1.8086,-1.7466,-1.6215,-1.5733,-1.4848,-1.3028,-1.2302,-1.1799,-1.1227,-1.0826,-1.0631,-1.0586,-1.0586,-1.0586,-1.0586,-1.0586,-1.0586,-5.1229,-5.1229,-5.1229,-5.1109,-5.09,-5.0196,-4.9224,-4.7938,-4.692,-4.6369,-4.6279,-4.6279,-4.616,-4.595,-4.4695,-4.4137,-4.3988,-4.3359,-4.308,-4.311,-4.256,-4.2261,-4.2201,-4.0965,-4.0367,-4.0217,-3.9709,-3.9403,-3.9403,-3.9403,-3.9403,-3.9403,-3.9403,-3.9403,-3.9343,-3.8751,-3.8242,-3.7943,-3.6267,-3.54,-3.5459,-3.3724,-3.2677,-3.2318,-3.118,-3.0103,-2.9232,-2.8547,-2.7859,-2.7225,-2.7106,-2.7046,-2.7046,-2.7136,-2.7141,-2.7096,-2.7774,-2.8192,-2.8204,-2.882,-2.9232,-2.9352,-2.9894,-2.9894,-2.9142,-2.9202,-2.9298,-2.9253,-2.8647,-2.7854,-2.709,-2.639,-2.5823,-2.5542,-2.5485,-2.5661,-2.6122,-2.5762,-2.5485,-2.5485,-2.5084,-2.4825,-2.4958,-2.5234,-2.5511,-2.5661,-2.6021,-2.6373,-2.6183,-2.4886,-2.3356,-2.2188,-2.1183,-2.0624,-2.0312,-1.9764,-1.9372,-1.9141,-1.8555,-1.7885,-1.6899,-1.6707,-1.6255,-1.5205,-1.3844,-1.2946,-1.2635,-1.1524,-1.0807,-1.0626,-1.0613,-1.0586,-1.0586,-1.0586,-1.0586,-5.1229,-5.1229,-5.1229,-5.1229,-5.1169,-5.0465,-4.9494,-4.8267,-4.7668,-4.7189,-4.686,-4.686,-4.6651,-4.6219,-4.5274,-4.4436,-4.3708,-4.309,-4.2791,-4.2791,-4.253,-4.2381,-4.2351,-4.1743,-4.1115,-4.0427,-4.0098,-3.9768,-3.9403,-3.9403,-3.9403,-3.9403,-3.9403,-3.9403,-3.9373,-3.911,-3.896,-3.8901,-3.7345,-3.6357,-3.6028,-3.513,-3.4322,-3.3604,-3.2946,-3.2227,-3.121,-3.0881,-3.0402,-2.9744,-2.9714,-2.9714,-2.9714,-3.0043,-3.0103,-2.9774,-3.0342,-3.0731,-3.0731,-3.133,-3.1718,-3.1719,-3.1958,-3.2018,-3.1749,-3.1031,-3.0614,-3.0614,-2.9871,-2.9049,-2.8266,-2.7395,-2.6661,-2.6114,-2.6097,-2.6197,-2.6399,-2.6298,-2.6097,-2.6072,-2.5862,-2.5711,-2.5711,-2.5946,-2.6097,-2.6122,-2.6348,-2.6499,-2.6465,-2.5276,-2.3963,-2.2914,-2.1565,-2.0722,-2.0586,-2.0312,-2.0038,-2.0018,-1.9705,-1.9073,-1.8328,-1.8159,-1.7597,-1.6473,-1.5001,-1.392,-1.348,-1.1983,-1.107,-1.0814,-1.068,-1.0613,-1.0586,-1.0586,-1.0586,-5.1229,-5.1229,-5.1229,-5.1229,-5.1169,-5.0614,-4.9793,-4.8745,-4.8566,-4.8117,-4.7549,-4.7369,-4.701,-4.6501,-4.5843,-4.4975,-4.3947,-4.315,-4.286,-4.283,-4.268,-4.262,-4.262,-4.247,-4.1841,-4.0876,-4.0576,-4.0127,-3.9679,-3.9463,-3.9403,-3.9403,-3.9403,-3.9403,-3.9403,-3.9403,-3.9403,-3.9313,-3.8357,-3.7554,-3.6956,-3.6776,-3.6118,-3.5073,-3.4953,-3.4322,-3.3066,-3.2946,-3.2647,-3.1989,-3.1959,-3.1929,-3.1959,-3.2437,-3.2497,-3.2049,-3.2437,-3.2736,-3.2766,-3.3215,-3.3514,-3.3514,-3.3514,-3.3514,-3.3425,-3.2557,-3.1959,-3.1841,-3.1216,-3.0363,-2.9481,-2.8604,-2.7762,-2.699,-2.6751,-2.67,-2.6675,-2.6575,-2.6499,-2.6499,-2.6499,-2.6449,-2.6499,-2.6499,-2.6474,-2.6449,-2.6499,-2.6499,-2.6396,-2.5616,-2.4636,-2.3526,-2.2,-2.0934,-2.0683,-2.0586,-2.0566,-2.0605,-2.0566,-2.0156,-1.9689,-1.957,-1.9192,-1.7912,-1.6528,-1.532,-1.4229,-1.2755,-1.1631,-1.1154,-1.0841,-1.0693,-1.06,-1.0586,-1.0586,-5.1229,-5.1229,-5.1229,-5.1229,-5.1229,-5.1139,-5.0644,-4.9956,-4.9434,-4.8805,-4.8117,-4.7578,-4.7279,-4.713,-4.6531,-4.607,-4.5831,-4.4706,-4.4137,-4.4018,-4.3469,-4.32,-4.311,-4.2641,-4.2351,-4.2021,-4.1033,-4.0457,-4.0217,-3.9679,-3.9403,-3.9403,-3.9403,-3.9403,-3.9403,-3.9403,-3.9403,-3.9403,-3.932,-3.8901,-3.8212,-3.7614,-3.6985,-3.6327,-3.633,-3.5701,-3.4384,-3.4324,-3.3993,-3.3395,-3.3305,-3.3305,-3.3335,-3.3395,-3.3395,-3.3305,-3.3365,-3.3395,-3.3425,-3.3455,-3.3544,-3.3514,-3.3574,-3.3574,-3.3574,-3.3425,-3.3305,-3.3183,-3.2535,-3.1532,-3.0732,-2.9766,-2.8838,-2.7915,-2.7469,-2.7228,-2.7203,-2.6801,-2.6499,-2.6499,-2.6524,-2.6499,-2.6499,-2.6499,-2.6499,-2.6499,-2.6499,-2.6499,-2.643,-2.5756,-2.4707,-2.3708,-2.2563,-2.1603,-2.0895,-2.0605,-2.0683,-2.0644,-2.0605,-2.0507,-2.037,-2.037,-2.0313,-1.9562,-1.8583,-1.7113,-1.5878,-1.4423,-1.2736,-1.1667,-1.1228,-1.0921,-1.068,-1.0626,-1.0626,-5.1229,-5.1229,-5.1229,-5.1229,-5.1229,-5.1229,-5.084,-5.0196,-4.9972,-4.9254,-4.8327,-4.7997,-4.7668,-4.7279,-4.701,-4.6711,-4.6292,-4.5711,-4.5065,-4.4306,-4.3977,-4.3678,-4.329,-4.306,-4.2761,-4.241,-4.1841,-4.1145,-4.0397,-3.9738,-3.9403,-3.9403,-3.9403,-3.9403,-3.9403,-3.9403,-3.9403,-3.9403,-3.9403,-3.929,-3.896,-3.8332,-3.7704,-3.7105,-3.7045,-3.6626,-3.5789,-3.5701,-3.537,-3.4741,-3.4681,-3.4681,-3.4681,-3.4681,-3.4502,-3.4113,-3.4114,-3.4114,-3.4114,-3.4442,-3.4681,-3.4681,-3.4681,-3.4681,-3.4681,-3.4681,-3.4681,-3.4496,-3.3147,-3.1785,-3.0893,-2.9981,-2.909,-2.8265,-2.7871,-2.777,-2.777,-2.7268,-2.6977,-2.6977,-2.67,-2.6499,-2.6499,-2.6499,-2.6499,-2.6499,-2.6499,-2.6499,-2.6465,-2.6129,-2.524,-2.3963,-2.3599,-2.2824,-2.1183,-2.1106,-2.1106,-2.076,-2.0605,-2.0605,-2.0605,-2.0605,-2.0605,-2.0605,-1.9392,-1.8336,-1.7648,-1.5385,-1.3424,-1.2547,-1.1655,-1.1209,-1.1089,-1.0961,-1.0868,-5.1379,-5.1229,-5.1229,-5.1229,-5.1229,-5.1229,-5.0913,-5.0465,-5.0285,-4.9657,-4.8835,-4.8446,-4.8027,-4.7608,-4.7399,-4.701,-4.6621,-4.6369,-4.5771,-4.4885,-4.4496,-4.4037,-4.3589,-4.3349,-4.309,-4.2671,-4.247,-4.1654,-4.0487,-3.9948,-3.9589,-3.9403,-3.9403,-3.9403,-3.9403,-3.9403,-3.9403,-3.9403,-3.9403,-3.9403,-3.9313,-3.8931,-3.8362,-3.7764,-3.7674,-3.7375,-3.6776,-3.6746,-3.6537,-3.6058,-3.6028,-3.6028,-3.6028,-3.5878,-3.5459,-3.4861,-3.4771,-3.4741,-3.4771,-3.522,-3.5489,-3.5489,-3.5489,-3.5489,-3.5489,-3.5489,-3.5489,-3.5335,-3.3532,-3.196,-3.1363,-3.043,-2.9522,-2.8697,-2.8448,-2.8323,-2.8298,-2.7846,-2.7555,-2.7469,-2.7102,-2.665,-2.6524,-2.6499,-2.6499,-2.6499,-2.6499,-2.6499,-2.6499,-2.643,-2.5756,-2.3963,-2.4541,-2.3963,-2.1433,-2.1336,-2.1489,-2.0972,-2.0605,-2.0605,-2.0605,-2.0605,-2.0605,-2.0489,-1.9581,-1.8837,-1.8274,-1.6295,-1.4517,-1.3771,-1.2663,-1.1545,-1.1356,-1.1223,-1.1142,-5.1798,-5.1259,-5.1229,-5.1229,-5.1229,-5.1229,-5.1199,-5.1003,-5.0465,-5.0136,-4.9912,-4.8865,-4.8297,-4.8147,-4.7608,-4.7279,-4.716,-4.6651,-4.6249,-4.5992,-4.4945,-4.4317,-4.4227,-4.3618,-4.329,-4.314,-4.2701,-4.1811,-4.0546,-4.0367,-4.0038,-3.9469,-3.9403,-3.9403,-3.9403,-3.9403,-3.9403,-3.9403,-3.9403,-3.9403,-3.9373,-3.9343,-3.902,-3.8422,-3.8362,-3.8033,-3.7464,-3.7375,-3.7345,-3.7315,-3.7225,-3.7255,-3.7225,-3.6746,-3.6148,-3.5579,-3.5489,-3.5489,-3.5459,-3.5519,-3.5519,-3.5489,-3.5489,-3.5489,-3.5489,-3.5489,-3.5489,-3.5489,-3.3693,-3.2506,-3.2301,-3.1351,-3.05,-2.9706,-2.9176,-2.8925,-2.8863,-2.8398,-2.8122,-2.7996,-2.7595,-2.7102,-2.66,-2.6499,-2.6524,-2.6499,-2.6499,-2.6499,-2.6499,-2.6499,-2.5616,-2.4541,-2.4743,-2.5063,-2.1642,-2.1642,-2.168,-2.0934,-2.0605,-2.0605,-2.0605,-2.0605,-2.0605,-2.0605,-2.0333,-1.9754,-1.8856,-1.7714,-1.6346,-1.5003,-1.3048,-1.2026,-1.1698,-1.149,-1.141,-5.1439,-5.1229,-5.1229,-5.1229,-5.1229,-5.1229,-5.1229,-5.1199,-5.0943,-5.0584,-5.0166,-4.9687,-4.9075,-4.8267,-4.8027,-4.7698,-4.7309,-4.704,-4.6741,-4.6279,-4.5771,-4.5113,-4.4317,-4.4077,-4.3718,-4.329,-4.309,-4.2521,-4.1692,-4.0816,-4.0277,-4.0008,-3.9619,-3.9403,-3.9403,-3.9403,-3.9403,-3.9403,-3.9403,-3.9403,-3.9403,-3.9403,-3.9254,-3.908,-3.905,-3.8721,-3.8063,-3.8033,-3.7853,-3.7434,-3.7404,-3.7404,-3.7375,-3.7195,-3.6985,-3.6746,-3.6716,-3.6567,-3.6207,-3.6118,-3.5938,-3.5549,-3.5489,-3.5549,-3.5489,-3.5489,-3.5489,-3.5166,-3.3734,-3.2664,-3.2307,-3.123,-3.0177,-2.987,-2.9603,-2.9453,-2.9377,-2.8976,-2.8587,-2.8549,-2.8147,-2.762,-2.7178,-2.7002,-2.6876,-2.6549,-2.6499,-2.6524,-2.6499,-2.6499,-2.584,-2.4397,-2.5028,-2.5134,-2.1203,-2.2038,-2.2542,-2.128,-2.0605,-2.0605,-2.0605,-2.0605,-2.0605,-2.0605,-2.0605,-2.0489,-1.9523,-1.861,-1.7383,-1.5476,-1.3563,-1.2649,-1.2132,-1.1943,-1.1814,-5.1229,-5.1229,-5.1229,-5.1229,-5.1229,-5.1229,-5.1229,-5.1229,-5.1229,-5.0913,-5.0524,-5.0285,-4.9687,-4.8925,-4.8476,-4.8057,-4.7608,-4.7399,-4.707,-4.6651,-4.6369,-4.5843,-4.5035,-4.4526,-4.4067,-4.3618,-4.3379,-4.3,-4.2381,-4.1512,-4.0846,-4.0397,-3.9918,-3.9582,-3.9433,-3.9403,-3.9403,-3.9403,-3.9403,-3.9403,-3.9403,-3.9403,-3.9403,-3.9373,-3.9403,-3.923,-3.8721,-3.8721,-3.8542,-3.8123,-3.8063,-3.7943,-3.7764,-3.7734,-3.7614,-3.7434,-3.7404,-3.7255,-3.6866,-3.6776,-3.6596,-3.6178,-3.6118,-3.6118,-3.6118,-3.6118,-3.6028,-3.5485,-3.4088,-3.2878,-3.229,-3.0921,-2.9818,-2.9779,-2.9779,-2.9779,-2.9754,-2.9453,-2.9113,-2.8863,-2.8599,-2.8147,-2.767,-2.757,-2.7394,-2.7052,-2.7027,-2.6977,-2.6801,-2.6681,-2.6138,-2.4515,-2.5063,-2.4636,-2.2414,-2.2467,-2.2339,-2.1165,-2.0605,-2.0605,-2.0605,-2.0605,-2.0605,-2.0605,-2.0605,-2.0605,-2.0159,-1.9294,-1.7802,-1.5978,-1.4627,-1.3609,-1.3031,-1.244,-1.2209,-5.1229,-5.1229,-5.1229,-5.1229,-5.1229,-5.1229,-5.1229,-5.1229,-5.1229,-5.1169,-5.102,-5.0495,-5.0196,-4.9867,-4.8955,-4.8401,-4.8117,-4.7638,-4.7339,-4.716,-4.6638,-4.6309,-4.604,-4.5035,-4.4407,-4.4197,-4.3589,-4.303,-4.25,-4.2261,-4.1624,-4.0666,-4.0487,-4.0127,-3.9433,-3.9493,-3.9433,-3.9403,-3.9403,-3.9403,-3.9403,-3.9403,-3.9403,-3.9403,-3.9403,-3.9373,-3.9343,-3.9379,-3.929,-3.9254,-3.929,-3.905,-3.8482,-3.8392,-3.8123,-3.7704,-3.7524,-3.7464,-3.7434,-3.7434,-3.7404,-3.7195,-3.7315,-3.7195,-3.7135,-3.7195,-3.7015,-3.6331,-3.4788,-3.3384,-3.2617,-3.1104,-2.9905,-2.9779,-2.9779,-2.9779,-2.9779,-2.9779,-2.9578,-2.9126,-2.8913,-2.8662,-2.8298,-2.8122,-2.8021,-2.7921,-2.7896,-2.7745,-2.7404,-2.7293,-2.6593,-2.5457,-2.5349,-2.498,-2.3813,-2.2691,-2.1811,-2.0972,-2.0722,-2.0605,-2.0605,-2.0605,-2.0605,-2.0605,-2.0605,-2.0605,-2.0508,-1.9696,-1.897,-1.7374,-1.6016,-1.4576,-1.3792,-1.3138,-1.2475,-5.1229,-5.1229,-5.1229,-5.1229,-5.1229,-5.1229,-5.1229,-5.1229,-5.1229,-5.1229,-5.1169,-5.0943,-5.0644,-5.0196,-4.9717,-4.9134,-4.8297,-4.8057,-4.7758,-4.7339,-4.71,-4.6741,-4.6322,-4.5873,-4.5173,-4.4347,-4.3658,-4.32,-4.297,-4.262,-4.2141,-4.1782,-4.1294,-4.0756,-4.0127,-4.0068,-3.9888,-3.9433,-3.9403,-3.9403,-3.9403,-3.9403,-3.9403,-3.9403,-3.9403,-3.9403,-3.9403,-3.9403,-3.9403,-3.9403,-3.9403,-3.9284,-3.914,-3.908,-3.8955,-3.8841,-3.8745,-3.8542,-3.8153,-3.8063,-3.7883,-3.7554,-3.7434,-3.7404,-3.7404,-3.7434,-3.7375,-3.6965,-3.5346,-3.4039,-3.3557,-3.2071,-3.0702,-2.988,-2.9779,-2.9804,-2.9779,-2.9779,-2.9704,-2.9578,-2.9528,-2.9277,-2.8813,-2.8637,-2.8549,-2.8247,-2.8197,-2.8047,-2.7896,-2.7846,-2.7234,-2.5889,-2.5961,-2.5792,-2.4629,-2.3711,-2.2986,-2.1966,-2.1336,-2.0722,-2.0644,-2.0605,-2.0605,-2.0605,-2.0605,-2.0566,-2.0489,-2.0159,-1.9485,-1.8534,-1.7004,-1.5762,-1.4614,-1.3747,-1.2996,-5.1229,-5.1229,-5.1229,-5.1229,-5.1229,-5.1229,-5.1229,-5.1229,-5.1229,-5.1229,-5.1229,-5.1229,-5.0943,-5.0554,-5.0315,-4.9747,-4.8985,-4.8536,-4.8057,-4.7668,-4.7369,-4.707,-4.6651,-4.6411,-4.5562,-4.4466,-4.3898,-4.3529,-4.326,-4.294,-4.265,-4.2351,-4.1991,-4.1452,-4.0786,-4.0516,-4.0157,-3.9798,-3.9523,-3.9403,-3.9403,-3.9403,-3.9403,-3.9403,-3.9403,-3.9403,-3.9403,-3.9403,-3.9403,-3.9403,-3.9403,-3.9403,-3.9403,-3.9373,-3.9403,-3.9403,-3.9343,-3.92,-3.8841,-3.8781,-3.8631,-3.8242,-3.8153,-3.8153,-3.8153,-3.8153,-3.8093,-3.755,-3.5968,-3.4665,-3.418,-3.2594,-3.1155,-3.0482,-3.0231,-3.0005,-2.9854,-2.9779,-2.9779,-2.9754,-2.9754,-2.9578,-2.9377,-2.9227,-2.9126,-2.88,-2.8725,-2.8574,-2.8499,-2.8398,-2.7607,-2.6919,-2.6639,-2.613,-2.5301,-2.4676,-2.4242,-2.3172,-2.2151,-2.1298,-2.076,-2.0644,-2.0605,-2.0605,-2.0605,-2.0605,-2.0547,-2.0547,-2.0082,-1.8951,-1.8008,-1.6894,-1.5708,-1.4276,-1.3377,-5.1229,-5.1229,-5.1229,-5.1229,-5.1229,-5.1229,-5.1229,-5.1229,-5.1229,-5.1229,-5.1229,-5.1229,-5.1199,-5.105,-5.0554,-5.0226,-4.9956,-4.9075,-4.8506,-4.8207,-4.7758,-4.7369,-4.716,-4.6621,-4.5723,-4.4736,-4.4436,-4.4018,-4.3469,-4.3379,-4.306,-4.259,-4.247,-4.2141,-4.1474,-4.0816,-4.0546,-4.0247,-3.9798,-3.9493,-3.9403,-3.9403,-3.9403,-3.9403,-3.9403,-3.9403,-3.9403,-3.9403,-3.9403,-3.9403,-3.9403,-3.9403,-3.9403,-3.9403,-3.9403,-3.9403,-3.9403,-3.9373,-3.9373,-3.9284,-3.929,-3.9194,-3.9164,-3.9373,-3.9194,-3.9104,-3.896,-3.8406,-3.6596,-3.5228,-3.4405,-3.2829,-3.17,-3.1386,-3.0934,-3.0482,-2.998,-2.993,-2.993,-2.988,-2.9829,-2.9779,-2.9704,-2.9704,-2.9704,-2.9679,-2.9603,-2.9377,-2.9088,-2.8925,-2.8674,-2.8164,-2.7533,-2.7103,-2.6457,-2.5793,-2.5323,-2.4466,-2.3327,-2.2285,-2.1126,-2.0838,-2.0605,-2.0605,-2.0605,-2.0605,-2.0605,-2.0605,-2.0605,-2.0024,-1.9008,-1.797,-1.6801,-1.5417,-1.4418,-5.1229,-5.1229,-5.1229,-5.1229,-5.1229,-5.1229,-5.1229,-5.1229,-5.1229,-5.1229,-5.1229,-5.1229,-5.1229,-5.1199,-5.102,-5.0674,-5.0196,-4.9807,-4.9434,-4.9,-4.8327,-4.7758,-4.7249,-4.6651,-4.6142,-4.5651,-4.5214,-4.4706,-4.4107,-4.4018,-4.3688,-4.309,-4.303,-4.2731,-4.2171,-4.1931,-4.1294,-4.0516,-4.0277,-3.9888,-3.9493,-3.9433,-3.9403,-3.9403,-3.9403,-3.9403,-3.9403,-3.9403,-3.9403,-3.9403,-3.9403,-3.9403,-3.9403,-3.9403,-3.9403,-3.9403,-3.9403,-3.9403,-3.9403,-3.9403,-3.9403,-3.9403,-3.9403,-3.9403,-3.9403,-3.9403,-3.9284,-3.8786,-3.7253,-3.5868,-3.5389,-3.3822,-3.2626,-3.2014,-3.1537,-3.116,-3.0909,-3.0633,-3.0407,-3.0382,-3.0055,-2.9905,-2.9829,-2.9829,-2.9829,-2.9804,-2.9779,-2.9754,-2.9503,-2.9428,-2.9227,-2.8925,-2.8463,-2.82,-2.7752,-2.7063,-2.6371,-2.5599,-2.4636,-2.357,-2.2247,-2.1126,-2.0818,-2.0605,-2.0605,-2.0605,-2.0605,-2.0605,-2.0605,-2.0605,-1.9639,-1.8459,-1.7914,-1.6856,-1.6053,-5.1229,-5.1229,-5.1229,-5.1229,-5.1229,-5.1229,-5.1229,-5.1229,-5.1229,-5.1229,-5.1229,-5.1229,-5.1229,-5.1229,-5.1199,-5.0973,-5.0614,-5.0315,-4.9986,-4.9583,-4.8686,-4.7938,-4.7339,-4.686,-4.6591,-4.6249,-4.5933,-4.5364,-4.4766,-4.4466,-4.4107,-4.3748,-4.3439,-4.311,-4.2791,-4.247,-4.2081,-4.1324,-4.0995,-4.0606,-4.0277,-3.9948,-3.9828,-3.9768,-3.9553,-3.9403,-3.9403,-3.9403,-3.9403,-3.9403,-3.9403,-3.9403,-3.9403,-3.9403,-3.9403,-3.9403,-3.9403,-3.9403,-3.9403,-3.9403,-3.9403,-3.9403,-3.9403,-3.9403,-3.9301,-3.9083,-3.876,-3.8479,-3.6749,-3.5802,-3.5319,-3.4079,-3.3089,-3.2616,-3.229,-3.1913,-3.1486,-3.111,-3.0959,-3.0859,-3.0658,-3.0357,-3.0181,-3.0156,-3.003,-2.988,-2.9779,-2.9779,-2.9729,-2.9779,-2.9704,-2.9377,-2.9176,-2.8888,-2.8587,-2.7977,-2.7431,-2.67,-2.5935,-2.4898,-2.3238,-2.1783,-2.1205,-2.0916,-2.0741,-2.0605,-2.0605,-2.0605,-2.0605,-2.0333,-1.9639,-1.9122,-1.8515,-1.8233,-1.7468,-5.1229,-5.1229,-5.1229,-5.1229,-5.1229,-5.1229,-5.1229,-5.1229,-5.1229,-5.1229,-5.1229,-5.1229,-5.1229,-5.1229,-5.1229,-5.1199,-5.1139,-5.0584,-5.0285,-4.9837,-4.9134,-4.8297,-4.7578,-4.7279,-4.695,-4.6561,-4.6399,-4.6022,-4.5454,-4.4855,-4.4526,-4.4317,-4.3768,-4.3469,-4.3329,-4.2851,-4.25,-4.2201,-4.1752,-4.1354,-4.1115,-4.0726,-4.0457,-4.0187,-3.9679,-3.9403,-3.9403,-3.9403,-3.9403,-3.9403,-3.9403,-3.9403,-3.9403,-3.9403,-3.9403,-3.9403,-3.9403,-3.9403,-3.9403,-3.9403,-3.9403,-3.9403,-3.9403,-3.9403,-3.9228,-3.8583,-3.7994,-3.7994,-3.5949,-3.4938,-3.4387,-3.3598,-3.3172,-3.2968,-3.3036,-3.2583,-3.1905,-3.1512,-3.1461,-3.1436,-3.1436,-3.1135,-3.0884,-3.0658,-3.0532,-3.0407,-3.0231,-3.008,-2.998,-2.988,-2.9829,-2.9704,-2.9578,-2.9528,-2.9227,-2.8863,-2.8374,-2.7815,-2.714,-2.6039,-2.4176,-2.2815,-2.1904,-2.1343,-2.1092,-2.0819,-2.0605,-2.0605,-2.0605,-2.0547,-2.0101,-1.9639,-1.918,-1.9122,-1.8667,-5.1229,-5.1229,-5.1229,-5.1229,-5.1229,-5.1229,-5.1229,-5.1229,-5.1229,-5.1229,-5.1229,-5.1229,-5.1229,-5.1229,-5.1229,-5.1229,-5.1229,-5.099,-5.0704,-5.0166,-4.9986,-4.9134,-4.8207,-4.7638,-4.7249,-4.707,-4.707,-4.6711,-4.6172,-4.5843,-4.5562,-4.5035,-4.4466,-4.4107,-4.3988,-4.3449,-4.2851,-4.247,-4.2231,-4.1923,-4.1534,-4.1294,-4.0935,-4.0487,-3.9828,-3.9433,-3.9403,-3.9403,-3.9403,-3.9403,-3.9403,-3.9403,-3.9403,-3.9403,-3.9403,-3.9403,-3.9403,-3.9403,-3.9403,-3.9403,-3.9403,-3.9403,-3.9403,-3.9403,-3.9337,-3.8389,-3.7843,-3.7434,-3.5949,-3.4476,-3.3692,-3.3283,-3.3111,-3.3136,-3.3111,-3.3036,-3.2692,-3.229,-3.2064,-3.1964,-3.1712,-3.1361,-3.126,-3.1235,-3.111,-3.0984,-3.0758,-3.0482,-3.0281,-3.0105,-3.0005,-2.9955,-2.9754,-2.9679,-2.9553,-2.9277,-2.895,-2.8674,-2.8164,-2.7704,-2.5797,-2.3837,-2.2942,-2.2074,-2.1327,-2.1073,-2.0781,-2.0605,-2.0605,-2.0605,-2.0605,-2.0217,-1.9927,-1.9966,-1.985,-5.1229,-5.1229,-5.1229,-5.1229,-5.1229,-5.1229,-5.1229,-5.1229,-5.1229,-5.1229,-5.1229,-5.1229,-5.1229,-5.1229,-5.1229,-5.1229,-5.1229,-5.1229,-5.1003,-5.0614,-5.0345,-4.9807,-4.9164,-4.8237,-4.7638,-4.7399,-4.7309,-4.707,-4.68,-4.6471,-4.604,-4.5753,-4.5095,-4.4586,-4.4347,-4.3958,-4.3449,-4.297,-4.2821,-4.2611,-4.2342,-4.1991,-4.1534,-4.0876,-4.0247,-3.9888,-3.9852,-3.9559,-3.9433,-3.9403,-3.9403,-3.9403,-3.9403,-3.9403,-3.9403,-3.9403,-3.9403,-3.9403,-3.9403,-3.9403,-3.9403,-3.9403,-3.9403,-3.9403,-3.9099,-3.8225,-3.7353,-3.6816,-3.5694,-3.4356,-3.3557,-3.3212,-3.3162,-3.3136,-3.3136,-3.3136,-3.3061,-3.2792,-3.2616,-3.2566,-3.239,-3.2089,-3.1913,-3.1813,-3.1562,-3.1361,-3.121,-3.0959,-3.0834,-3.0633,-3.0357,-3.0206,-2.993,-2.9779,-2.9729,-2.9578,-2.9402,-2.9252,-2.9126,-2.886,-2.8041,-2.5993,-2.4006,-2.3097,-2.2158,-2.1347,-2.1034,-2.0819,-2.0683,-2.0644,-2.0644,-2.0625,-2.0566,-2.0353,-2.0294,-5.1229,-5.1229,-5.1229,-5.1229,-5.1229,-5.1229,-5.1229,-5.1229,-5.1229,-5.1229,-5.1229,-5.1229,-5.1229,-5.1229,-5.1229,-5.1229,-5.1229,-5.1229,-5.1139,-5.105,-5.0644,-5.0285,-4.9777,-4.8955,-4.8117,-4.7519,-4.7339,-4.7279,-4.71,-4.6758,-4.6561,-4.6352,-4.5783,-4.5304,-4.4796,-4.4306,-4.4018,-4.3539,-4.3299,-4.317,-4.311,-4.2731,-4.2192,-4.1534,-4.0905,-4.0576,-4.0427,-4.0038,-3.9619,-3.9559,-3.9469,-3.9403,-3.9403,-3.9403,-3.9403,-3.9403,-3.9403,-3.9403,-3.9403,-3.9403,-3.9403,-3.9403,-3.9403,-3.9463,-3.9247,-3.8198,-3.7235,-3.6429,-3.5594,-3.4558,-3.4048,-3.3746,-3.347,-3.337,-3.3319,-3.3194,-3.3169,-3.3187,-3.3061,-3.3036,-3.2842,-3.2616,-3.2466,-3.234,-3.2039,-3.1763,-3.1612,-3.1486,-3.1361,-3.1135,-3.0859,-3.0583,-3.0331,-2.993,-2.9804,-2.9804,-2.9628,-2.9628,-2.9654,-2.959,-2.9513,-2.8179,-2.6083,-2.405,-2.2979,-2.2103,-2.1431,-2.1233,-2.1036,-2.082,-2.0762,-2.0879,-2.0801,-2.0703,-2.0742,-5.1229,-5.1229,-5.1229,-5.1229,-5.1229,-5.1229,-5.1229,-5.1229,-5.1229,-5.1229,-5.1229,-5.1229,-5.1229,-5.1229,-5.1229,-5.1229,-5.1229,-5.1229,-5.1229,-5.1229,-5.099,-5.078,-5.0166,-4.9523,-4.8775,-4.8117,-4.7668,-4.7399,-4.7309,-4.7189,-4.704,-4.695,-4.6471,-4.598,-4.5562,-4.4934,-4.4377,-4.3988,-4.3618,-4.3409,-4.326,-4.311,-4.2821,-4.2162,-4.1564,-4.1265,-4.1085,-4.0636,-4.0247,-4.0187,-3.9709,-3.9463,-3.9433,-3.9433,-3.9403,-3.9403,-3.9403,-3.9403,-3.9403,-3.9403,-3.9403,-3.9403,-3.9301,-3.9629,-3.9453,-3.8346,-3.7277,-3.6926,-3.5818,-3.463,-3.4555,-3.4374,-3.4379,-3.4279,-3.4022,-3.3771,-3.3696,-3.3495,-3.3262,-3.3262,-3.3187,-3.3086,-3.2867,-3.2742,-3.2591,-3.2365,-3.2215,-3.2114,-3.2039,-3.1712,-3.1336,-3.106,-3.0809,-3.0331,-2.988,-2.9905,-2.9854,-2.9854,-2.9854,-2.9804,-2.974,-2.9677,-2.8213,-2.5932,-2.3847,-2.2554,-2.2049,-2.1726,-2.1525,-2.1407,-2.1309,-2.119,-2.1191,-2.1192,-2.1192,-5.1229,-5.1229,-5.1229,-5.1229,-5.1229,-5.1229,-5.1229,-5.1229,-5.1229,-5.1229,-5.1229,-5.1229,-5.1229,-5.1229,-5.1229,-5.1229,-5.1229,-5.1229,-5.1229,-5.1229,-5.1199,-5.1109,-5.0614,-5.0062,-4.9673,-4.9075,-4.8356,-4.7608,-4.7339,-4.7309,-4.7309,-4.7249,-4.695,-4.6681,-4.6249,-4.5681,-4.4945,-4.4426,-4.3977,-4.3618,-4.3349,-4.3319,-4.309,-4.2791,-4.2252,-4.1961,-4.1811,-4.1265,-4.0935,-4.0786,-4.0307,-4.0008,-3.9858,-3.9612,-3.9403,-3.9403,-3.9403,-3.9403,-3.9403,-3.9403,-3.9403,-3.9301,-3.8943,-3.8906,-3.8871,-3.7929,-3.7026,-3.6717,-3.5945,-3.4806,-3.5056,-3.4881,-3.4705,-3.463,-3.4474,-3.4374,-3.4274,-3.4048,-3.3796,-3.3495,-3.3269,-3.3212,-3.3111,-3.3061,-3.3111,-3.2968,-3.2792,-3.2692,-3.2591,-3.2265,-3.1813,-3.1562,-3.1311,-3.0934,-3.0482,-3.0407,-3.0306,-3.0231,-3.0206,-3.0131,-2.9838,-2.9696,-2.891,-2.7308,-2.5381,-2.3698,-2.2696,-2.2413,-2.2186,-2.1955,-2.1799,-2.1641,-2.166,-2.1721,-2.1641,-5.1229,-5.1229,-5.1229,-5.1229,-5.1229,-5.1229,-5.1229,-5.1229,-5.1229,-5.1229,-5.1229,-5.1229,-5.1229,-5.1229,-5.1229,-5.1229,-5.1229,-5.1229,-5.1229,-5.1229,-5.1229,-5.1199,-5.102,-5.0584,-5.0076,-4.9807,-4.9045,-4.8147,-4.7638,-4.7369,-4.7309,-4.7279,-4.7309,-4.71,-4.6591,-4.6292,-4.5544,-4.5065,-4.4526,-4.4127,-4.3648,-4.3349,-4.329,-4.329,-4.2821,-4.259,-4.253,-4.1923,-4.1624,-4.1452,-4.0995,-4.0606,-4.0516,-4.0098,-3.9768,-3.9619,-3.9463,-3.9403,-3.9403,-3.9403,-3.9403,-3.9373,-3.8368,-3.8361,-3.8484,-3.7923,-3.6731,-3.6307,-3.573,-3.5278,-3.5604,-3.5307,-3.5152,-3.5077,-3.5027,-3.4831,-3.4781,-3.465,-3.4374,-3.3997,-3.3545,-3.3338,-3.3262,-3.3136,-3.3136,-3.3136,-3.2918,-3.2943,-3.2842,-3.2692,-3.234,-3.2064,-3.1813,-3.1537,-3.1235,-3.1085,-3.0934,-3.0783,-3.0733,-3.0683,-3.0144,-2.9633,-2.8906,-2.8491,-2.7242,-2.5628,-2.4411,-2.335,-2.3246,-2.3016,-2.2421,-2.2151,-2.2266,-2.2109,-2.1914,-5.1229,-5.1229,-5.1229,-5.1229,-5.1229,-5.1229,-5.1229,-5.1229,-5.1229,-5.1229,-5.1229,-5.1229,-5.1229,-5.1229,-5.1229,-5.1229,-5.1229,-5.1229,-5.1229,-5.1229,-5.1229,-5.1229,-5.1139,-5.0495,-5.0345,-5.0196,-4.9553,-4.888,-4.8267,-4.7698,-4.7309,-4.7339,-4.7309,-4.7219,-4.704,-4.6681,-4.6219,-4.5963,-4.5454,-4.4825,-4.4197,-4.3589,-4.3409,-4.326,-4.317,-4.312,-4.303,-4.2551,-4.2291,-4.2201,-4.1662,-4.1294,-4.1235,-4.1205,-4.0816,-4.0307,-3.9828,-3.9403,-3.9403,-3.9403,-3.9403,-3.9192,-3.8352,-3.8515,-3.8346,-3.8109,-3.7163,-3.6445,-3.6179,-3.6056,-3.6179,-3.6204,-3.6179,-3.5931,-3.5655,-3.5504,-3.5382,-3.5303,-3.5002,-3.4675,-3.4248,-3.3696,-3.3438,-3.3262,-3.3136,-3.3136,-3.3136,-3.3136,-3.3086,-3.2893,-3.2767,-3.2466,-3.234,-3.2089,-3.1964,-3.1813,-3.1587,-3.1361,-3.1286,-3.1235,-3.0723,-3.0263,-3.0333,-2.9696,-2.8555,-2.7653,-2.6598,-2.5656,-2.4829,-2.42,-2.3784,-2.3315,-2.2949,-2.2656,-2.2476,-5.1229,-5.1229,-5.1229,-5.1229,-5.1229,-5.1229,-5.1229,-5.1229,-5.1229,-5.1229,-5.1229,-5.1229,-5.1229,-5.1229,-5.1229,-5.1229,-5.1229,-5.1229,-5.1229,-5.1229,-5.1229,-5.1229,-5.1169,-5.096,-5.0764,-5.0524,-5.0182,-4.9763,-4.9134,-4.8356,-4.7728,-4.7369,-4.7339,-4.7309,-4.7369,-4.704,-4.6681,-4.6232,-4.5633,-4.4975,-4.4407,-4.4007,-4.3678,-4.3319,-4.3319,-4.3319,-4.323,-4.311,-4.291,-4.2791,-4.2282,-4.1991,-4.1871,-4.1632,-4.1205,-4.1025,-4.0726,-4.0217,-3.9553,-3.9433,-3.9433,-3.9055,-3.8217,-3.7398,-3.7402,-3.7265,-3.7057,-3.6499,-3.6405,-3.6405,-3.6405,-3.6405,-3.6405,-3.6304,-3.6107,-3.6056,-3.5931,-3.5855,-3.5655,-3.5303,-3.4926,-3.4424,-3.3872,-3.3495,-3.3319,-3.3237,-3.3212,-3.3187,-3.3162,-3.3061,-3.2918,-3.2817,-3.2742,-3.2667,-3.2616,-3.2558,-3.224,-3.2014,-3.1863,-3.1738,-3.1386,-3.112,-3.1085,-3.0909,-3.0029,-2.9246,-2.8624,-2.73,-2.5834,-2.5458,-2.5228,-2.4597,-2.4018,-2.3849,-2.3588,-5.1229,-5.1229,-5.1229,-5.1229,-5.1229,-5.1229,-5.1229,-5.1229,-5.1229,-5.1229,-5.1229,-5.1229,-5.1229,-5.1229,-5.1229,-5.1229,-5.1229,-5.1229,-5.1229,-5.1229,-5.1229,-5.1229,-5.1199,-5.1169,-5.1169,-5.1229,-5.072,-5.0285,-4.9867,-4.9314,-4.8536,-4.7818,-4.7728,-4.7638,-4.7519,-4.7339,-4.701,-4.6621,-4.5992,-4.5424,-4.4934,-4.4676,-4.4157,-4.3768,-4.3529,-4.3439,-4.3319,-4.329,-4.326,-4.314,-4.288,-4.2611,-4.2551,-4.2282,-4.1893,-4.1713,-4.1572,-4.1085,-4.0427,-4.0031,-3.9682,-3.8902,-3.7868,-3.6599,-3.5941,-3.6031,-3.6405,-3.6405,-3.6405,-3.6405,-3.6405,-3.6405,-3.6405,-3.6405,-3.638,-3.6405,-3.638,-3.6229,-3.6103,-3.5805,-3.5479,-3.5182,-3.4605,-3.3997,-3.3621,-3.337,-3.3312,-3.3287,-3.3212,-3.3187,-3.3086,-3.2968,-3.2943,-3.296,-3.296,-3.2935,-3.2692,-3.2591,-3.2441,-3.2315,-3.2039,-3.1763,-3.1612,-3.1386,-3.1135,-3.0667,-2.9927,-2.8356,-2.6871,-2.6621,-2.6289,-2.5628,-2.5126,-2.4914,-2.4339,-5.1229,-5.1229,-5.1229,-5.1229,-5.1229,-5.1229,-5.1229,-5.1229,-5.1229,-5.1229,-5.1229,-5.1229,-5.1229,-5.1229,-5.1229,-5.1229,-5.1229,-5.1229,-5.1229,-5.1229,-5.1229,-5.1229,-5.1229,-5.1229,-5.1229,-5.1229,-5.102,-5.072,-5.0345,-5.0166,-4.9643,-4.9164,-4.8536,-4.8297,-4.7967,-4.7549,-4.7309,-4.698,-4.6531,-4.6202,-4.5801,-4.5484,-4.4915,-4.4407,-4.4197,-4.3988,-4.3379,-4.3319,-4.329,-4.329,-4.317,-4.312,-4.306,-4.2931,-4.2671,-4.2402,-4.2321,-4.1855,-4.1194,-4.0626,-4.0182,-3.8925,-3.7511,-3.6323,-3.5789,-3.6081,-3.6355,-3.6405,-3.6405,-3.6405,-3.6405,-3.6405,-3.6405,-3.6405,-3.6405,-3.6405,-3.6405,-3.6405,-3.6279,-3.6229,-3.5981,-3.5705,-3.5508,-3.4901,-3.4248,-3.3972,-3.3796,-3.3771,-3.337,-3.3269,-3.3144,-3.3068,-3.3111,-3.3086,-3.3086,-3.3011,-3.2893,-3.2867,-3.2792,-3.2842,-3.286,-3.2541,-3.2164,-3.1989,-3.1738,-3.1512,-3.1129,-2.9691,-2.8502,-2.7904,-2.7383,-2.6985,-2.5821,-2.4914,-2.4296,-5.1229,-5.1229,-5.1229,-5.1229,-5.1229,-5.1229,-5.1229,-5.1229,-5.1229,-5.1229,-5.1229,-5.1229,-5.1229,-5.1229,-5.1229,-5.1229,-5.1229,-5.1229,-5.1229,-5.1229,-5.1229,-5.1229,-5.1229,-5.1229,-5.1229,-5.1229,-5.1199,-5.1169,-5.09,-5.0734,-5.075,-5.0242,-4.9404,-4.873,-4.8237,-4.7758,-4.7429,-4.7279,-4.704,-4.677,-4.6292,-4.6112,-4.5603,-4.4975,-4.4407,-4.4227,-4.3888,-4.3469,-4.3349,-4.328,-4.324,-4.313,-4.309,-4.309,-4.2981,-4.2713,-4.2684,-4.2228,-4.1339,-4.0702,-3.9505,-3.8156,-3.7147,-3.656,-3.5999,-3.6304,-3.6405,-3.6405,-3.6405,-3.6405,-3.6405,-3.6405,-3.6405,-3.6405,-3.6405,-3.6405,-3.6405,-3.6405,-3.6405,-3.6329,-3.6279,-3.6107,-3.6006,-3.5881,-3.5203,-3.46,-3.4449,-3.4248,-3.3847,-3.3545,-3.3495,-3.3395,-3.3395,-3.3262,-3.3262,-3.3212,-3.3136,-3.3136,-3.3136,-3.3136,-3.3136,-3.3086,-3.2759,-3.2541,-3.2315,-3.2064,-3.158,-3.0835,-3.0138,-2.9569,-2.9101,-2.869,-2.7181,-2.5401,-2.4827,-5.1229,-5.1229,-5.1229,-5.1229,-5.1229,-5.1229,-5.1229,-5.1229,-5.1229,-5.1229,-5.1229,-5.1229,-5.1229,-5.1229,-5.1229,-5.1229,-5.1229,-5.1229,-5.1229,-5.1229,-5.1229,-5.1229,-5.1229,-5.1229,-5.1229,-5.1229,-5.1229,-5.1199,-5.1169,-5.1199,-5.1139,-5.084,-5.0331,-4.9613,-4.8895,-4.8027,-4.7608,-4.7578,-4.7339,-4.713,-4.6651,-4.6591,-4.6249,-4.5693,-4.5214,-4.4855,-4.4363,-4.3723,-4.3083,-4.2813,-4.2532,-4.2222,-4.2222,-4.2304,-4.2304,-4.2304,-4.2222,-4.1906,-4.1009,-3.969,-3.853,-3.7714,-3.6791,-3.6519,-3.6463,-3.6405,-3.6405,-3.6405,-3.6405,-3.6405,-3.6405,-3.6405,-3.6405,-3.6405,-3.6405,-3.6405,-3.6405,-3.6405,-3.6405,-3.638,-3.638,-3.6355,-3.6304,-3.6179,-3.573,-3.5077,-3.47,-3.4525,-3.4324,-3.4098,-3.4022,-3.3922,-3.3822,-3.3596,-3.3395,-3.3445,-3.3445,-3.3136,-3.3136,-3.3136,-3.3136,-3.3162,-3.3162,-3.2867,-3.2667,-3.2516,-3.2206,-3.1805,-3.1564,-3.1279,-3.0523,-2.9544,-2.8799,-2.7158,-2.6431,-5.1229,-5.1229,-5.1229,-5.1229,-5.1229,-5.1229,-5.1229,-5.1229,-5.1229,-5.1229,-5.1229,-5.1229,-5.1229,-5.1229,-5.1229,-5.1229,-5.1229,-5.1229,-5.1229,-5.1229,-5.1229,-5.1229,-5.1229,-5.1229,-5.1229,-5.1229,-5.1229,-5.1229,-5.1182,-5.0917,-5.0964,-5.087,-5.0307,-5.0216,-4.997,-4.8776,-4.8252,-4.8147,-4.7565,-4.6991,-4.7116,-4.7,-4.644,-4.6369,-4.5769,-4.5298,-4.4714,-4.328,-4.2622,-4.2408,-4.1284,-4.0815,-4.0701,-4.0546,-4.0475,-4.0361,-4.0275,-4.0102,-3.983,-3.828,-3.7643,-3.7527,-3.6642,-3.6138,-3.6326,-3.6405,-3.6405,-3.6405,-3.6405,-3.6405,-3.6405,-3.6405,-3.6405,-3.6405,-3.6405,-3.6405,-3.6405,-3.6405,-3.6405,-3.6405,-3.6405,-3.6405,-3.6405,-3.6329,-3.6031,-3.5579,-3.5052,-3.4801,-3.4705,-3.4605,-3.4575,-3.4324,-3.4198,-3.4098,-3.3922,-3.3897,-3.3771,-3.3345,-3.3287,-3.3445,-3.3395,-3.3345,-3.3294,-3.3169,-3.2968,-3.2792,-3.2893,-3.2968,-3.2533,-3.1947,-3.0883,-3.0007,-2.9479,-2.8854,-2.7946,-5.1229,-5.1229,-5.1229,-5.1229,-5.1229,-5.1229,-5.1229,-5.1229,-5.1229,-5.1229,-5.1229,-5.1229,-5.1229,-5.1229,-5.1229,-5.1229,-5.1229,-5.1229,-5.1229,-5.1229,-5.1229,-5.1229,-5.1229,-5.1229,-5.1229,-5.1229,-5.1229,-5.1229,-5.1152,-5.0508,-4.9999,-4.9776,-4.9153,-4.9204,-4.9069,-4.808,-4.6659,-4.7598,-4.6703,-4.5803,-4.6947,-4.655,-4.6226,-4.6675,-4.5683,-4.4982,-4.4603,-4.289,-4.2004,-4.1803,-4.0618,-4.0199,-4.009,-3.9953,-3.9766,-3.9826,-3.9798,-3.9448,-3.8738,-3.7515,-3.6852,-3.6722,-3.6582,-3.6132,-3.6405,-3.6405,-3.6405,-3.6405,-3.6405,-3.6405,-3.6405,-3.6405,-3.6405,-3.6405,-3.6405,-3.6405,-3.6405,-3.6405,-3.6405,-3.6405,-3.6405,-3.6405,-3.6405,-3.6405,-3.6182,-3.6132,-3.568,-3.5429,-3.5328,-3.5182,-3.5082,-3.4731,-3.453,-3.4505,-3.4455,-3.4474,-3.4374,-3.4073,-3.4073,-3.4274,-3.4123,-3.3771,-3.3696,-3.3671,-3.337,-3.3136,-3.3136,-3.3111,-3.2986,-3.2421,-3.1575,-3.1038,-3.0741,-2.9983,-2.8905,-5.1229,-5.1229,-5.1229,-5.1229,-5.1229,-5.1229,-5.1229,-5.1229,-5.1229,-5.1229,-5.1229,-5.1229,-5.1229,-5.1229,-5.1229,-5.1229,-5.1229,-5.1229,-5.1229,-5.1229,-5.1229,-5.1229,-5.1229,-5.1229,-5.1229,-5.1229,-5.1229,-5.1229,-5.1105,-4.9824,-4.9014,-4.8289,-4.7146,-4.7612,-4.7729,-4.6974,-4.6154,-4.6671,-4.5664,-4.4987,-4.5562,-4.5424,-4.5115,-4.5245,-4.4817,-4.4078,-4.3589,-4.2537,-4.1245,-4.1036,-4.048,-3.9811,-3.9524,-3.9256,-3.8908,-3.8756,-3.8585,-3.8225,-3.7448,-3.701,-3.6543,-3.6474,-3.6405,-3.6405,-3.6405,-3.6405,-3.6405,-3.6405,-3.6405,-3.6405,-3.6405,-3.6405,-3.6405,-3.6405,-3.6405,-3.6405,-3.6405,-3.6405,-3.6405,-3.6405,-3.6405,-3.6405,-3.6405,-3.6405,-3.6355,-3.638,-3.6355,-3.6081,-3.5855,-3.5755,-3.5655,-3.5378,-3.5177,-3.5203,-3.5127,-3.4981,-3.4856,-3.4705,-3.4756,-3.4876,-3.4625,-3.4274,-3.4223,-3.4123,-3.3796,-3.347,-3.3212,-3.3086,-3.3111,-3.2993,-3.2589,-3.2239,-3.2014,-3.1238,-3.0252,-5.1229,-5.1229,-5.1229,-5.1229,-5.1229,-5.1229,-5.1229,-5.1229,-5.1229,-5.1229,-5.1229,-5.1229,-5.1229,-5.1229,-5.1229,-5.1229,-5.1229,-5.1229,-5.1229,-5.1229,-5.1229,-5.1229,-5.1229,-5.1229,-5.1229,-5.1229,-5.1229,-5.1182,-5.1011,-4.9406,-4.8189,-4.6837,-4.5502,-4.587,-4.607,-4.6004,-4.5774,-4.5863,-4.4869,-4.437,-4.4634,-4.4006,-4.3879,-4.3929,-4.3582,-4.3291,-4.2699,-4.1737,-4.0945,-4.02,-3.9254,-3.8254,-3.7608,-3.726,-3.6908,-3.6701,-3.6716,-3.6687,-3.664,-3.6452,-3.6405,-3.6405,-3.6405,-3.6405,-3.6405,-3.6405,-3.6405,-3.6405,-3.6405,-3.6405,-3.6405,-3.6405,-3.6405,-3.6405,-3.6405,-3.6405,-3.6405,-3.6405,-3.6405,-3.6405,-3.6405,-3.6405,-3.6405,-3.6405,-3.6405,-3.6405,-3.6405,-3.638,-3.6157,-3.6182,-3.6107,-3.6107,-3.5956,-3.5931,-3.5805,-3.5579,-3.5504,-3.5353,-3.5203,-3.5177,-3.4951,-3.4826,-3.4731,-3.46,-3.4223,-3.3922,-3.3746,-3.352,-3.3345,-3.3244,-3.3294,-3.2943,-3.2591,-3.2667,-3.1976,-5.1229,-5.1229,-5.1229,-5.1229,-5.1229,-5.1229,-5.1229,-5.1229,-5.1229,-5.1229,-5.1229,-5.1229,-5.1229,-5.1229,-5.1229,-5.1229,-5.1229,-5.1229,-5.1229,-5.1229,-5.1229,-5.1229,-5.1229,-5.1229,-5.1229,-5.1229,-5.1229,-5.1105,-5.0555,-4.9063,-4.637,-4.4318,-4.4071,-4.418,-4.4157,-4.4054,-4.4917,-4.509,-4.3859,-4.3688,-4.3629,-4.3175,-4.3047,-4.2997,-4.2425,-4.223,-4.1732,-4.0863,-4.0208,-3.9804,-3.9146,-3.8492,-3.8442,-3.799,-3.7586,-3.7033,-3.6754,-3.6405,-3.6405,-3.643,-3.6455,-3.648,-3.643,-3.6405,-3.6405,-3.6405,-3.6405,-3.6405,-3.6405,-3.6405,-3.6405,-3.6405,-3.6405,-3.6405,-3.6405,-3.6405,-3.6405,-3.6405,-3.6405,-3.6405,-3.6405,-3.6405,-3.6405,-3.6405,-3.6405,-3.6405,-3.643,-3.6455,-3.643,-3.6455,-3.6405,-3.6405,-3.638,-3.6254,-3.6279,-3.6056,-3.6031,-3.5956,-3.5755,-3.5655,-3.568,-3.5554,-3.5332,-3.5056,-3.4726,-3.4525,-3.4399,-3.4173,-3.3897,-3.3997,-3.3997,-3.3571,-3.3244,-3.3194,-3.2921,-5.1229,-5.1229,-5.1229,-5.1229,-5.1229,-5.1229,-5.1229,-5.1229,-5.1229,-5.1229,-5.1229,-5.1229,-5.1229,-5.1229,-5.1229,-5.1229,-5.1229,-5.1229,-5.1229,-5.1229,-5.1229,-5.1229,-5.1229,-5.1229,-5.1229,-5.1229,-5.1058,-5.084,-4.9921,-4.7707,-4.5048,-4.3381,-4.2986,-4.2986,-4.3129,-4.333,-4.3727,-4.3797,-4.346,-4.302,-4.2736,-4.2395,-4.22,-4.206,-4.1302,-4.1021,-4.0844,-3.9929,-3.98,-3.9697,-3.9295,-3.9069,-3.8843,-3.8316,-3.7939,-3.7462,-3.7312,-3.7136,-3.7111,-3.6835,-3.6734,-3.6681,-3.6556,-3.643,-3.6405,-3.6405,-3.6405,-3.6405,-3.6405,-3.6405,-3.6405,-3.6405,-3.6405,-3.6405,-3.6405,-3.6405,-3.6405,-3.6405,-3.6405,-3.6405,-3.6405,-3.6405,-3.6405,-3.6405,-3.6405,-3.6405,-3.6505,-3.6606,-3.6581,-3.6556,-3.648,-3.6405,-3.6405,-3.638,-3.6405,-3.6405,-3.6329,-3.6254,-3.6229,-3.6179,-3.6329,-3.6132,-3.5805,-3.5529,-3.5207,-3.5006,-3.4851,-3.4655,-3.4525,-3.4625,-3.46,-3.4248,-3.3771,-3.3345,-3.2916,-5.1229,-5.1229,-5.1229,-5.1229,-5.1229,-5.1229,-5.1229,-5.1229,-5.1229,-5.1229,-5.1229,-5.1229,-5.1229,-5.1229,-5.1229,-5.1229,-5.1229,-5.1229,-5.1229,-5.1229,-5.1229,-5.1229,-5.1229,-5.1229,-5.1229,-5.1229,-5.0964,-5.043,-4.8638,-4.6578,-4.4643,-4.3098,-4.2986,-4.2986,-4.2986,-4.2986,-4.3275,-4.3229,-4.2924,-4.2515,-4.2103,-4.1414,-4.0576,-4.0557,-4.023,-3.9876,-3.9825,-3.9697,-3.9697,-3.9697,-3.9622,-3.9371,-3.8994,-3.8492,-3.8191,-3.799,-3.7864,-3.7764,-3.7638,-3.7412,-3.7287,-3.7086,-3.6784,-3.6807,-3.6857,-3.6505,-3.643,-3.6405,-3.6405,-3.6405,-3.6405,-3.6405,-3.6405,-3.6405,-3.6405,-3.6405,-3.6405,-3.6405,-3.6405,-3.6405,-3.6405,-3.6405,-3.6405,-3.6405,-3.6405,-3.6405,-3.6606,-3.6807,-3.6835,-3.6832,-3.6757,-3.6631,-3.6455,-3.6455,-3.6405,-3.6405,-3.6405,-3.6405,-3.643,-3.6405,-3.638,-3.6304,-3.6182,-3.5931,-3.5705,-3.5429,-3.5228,-3.5203,-3.5203,-3.5127,-3.5052,-3.4876,-3.4424,-3.3922,-3.3539,-5.1229,-5.1229,-5.1229,-5.1229,-5.1229,-5.1229,-5.1229,-5.1229,-5.1229,-5.1229,-5.1229,-5.1229,-5.1229,-5.1229,-5.1229,-5.1229,-5.1229,-5.1229,-5.1229,-5.1229,-5.1229,-5.1229,-5.1229,-5.1229,-5.1182,-5.1229,-5.087,-4.9601,-4.7605,-4.5767,-4.4318,-4.3129,-4.2986,-4.2986,-4.2986,-4.2986,-4.2986,-4.2961,-4.2836,-4.2564,-4.2213,-4.1961,-4.148,-4.0877,-4.0325,-4.0049,-3.9898,-3.9697,-3.9697,-3.9697,-3.9697,-3.9597,-3.9471,-3.8969,-3.8718,-3.8592,-3.8341,-3.8216,-3.8115,-3.799,-3.7839,-3.7789,-3.7638,-3.7638,-3.7387,-3.6782,-3.6455,-3.6455,-3.6455,-3.6455,-3.6405,-3.6405,-3.6405,-3.6405,-3.6405,-3.6405,-3.6405,-3.6405,-3.6405,-3.6405,-3.6405,-3.6405,-3.6405,-3.6405,-3.6405,-3.6606,-3.6933,-3.7111,-3.7312,-3.7337,-3.7385,-3.7184,-3.6631,-3.6505,-3.6531,-3.6531,-3.6606,-3.6505,-3.648,-3.6455,-3.643,-3.6355,-3.6304,-3.6329,-3.6179,-3.5855,-3.5805,-3.6006,-3.5956,-3.573,-3.5554,-3.5378,-3.5228,-3.4801,-3.455,-5.1229,-5.1229,-5.1229,-5.1229,-5.1229,-5.1229,-5.1229,-5.1229,-5.1229,-5.1229,-5.1229,-5.1229,-5.1229,-5.1229,-5.1229,-5.1229,-5.1229,-5.1229,-5.1229,-5.1229,-5.1229,-5.1229,-5.1229,-5.1182,-5.0603,-5.043,-4.8837,-4.7299,-4.6213,-4.4833,-4.3492,-4.3098,-4.2986,-4.2986,-4.2986,-4.2986,-4.2986,-4.2986,-4.2986,-4.2785,-4.2489,-4.2263,-4.2037,-4.1304,-4.0777,-4.0425,-4.0124,-3.9873,-3.9697,-3.9697,-3.9697,-3.9697,-3.9597,-3.9371,-3.9245,-3.917,-3.8994,-3.8743,-3.8668,-3.8542,-3.8417,-3.8366,-3.809,-3.7914,-3.7864,-3.7287,-3.7036,-3.701,-3.686,-3.6835,-3.6505,-3.6405,-3.6405,-3.6405,-3.6405,-3.6405,-3.6405,-3.6405,-3.6405,-3.6405,-3.6405,-3.6405,-3.6405,-3.6405,-3.648,-3.6857,-3.7136,-3.7638,-3.7814,-3.799,-3.7965,-3.7864,-3.7436,-3.7184,-3.7262,-3.7086,-3.6883,-3.6757,-3.6656,-3.6531,-3.6505,-3.6455,-3.6405,-3.6455,-3.6455,-3.6355,-3.6355,-3.6405,-3.6405,-3.6179,-3.6006,-3.5906,-3.5755,-3.5604,-3.5429,-5.1229,-5.1229,-5.1229,-5.1229,-5.1229,-5.1229,-5.1229,-5.1229,-5.1229,-5.1229,-5.1229,-5.1229,-5.1229,-5.1229,-5.1229,-5.1229,-5.1229,-5.1229,-5.1229,-5.1229,-5.1229,-5.1229,-5.1229,-5.1135,-5.043,-4.8837,-4.6991,-4.6083,-4.5262,-4.3962,-4.324,-4.3042,-4.2986,-4.2986,-4.2986,-4.2986,-4.2986,-4.2986,-4.2986,-4.2986,-4.276,-4.2564,-4.2313,-4.1861,-4.1304,-4.0727,-4.0425,-4.0149,-3.9848,-3.9697,-3.9697,-3.9697,-3.9697,-3.9622,-3.9622,-3.9546,-3.9521,-3.9471,-3.9471,-3.9145,-3.9044,-3.8843,-3.8417,-3.8241,-3.8241,-3.8115,-3.7864,-3.7613,-3.7462,-3.7161,-3.6857,-3.6656,-3.6681,-3.6631,-3.6631,-3.6505,-3.648,-3.6455,-3.643,-3.643,-3.643,-3.643,-3.6405,-3.6405,-3.6681,-3.701,-3.7513,-3.804,-3.8442,-3.8592,-3.8668,-3.8668,-3.8442,-3.8266,-3.8015,-3.7688,-3.7335,-3.7285,-3.7184,-3.6857,-3.6631,-3.6732,-3.6732,-3.6606,-3.6581,-3.6505,-3.643,-3.6405,-3.6405,-3.643,-3.6329,-3.6157,-3.6157,-3.6056,-3.6229,-5.1229,-5.1229,-5.1229,-5.1229,-5.1229,-5.1229,-5.1229,-5.1229,-5.1229,-5.1229,-5.1229,-5.1229,-5.1229,-5.1229,-5.1229,-5.1229,-5.1229,-5.1229,-5.1229,-5.1229,-5.1229,-5.1229,-5.1011,-5.0603,-5.0239,-4.8389,-4.624,-4.5182,-4.4535,-4.3547,-4.2986,-4.2986,-4.2986,-4.2986,-4.2986,-4.2986,-4.2986,-4.2986,-4.2986,-4.2986,-4.2986,-4.276,-4.2615,-4.2288,-4.2011,-4.1279,-4.0777,-4.045,-4.0099,-3.9848,-3.9697,-3.9697,-3.9697,-3.9697,-3.9697,-3.9697,-3.9697,-3.9697,-3.9597,-3.9496,-3.9396,-3.9396,-3.912,-3.917,-3.917,-3.917,-3.8868,-3.8492,-3.8266,-3.7889,-3.7588,-3.7538,-3.7513,-3.7387,-3.7337,-3.691,-3.6707,-3.6606,-3.6531,-3.648,-3.6455,-3.643,-3.6405,-3.6505,-3.6707,-3.7086,-3.7613,-3.8165,-3.8843,-3.9094,-3.9295,-3.927,-3.9245,-3.8743,-3.8191,-3.8115,-3.7839,-3.7789,-3.7688,-3.7412,-3.7236,-3.7209,-3.7159,-3.7084,-3.6782,-3.6581,-3.6505,-3.6581,-3.6455,-3.6455,-3.643,-3.638,-3.6405,-3.6405,-3.6405]},{"header":{"parameterUnit":"m.s-1","parameterCategory":1,"la1":31.0,"la2":29.5877,"lo1":-88.7671,"lo2":-86.6584,"dy":0.0162,"dx":0.0185,"nx":115,"ny":88,"refTime":"2026-04-01T12:00:00:Z","depth":0,"parameterNumber":3,"parameterNumberName":"V-component_of_WINDS"},"data":[0.0,0.0,0.0,0.0,0.0,0.0,0.0,0.0,0.0,0.0,0.0,0.0,0.0,0.0,0.0,0.0,0.0,0.0,0.0,0.0,0.0,0.0,0.0,0.0,0.0,0.0,0.0,0.0,0.0,0.0,0.0,0.0,0.0,0.0,0.0,0.0,0.0,0.0,0.0,0.0,0.0,0.0,0.0,0.0,0.0,0.0,0.0,0.0,0.0,0.0,0.0,0.0,0.0,0.0,0.0,0.0,0.0,0.0,0.0,0.0,0.0,0.0,0.0,0.0,0.0,0.0,0.0,0.0,0.0,0.0,0.0,0.0,0.0,0.0,0.0,0.0,0.0,0.0,0.0,0.0,0.0,0.0,0.0,0.0,0.0,0.0,0.0,0.0,0.0,0.0,0.0,0.0,0.0,0.0,0.0,0.0,0.0,0.0,0.0,0.0,0.0,0.0,0.0,0.0,0.0,0.0,0.0,0.0,0.0,0.0,0.0,0.0,0.0,0.0,0.0,0.0,0.0,0.0,0.0,0.0,0.0,0.0,0.0,0.0,0.0,0.0,0.0,0.0,0.0,0.0,0.0,0.0,0.0,0.0,0.0,0.0,0.0,0.0,0.0,0.0,0.0,0.0,0.0,0.0,0.0,0.0,0.0,0.0,0.0,0.0,0.0,0.0,0.0,0.0,0.0,0.0,0.0,0.0,0.0,0.0,0.0,0.0,0.0,0.0,0.0,0.0,0.0,0.0,0.0,0.0,0.0,0.0,0.0,0.0,0.0,0.0,0.0,0.0,0.0,0.0,0.0,0.0,0.0,0.0,0.0,0.0,0.0,0.0,0.0,0.0,0.0,0.0,0.0,0.0,0.0,0.0,0.0,0.0,0.0,0.0,0.0,0.0,0.0,0.0,0.0,0.0,0.0,0.0,0.0,0.0,0.0,0.0,0.0,0.0,0.0,0.0,0.0,0.0,0.0,0.0,0.0,0.0,0.0,0.0,0.0,0.0,0.0,0.0,0.0,0.0,0.0,0.0,0.0,0.0,0.0,0.0,0.0,0.0,0.0,0.0,0.0,0.0,0.0,0.0,0.0,0.0,0.0,0.0,0.0,0.0,0.0,0.0,0.0,0.0,0.0,0.0,0.0,0.0,0.0,0.0,0.0,0.0,0.0,0.0,0.0,0.0,0.0,0.0,0.0,0.0,0.0,0.0,0.0,0.0,0.0,0.0,0.0,0.0,0.0,0.0,0.0,0.0,0.0,0.0,0.0,0.0,0.0,0.0,0.0,0.0,0.0,0.0,0.0,0.0,0.0,0.0,0.0,0.0,0.0,0.0,0.0,0.0,0.0,0.0,0.0,0.0,0.0,0.0,0.0,0.0,0.0,0.0,0.0,0.0,0.0,0.0,0.0,0.0,0.0,0.0,0.0,0.0,0.0,0.0,0.0,0.0,0.0,0.0,0.0,0.0,0.0,0.0,0.0,0.0,0.0,0.0,0.0,0.0,0.0,0.0,0.0,0.0,0.0,0.0,0.0,0.0,0.0,0.0,0.0,0.0,0.0,0.0,0.0,0.0,0.0,0.0,0.0,0.0,0.0,0.0,0.0,0.0,0.0,0.0,0.0,0.0,0.0,0.0,0.0,0.0,0.0,0.0,0.0,0.0,0.0,0.0,0.0,0.0,0.0,0.0,0.0,0.0,0.0,0.0,0.0,0.0,0.0,0.0,0.0,0.0,0.0,0.0,0.0,0.0,0.0,0.0,0.0,0.0,0.0,0.0,0.0,0.0,0.0,0.0,0.0,0.0,0.0,0.0,0.0,0.0,0.0,0.0,0.0,0.0,0.0,0.0,0.0,0.0,0.0,0.0,0.0,0.0,0.0,0.0,0.0,0.0,0.0,0.0,0.0,0.0,0.0,0.0,0.0,0.0,0.0,0.0,0.0,0.0,0.0,0.0,0.0,0.0,0.0,0.0,0.0,0.0,0.0,0.0,0.0,0.0,0.0,0.0,0.0,0.0,0.0,0.0,0.0,0.0,0.0,0.0,0.0,0.0,0.0,0.0,0.0,0.0,0.0,0.0,0.0,0.0,0.0,0.0,0.0,0.0,0.0,0.0,0.0,0.0,0.0,0.0,0.0,0.0,0.0,0.0,0.0,0.0,0.0,0.0,0.0,0.0,0.0,0.0,0.0,0.0,0.0,0.0,0.0,0.0,0.0,0.0,0.0,0.0,0.0,0.0,0.0,0.0,0.0,0.0,0.0,0.0,0.0,0.0,0.0,0.0,0.0,0.0,0.0,0.0,0.0,0.0,0.0,0.0,0.0,0.0,0.0,0.0,0.0,0.0,0.0,0.0,0.0,0.0,0.0,0.0,0.0,0.0,0.0,0.0,0.0,0.0,0.0,0.0,0.0,0.0,0.0,0.0,0.0,0.0,0.0,0.0,0.0,0.0,0.0,0.0,0.0,0.0,0.0,0.0,0.0,0.0,0.0,0.0,0.0,0.0,0.0,0.0,0.0,0.0,0.0,0.0,0.0,0.0,0.0,0.0,0.0,0.0,0.0,0.0,0.0,0.0,0.0,0.0,0.0,0.0,0.0,0.0,0.0,0.0,0.0,0.0,0.0,0.0,0.0,0.0,0.0,0.0,0.0,0.0,0.0,0.0,0.0,0.0,0.0,0.0,0.0,0.0,0.0,0.0,0.0,0.0,0.0,0.0,0.0,0.0,0.0,0.0,0.0,0.0,0.0,0.0,0.0,0.0,0.0,0.0,0.0,0.0,0.0,0.0,0.0,0.0,0.0,0.0,0.0,0.0,0.0,0.0,0.0,0.0,0.0,0.0,0.0,0.0,0.0,0.0,0.0,0.0,0.0,0.0,0.0,0.0,0.0,0.0,0.0,0.0,0.0,0.0,0.0,0.0,0.0,0.0,0.0,0.0,0.0,0.0,0.0,0.0,0.0,0.0,0.0,0.0,0.0,0.0,0.0,0.0,0.0,0.0,0.0,0.0,0.0,0.0,0.0,0.0,0.0,0.0,0.0,0.0,0.0,0.0,0.0,0.0,0.0,0.0,0.0,0.0,0.0,0.0,0.0,0.0,0.0,0.0,0.0,0.0,0.0,0.0,0.0,0.0,0.0,0.0,0.0,0.0,0.0,0.0,0.0,0.0,0.0,0.0,0.0,0.0,0.0,0.0,0.0,0.0,0.0,0.0,0.0,0.0,0.0,0.0,0.0,0.0,0.0,0.0,0.0,0.0,0.0,0.0,0.0,0.0,0.0,0.0,0.0,0.0,0.0,0.0,0.0,0.0,0.0,0.0,0.0,0.0,0.0,0.0,0.0,0.0,0.0,0.0,0.0,0.0,0.0,0.0,0.0,0.0,0.0,0.0,0.0,0.0,0.0,0.0,0.0,0.0,0.0,0.0,0.0,0.0,0.0,0.0,0.0,0.0,0.0,0.0,0.0,0.0,0.0,0.0,0.0,0.0,0.0,0.0,0.0,0.0,0.0,0.0,0.0,0.0,0.0,0.0,0.0,0.0,0.0,0.0,0.0,0.0,0.0,0.0,0.0,0.0,0.0,0.0,0.0,0.0,0.0,0.0,0.0,0.0,0.0,0.0,0.0,0.0,0.0,0.0,0.0,0.0,0.0,0.0,0.0,0.0,0.0,0.0,0.0,0.0,0.0,0.0,0.0,0.0,0.0,0.0,0.0,0.0,0.0,0.0,0.0,0.0,0.0,0.0,0.0,0.0,0.0,0.0,0.0,0.0,0.0,0.0,0.0,0.0,0.0,0.0,0.0,0.0,0.0,0.0,0.0,0.0,0.0,0.0,0.0,0.0,0.0,0.0,0.0,0.0,0.0,0.0,0.0,0.0,0.0,0.0,0.0,0.0,0.0,0.0,0.0,0.0,0.0,0.0,0.0,0.0,0.0,0.0,0.0,0.0,0.0,0.0,0.0,0.0,0.0,0.0,0.0,0.0,0.0,0.0,0.0,0.0,0.0,0.0,0.0,0.0,0.0,0.0,0.0,0.0,0.0,0.0,0.0,0.0,0.0,0.0,0.0,0.0,0.0,0.0,0.0,0.0,0.0,0.0,0.0,0.0,0.0,0.0,0.0,0.0,0.0,0.0,0.0,0.0,0.0,0.0,0.0,0.0,0.0,0.0,0.0,0.0,0.0,0.0,0.0,0.0,0.0,0.0,0.0,0.0,0.0,0.0,0.0,0.0,0.0,0.0,0.0,0.0,0.0,0.0,0.0,0.0,0.0,0.0,0.0,0.0,0.9651,0.0,0.0,0.0,0.0,0.0,0.0,0.0,0.0,0.0,0.0,0.0,0.0,0.0,0.0,0.0,0.0,0.0,0.0,0.0,0.0,0.0,0.0,0.0,0.0,0.0,0.0,0.0,0.0,0.0,0.0,0.0,0.0,0.0,0.0,0.0,0.0,0.0,0.0,0.0,0.0,0.0,0.0,0.0,0.0,0.0,0.0,0.0,0.0,0.0,0.0,0.0,0.0,0.0,0.0,0.0,0.0,0.0,0.0,0.0,0.0,0.0,0.0,0.0,0.0,0.0,0.0,0.0,0.0,0.0,0.0,0.0,0.0,0.0,0.0,0.0,0.0,0.0,0.0,0.0,0.0,0.0,0.0,0.0,0.0,0.0,0.0,0.0,0.0,0.0,0.0,0.0,0.0,0.0,0.0,0.0,0.0,0.0,0.0,0.0,0.0,0.0,0.0,0.0,0.0,0.0,0.0,0.0,0.0,0.0,0.0,1.0312,1.0312,1.0247,1.0113,0.989,0.0,0.0,0.0,0.0,0.0,0.0,0.0,0.0,0.0,0.0,0.0,0.0,0.0,0.0,0.0,0.0,0.0,0.0,0.0,0.0,0.0,0.0,0.0,0.0,0.0,0.0,0.0,0.0,0.0,0.0,0.0,0.0,0.0,0.0,0.0,0.0,0.0,0.0,0.0,0.0,0.0,0.0,0.0,0.0,0.0,0.0,0.0,0.0,0.0,0.0,0.0,0.0,0.0,0.0,0.0,0.0,0.0,0.0,0.0,0.0,0.0,0.0,0.0,0.0,0.0,0.0,0.0,0.0,0.0,0.0,0.0,0.0,0.0,0.0,0.0,0.0,0.0,0.0,0.0,0.0,0.0,0.0,0.0,0.0,0.0,0.0,0.0,0.0,0.0,0.0,0.0,0.0,0.0,0.0,0.0,0.0,0.0,0.0,0.0,0.0,0.0,0.0,0.0,0.0,0.0,0.0,0.0,0.0,0.0,0.0,0.0,0.0,1.07,1.0715,1.0676,0.0,0.0,0.0,0.0,0.0,0.0,0.0,0.0,0.0,0.0,0.0,0.0,0.0,0.0,0.0,0.0,0.0,0.0,0.0,0.0,0.0,0.0,0.0,0.0,0.0,0.0,0.0,0.0,0.0,0.0,0.0,0.0,0.0,0.0,0.0,0.0,0.0,0.0,0.0,0.0,0.0,0.0,0.0,0.0,0.0,0.0,0.0,0.0,0.0,0.0,0.0,0.0,0.0,0.0,0.0,0.0,0.0,0.0,0.0,0.0,0.0,0.0,0.0,0.0,0.0,0.0,0.0,0.0,0.0,0.0,0.0,0.0,0.0,0.0,0.0,0.0,0.0,0.0,0.0,0.0,0.0,0.0,0.0,0.0,0.0,0.0,0.0,0.0,0.0,0.0,0.0,0.0,0.0,0.0,0.0,0.0,0.0,0.0,0.0,0.0,0.0,0.0,0.0,0.0,0.0,0.0,0.0,0.0,0.0,0.0,1.1152,1.1568,1.2099,0.0,1.2277,0.0,0.0,0.0,0.0,0.0,0.0,0.0,0.0,0.0,0.0,0.0,0.0,0.0,0.0,0.0,0.0,0.0,0.0,0.0,0.0,0.0,0.0,0.0,0.0,0.0,0.0,0.0,0.0,0.0,0.0,0.0,0.0,0.0,0.0,0.0,0.0,0.0,0.0,0.0,0.0,0.0,0.0,0.0,0.0,0.0,0.0,0.0,0.0,0.0,0.0,0.0,0.0,0.0,0.0,0.0,0.0,0.0,0.0,0.0,0.0,0.0,0.0,0.0,0.0,0.0,0.0,0.0,0.0,0.0,0.0,0.0,0.0,0.0,0.0,0.0,0.0,0.0,0.0,0.0,0.0,0.0,0.0,0.0,0.0,0.0,0.0,0.0,0.0,0.0,0.0,0.0,0.0,0.0,0.0,0.0,0.0,0.0,0.0,0.0,0.0,0.0,0.0,0.0,0.0,0.0,0.0,0.0,0.0,0.0,0.0,1.1758,1.2228,1.2127,1.2041,0.0,0.0,0.0,0.0,0.0,0.0,0.0,0.0,0.0,0.0,0.0,0.0,0.0,0.0,0.0,0.0,0.0,0.0,0.0,0.0,0.0,0.0,0.0,0.0,0.0,0.0,0.0,0.0,0.0,0.0,0.0,0.0,0.0,0.0,0.0,0.0,0.0,0.0,0.0,0.0,0.0,0.0,0.0,0.0,0.0,0.0,0.0,0.0,0.0,0.0,0.0,0.0,0.0,0.0,0.0,0.0,0.0,0.0,0.0,0.0,0.0,0.0,0.0,0.0,0.0,0.0,0.0,0.0,0.0,0.0,0.0,0.0,0.0,0.0,0.0,0.0,0.0,0.0,0.0,0.0,0.0,0.0,0.0,0.0,0.0,0.0,0.0,0.0,0.0,0.0,0.0,0.0,0.0,0.0,0.0,0.0,0.0,0.0,0.0,0.0,0.0,0.0,0.0,0.0,0.0,0.0,0.0,0.0,0.0,0.0,1.1864,1.2385,1.2942,1.2591,1.2127,1.1625,0.0,0.0,0.0,0.0,0.0,0.0,0.0,0.0,0.0,0.0,0.0,0.0,0.0,0.0,0.0,0.0,0.0,0.0,0.0,0.0,0.0,0.0,0.0,0.0,0.0,0.0,0.0,0.0,0.0,0.0,0.0,0.0,0.0,0.0,0.0,0.0,0.0,0.0,0.0,0.0,0.0,0.0,0.0,0.0,0.0,0.0,0.0,0.0,0.0,0.0,0.0,0.0,0.0,0.0,0.0,0.0,0.0,0.0,0.0,0.0,0.0,0.0,0.0,0.0,0.0,0.0,0.0,0.0,0.0,0.0,0.0,0.0,0.0,0.0,0.0,0.0,0.0,0.0,0.0,0.0,0.0,0.0,0.0,0.0,0.0,0.0,0.0,0.0,0.0,0.0,0.0,0.0,0.0,0.0,0.0,0.0,0.0,0.0,0.0,0.0,0.0,0.0,0.0,0.0,0.0,0.0,0.0,0.0,0.0,1.2505,1.3023,1.3988,1.4004,1.3224,0.0,0.0,0.0,0.0,0.0,0.0,0.0,0.0,0.0,0.0,0.0,0.0,0.0,0.0,0.0,0.0,0.0,0.0,0.0,0.0,0.0,0.0,0.0,0.0,0.0,0.0,0.0,0.0,0.0,0.0,0.0,0.0,0.0,0.0,0.0,0.0,0.0,0.0,0.0,0.0,0.0,0.0,0.0,0.0,0.0,0.0,0.0,0.0,0.0,0.0,0.0,0.0,0.0,0.0,0.0,0.0,0.0,0.0,0.0,0.0,0.0,0.0,0.0,0.0,0.0,0.0,0.0,0.0,0.0,0.0,0.0,0.0,0.0,0.0,0.0,0.0,0.0,0.0,0.0,0.0,0.0,0.0,0.0,0.0,0.0,0.0,0.0,0.0,0.0,0.0,0.0,0.0,0.0,0.0,0.0,0.0,0.0,0.0,0.0,0.0,0.0,0.0,0.0,0.0,0.0,0.0,0.0,0.0,0.0,1.1452,1.2118,1.3165,1.4481,1.3267,1.252,0.0,0.0,0.0,0.0,0.0,0.0,0.0,0.0,0.0,0.0,0.0,0.0,0.0,0.0,0.0,0.0,0.0,0.0,0.0,0.0,0.0,0.0,0.0,0.0,0.0,0.0,0.0,0.0,0.0,0.0,0.0,0.0,0.0,0.0,0.0,0.0,0.0,0.0,0.0,0.0,0.0,0.0,0.0,0.0,0.0,0.0,0.0,0.0,0.0,0.0,0.0,0.0,0.0,0.0,0.0,0.0,0.0,0.0,0.0,0.0,0.0,0.0,0.0,0.0,0.0,0.0,0.0,0.0,0.0,0.0,0.0,0.0,0.0,0.0,0.0,0.0,0.0,0.0,0.0,0.0,0.0,0.0,0.0,0.0,0.0,0.0,0.0,0.0,0.0,0.0,0.0,0.0,0.0,0.0,0.0,0.0,0.0,0.0,0.0,0.0,0.0,0.0,0.0,0.0,0.0,0.0,0.0,0.0,0.0,1.1489,0.0,1.3389,0.0,1.2906,1.2112,0.0,0.0,0.0,0.0,0.0,0.0,0.0,0.0,0.0,0.0,0.0,0.0,0.0,0.0,0.0,0.0,0.0,0.0,0.0,0.0,0.0,0.0,0.0,0.0,0.0,0.0,0.0,0.0,0.0,0.0,0.0,0.0,0.0,0.0,0.0,0.0,0.0,0.0,0.0,0.0,0.0,0.0,0.0,0.0,0.0,0.0,0.0,0.0,0.0,0.0,0.0,0.0,0.0,0.0,0.0,0.0,0.0,0.0,0.0,0.0,0.0,0.0,0.0,0.0,0.0,0.0,0.0,0.0,0.0,0.0,0.0,0.0,0.0,0.0,0.0,0.0,0.0,0.0,0.0,0.0,0.0,0.0,0.0,0.0,0.0,0.0,0.0,0.0,0.0,0.0,0.0,0.0,0.0,0.0,0.0,0.0,0.0,0.0,0.0,0.0,0.0,0.0,0.0,0.0,0.0,0.0,0.0,0.0,1.064,1.2682,1.3502,1.3679,1.3256,1.3165,1.2146,0.0,0.0,0.0,0.0,0.0,0.0,0.0,0.0,0.0,0.0,0.0,0.0,0.0,0.0,0.0,0.0,0.0,0.0,0.0,0.0,0.0,0.0,0.0,0.0,0.0,0.0,0.0,0.0,0.0,0.0,0.0,0.0,0.0,0.0,0.0,0.0,0.0,0.0,0.0,0.0,0.0,0.0,0.0,0.0,0.0,0.0,0.0,0.0,0.0,0.0,0.0,0.0,0.0,0.0,0.0,0.0,0.0,0.0,0.0,0.0,0.0,0.0,0.0,0.0,0.0,0.0,0.0,0.0,0.0,0.0,0.0,0.0,0.0,0.0,0.0,0.0,0.0,0.0,0.0,0.0,0.0,0.0,0.0,0.0,0.0,0.0,0.0,0.0,0.0,0.0,0.0,0.0,0.0,0.0,0.0,0.0,0.0,0.0,0.0,0.0,0.0,0.0,0.0,0.0,0.0,0.0,0.0,0.0,0.0,1.1601,1.2408,1.3323,1.4268,1.2881,1.2112,0.0,0.0,0.0,0.0,0.0,0.0,0.0,0.0,0.0,0.0,0.0,0.0,0.0,0.0,0.0,0.0,0.0,0.0,0.0,0.0,0.0,0.0,0.0,0.0,0.0,0.0,0.0,0.0,0.0,0.0,0.0,0.0,0.0,0.0,0.0,0.0,0.0,0.0,0.0,0.0,0.0,0.0,0.0,0.0,0.0,0.0,0.0,0.0,0.0,0.0,0.0,0.0,0.0,0.0,0.0,0.0,0.0,0.0,0.0,0.0,0.0,0.0,0.0,0.0,0.0,0.0,0.0,0.0,0.0,0.0,0.0,0.0,0.0,0.0,0.0,0.0,0.0,0.0,0.0,0.0,0.0,0.0,0.0,0.0,0.0,0.0,0.0,0.0,0.0,0.0,0.0,0.0,0.0,0.0,0.0,0.0,0.0,0.0,0.0,0.0,0.0,0.0,0.0,0.0,0.0,0.0,0.0,0.0,0.0,1.3114,1.3366,1.4129,1.5492,1.3778,1.2856,1.2864,0.0,0.0,0.0,0.0,0.0,0.0,0.0,0.0,0.0,0.0,0.0,0.0,0.0,0.0,0.0,0.0,0.0,0.0,0.0,0.0,0.0,0.0,0.0,0.0,0.0,0.0,0.0,0.0,0.0,0.0,0.0,0.0,0.0,0.0,0.0,0.0,0.0,0.0,0.0,0.0,0.0,0.0,0.0,0.0,0.0,0.0,0.0,0.0,0.0,0.0,0.0,0.0,0.0,0.0,0.0,0.0,0.0,0.0,0.0,0.0,0.0,0.0,0.0,0.0,0.0,0.0,0.0,0.0,0.0,0.0,0.0,0.0,0.0,0.0,0.0,0.0,0.0,0.0,0.0,0.0,0.0,0.0,0.0,0.0,0.0,0.0,0.0,0.0,0.0,0.0,0.0,0.0,0.0,0.0,0.0,0.0,0.0,0.0,0.0,0.0,0.0,0.0,0.0,0.0,0.0,0.0,0.0,0.0,1.6596,1.6085,1.608,1.6679,1.5542,1.4205,0.0,0.0,0.0,0.0,0.0,0.0,0.0,0.0,0.0,0.0,0.0,0.0,0.0,0.0,0.0,0.0,0.0,0.0,0.0,0.0,0.0,0.0,0.0,0.0,0.0,0.0,0.0,0.0,0.0,0.0,0.0,0.0,0.0,0.0,0.0,0.0,0.0,0.0,0.0,0.0,0.0,0.0,0.0,0.0,0.0,0.0,0.0,0.0,0.0,0.0,0.0,0.0,0.0,0.0,0.0,0.0,0.0,0.0,0.0,0.0,0.0,0.0,0.0,0.0,0.0,0.0,0.0,0.0,0.0,0.0,0.0,0.0,0.0,0.0,0.0,0.0,0.0,0.0,0.0,0.0,0.0,0.0,0.0,0.0,0.0,0.0,0.0,0.0,0.0,0.0,0.0,0.0,0.0,0.0,0.0,0.0,0.0,0.0,0.0,0.0,0.0,0.0,0.0,0.0,0.0,0.0,0.0,0.0,0.0,1.8084,1.8897,1.9151,1.8883,1.6697,1.509,0.0,0.0,0.0,0.0,0.0,0.0,0.0,0.0,0.0,0.0,0.0,0.0,0.0,0.0,0.0,0.0,0.0,0.0,0.0,0.0,0.0,0.0,0.0,0.0,0.0,0.0,0.0,0.0,0.0,0.0,0.0,0.0,0.0,0.0,0.0,0.0,0.0,0.0,0.0,0.0,0.0,0.0,0.0,0.0,0.0,0.0,0.0,0.0,0.0,0.0,0.0,0.0,0.0,0.0,0.0,0.0,0.0,0.0,0.0,0.0,0.0,0.0,0.0,0.0,0.0,0.0,0.0,0.0,0.0,0.0,0.0,0.0,0.0,0.0,0.0,0.0,0.0,0.0,0.0,0.0,0.0,0.0,0.0,0.0,0.0,0.0,0.0,0.0,0.0,0.0,0.0,0.0,0.0,0.0,0.0,0.0,0.0,0.0,0.0,0.0,0.0,0.0,0.0,0.0,0.0,0.0,0.0,0.0,1.7251,1.9183,2.126,2.2095,2.1568,1.8656,1.6622,0.0,0.0,0.0,0.0,0.0,0.0,0.0,0.0,0.0,0.0,0.0,0.0,0.0,0.0,0.0,0.0,0.0,0.0,0.0,0.0,0.0,0.0,0.0,0.0,0.0,0.0,0.0,0.0,0.0,0.0,0.0,0.0,0.0,0.0,0.0,0.0,0.0,0.0,0.0,0.0,0.0,0.0,0.0,0.0,0.0,0.0,0.0,0.0,0.0,0.0,0.0,0.0,0.0,0.0,0.0,0.0,0.0,0.0,0.0,0.0,0.0,0.0,0.0,0.0,0.0,0.0,0.0,0.0,0.0,0.0,0.0,0.0,0.0,0.0,0.0,0.0,0.0,0.0,0.0,0.0,0.0,0.0,0.0,0.0,0.0,0.0,0.0,0.0,0.0,0.0,0.0,0.0,0.0,0.0,0.0,0.0,0.0,0.0,0.0,0.0,0.0,0.0,0.0,0.0,0.0,0.0,0.0,0.0,1.8807,1.9953,2.3144,2.4582,2.4004,2.0813,1.8306,0.0,0.0,0.0,0.0,0.0,0.0,0.0,0.0,0.0,0.0,0.0,0.0,0.0,0.0,0.0,0.0,0.0,0.0,0.0,0.0,0.0,0.0,0.0,0.0,0.0,0.0,0.0,0.0,0.0,0.0,0.0,0.0,0.0,0.0,0.0,0.0,0.0,0.0,0.0,0.0,0.0,0.0,0.0,0.0,0.0,0.0,0.0,0.0,0.0,0.0,0.0,0.0,0.0,0.0,0.0,0.0,0.0,0.0,0.0,0.0,0.0,0.0,0.0,0.0,0.0,0.0,0.0,0.0,0.0,0.0,0.0,0.0,0.0,0.0,0.0,0.0,0.0,0.0,0.0,0.0,0.0,0.0,0.0,0.0,0.0,0.0,0.0,0.0,0.0,0.0,0.0,0.0,0.0,0.0,0.0,0.0,0.0,0.0,0.0,0.0,0.0,0.0,0.0,0.0,0.0,0.0,0.0,0.0,1.976,2.1649,2.3702,2.4725,2.46,2.1393,1.8882,0.0,0.0,0.0,0.0,0.0,0.0,0.0,0.0,0.0,0.0,0.0,0.0,0.0,0.0,0.0,0.0,0.0,0.0,0.0,0.0,0.0,0.0,0.0,0.0,0.0,0.0,0.0,0.0,0.0,0.0,0.0,0.0,0.0,0.0,0.0,0.0,0.0,0.0,0.0,0.0,0.0,0.0,0.0,0.0,0.0,0.0,0.0,0.0,0.9887,0.0,0.0,0.0,0.0,0.0,0.0,0.0,0.0,0.0,0.0,0.0,0.0,0.0,0.0,0.0,0.0,0.0,0.0,0.0,0.0,0.0,0.0,0.0,0.0,0.0,0.0,0.0,0.0,0.0,0.0,0.0,0.0,0.0,0.0,0.0,0.0,0.0,0.0,0.0,0.0,0.0,0.0,0.0,0.0,0.0,0.0,0.0,0.0,0.0,0.0,0.0,0.0,0.0,0.0,0.0,0.0,0.0,0.0,0.0,2.0405,2.2563,2.4293,2.5084,2.47,2.2071,1.971,0.0,0.0,0.0,0.0,0.0,0.0,0.0,0.0,0.0,0.0,0.0,0.0,0.0,0.0,0.0,0.0,0.0,0.0,0.0,0.0,0.0,0.0,0.0,0.0,0.0,0.0,0.0,0.0,0.0,0.0,0.0,0.0,0.0,0.0,0.0,0.0,0.0,0.0,0.0,0.0,0.0,0.0,0.0,0.0,0.0,0.0,0.0,0.0,0.0,0.0,0.0,0.0,0.0,0.0,0.0,0.0,0.0,0.0,0.0,0.0,0.0,0.0,0.0,0.0,0.0,0.0,0.0,0.0,0.0,0.0,0.0,0.0,0.0,0.0,0.0,0.0,0.0,0.0,0.0,0.0,0.0,0.0,0.0,0.0,0.0,0.0,0.0,0.0,0.0,0.0,0.0,0.0,0.0,0.0,0.0,0.0,0.0,0.0,0.0,0.0,0.0,0.0,0.0,0.0,0.0,0.0,0.0,1.8025,2.0835,2.3401,2.4772,2.5285,2.4775,2.2573,2.039,1.8254,0.0,0.0,0.0,0.0,0.0,0.0,0.0,0.0,0.0,0.0,0.0,0.0,0.0,0.0,0.0,0.0,0.0,0.0,0.0,0.0,0.0,0.0,0.0,0.0,0.0,0.0,0.0,0.0,0.0,0.0,0.0,0.0,0.0,0.0,0.0,0.0,0.0,0.0,0.9345,1.0694,0.0,0.0,0.0,0.0,0.0,0.0,0.0,0.0,1.0644,0.0,0.0,0.0,0.0,0.0,0.0,0.0,0.0,0.0,0.0,0.0,0.0,0.0,0.0,0.0,0.0,0.0,0.0,0.0,0.0,0.0,0.0,0.0,0.0,0.0,0.0,0.0,0.0,0.0,0.0,0.0,0.0,0.0,0.0,0.0,0.0,0.0,0.0,0.0,0.0,0.0,0.0,0.0,0.0,0.0,0.0,0.0,0.0,0.0,0.0,0.0,0.0,0.0,0.0,0.0,0.0,1.7952,1.8769,2.1075,2.507,2.5018,2.4876,2.4725,2.2196,2.0013,1.8229,0.0,0.0,0.0,0.0,0.0,0.0,0.0,0.0,0.0,0.0,0.0,0.0,0.0,0.0,0.0,0.0,0.0,0.0,0.0,0.0,0.0,0.0,0.0,0.0,0.0,0.0,0.0,0.0,0.0,0.0,0.0,0.0,0.0,0.0,0.0,0.0,0.0,0.0,0.0,1.2619,1.2921,0.0,0.0,0.0,0.0,0.0,0.0,0.0,0.0,1.13,0.0,0.0,0.0,0.0,0.0,0.0,0.0,0.0,0.0,0.0,0.0,0.0,0.0,0.0,0.0,0.0,0.0,0.0,0.0,0.0,0.0,0.0,0.0,0.0,0.0,0.0,0.0,0.0,0.0,0.0,0.0,0.0,0.0,0.0,0.0,0.0,0.0,0.0,0.0,0.0,0.0,0.0,0.0,0.0,0.0,0.0,0.0,0.0,0.0,0.0,0.0,0.0,0.0,0.0,0.0,1.8363,1.9935,2.24,2.5887,2.5234,2.48,2.4725,2.182,1.961,0.0,0.0,0.0,0.0,0.0,0.0,0.0,0.0,0.0,0.0,0.0,0.0,0.0,0.0,0.0,0.0,0.0,0.0,0.0,0.0,0.0,0.0,0.0,0.0,0.0,0.0,0.0,0.0,0.0,0.0,0.0,0.0,0.0,0.0,0.0,0.0,0.0,0.0,0.0,0.0,1.3585,1.4012,1.4733,0.0,0.0,0.0,0.0,0.0,0.0,1.2218,1.1843,0.0,0.0,0.0,0.0,0.0,0.0,0.0,0.0,0.0,0.0,0.0,0.0,0.0,0.0,0.0,0.0,0.0,0.0,0.0,0.0,0.0,0.0,0.0,0.0,0.0,0.0,0.0,0.0,0.0,0.0,0.0,0.0,0.0,0.0,0.0,0.0,0.0,0.0,0.0,0.0,0.0,0.0,0.0,0.0,0.0,0.0,0.0,0.0,0.0,0.0,0.0,0.0,0.0,0.0,0.0,1.8344,2.0931,2.3609,2.6289,2.5385,2.48,2.4725,2.154,1.9309,0.0,0.0,0.0,0.0,0.0,0.0,0.0,0.0,0.0,0.0,0.0,0.0,0.0,0.0,0.0,0.0,0.0,0.0,0.0,0.0,0.0,0.0,0.0,0.0,0.0,0.0,0.0,0.0,0.0,0.0,0.0,0.0,0.0,0.0,0.0,0.0,0.0,0.0,0.0,0.0,0.0,1.5557,1.6368,1.4962,0.0,0.0,0.0,0.0,1.3346,1.3611,0.0,0.0,0.0,0.0,0.0,0.0,0.0,0.0,0.0,0.0,0.0,0.0,0.0,0.0,0.0,0.0,0.0,0.0,0.0,0.0,0.0,0.0,0.0,0.0,0.0,0.0,0.0,0.0,0.0,0.0,0.0,0.0,0.0,0.0,0.0,0.0,0.0,0.0,0.0,0.0,0.0,0.0,0.0,0.0,0.0,0.0,0.0,0.0,0.0,0.0,0.0,0.0,0.0,0.0,0.0,0.0,1.8344,2.1043,2.3705,2.6264,2.5385,2.48,2.475,2.154,1.9309,0.0,0.0,0.0,0.0,0.0,0.0,0.0,0.0,0.0,0.0,0.0,0.0,0.0,0.0,0.0,0.0,0.0,0.0,0.0,0.0,0.0,0.0,0.0,0.0,0.0,0.0,0.0,0.0,0.0,0.0,0.0,0.0,0.0,0.0,0.0,0.0,0.0,0.0,0.0,0.0,0.0,1.7976,1.6142,1.5927,1.5422,0.0,0.0,1.6312,1.5996,1.7629,0.0,0.0,0.0,0.0,0.0,0.0,0.0,0.0,0.0,0.0,0.0,0.0,0.0,0.0,0.0,0.0,0.0,0.0,0.0,0.0,0.0,0.0,0.0,0.0,0.0,0.0,0.0,0.0,0.0,0.0,0.0,0.0,0.0,0.0,0.0,0.0,0.0,0.0,0.0,0.0,0.0,0.0,0.0,0.0,0.0,0.0,0.0,0.0,0.0,0.0,0.0,0.0,0.0,0.0,0.0,1.6054,1.8441,2.2238,2.4962,2.6399,2.5385,2.48,2.4775,2.124,1.8983,0.0,0.0,0.0,0.0,0.0,0.0,0.0,0.0,0.0,0.0,0.0,0.0,0.0,0.0,0.0,0.0,0.0,0.0,0.0,0.0,0.0,0.0,0.0,0.0,0.0,0.0,0.0,0.0,0.0,0.0,0.0,0.0,0.0,0.0,0.0,0.0,0.0,0.0,0.0,0.0,0.0,0.0,1.7869,1.7621,0.0,0.0,0.0,1.7891,1.7127,0.0,0.0,0.0,0.0,0.0,0.0,0.0,0.0,0.0,0.0,0.0,0.0,0.0,0.0,0.0,0.0,0.0,0.0,0.0,0.0,0.0,0.0,0.0,0.0,0.0,0.0,0.0,0.0,0.0,0.0,0.0,0.0,0.0,0.0,0.0,0.0,0.0,0.0,0.0,0.0,0.0,0.0,0.0,0.0,0.0,0.0,0.0,0.0,0.0,0.0,0.0,0.0,0.0,0.0,0.0,0.0,0.0,1.8464,2.3164,2.5921,2.6449,2.5511,2.4926,2.4725,2.1443,0.0,0.0,0.0,0.0,0.0,0.0,0.0,0.0,0.0,0.0,0.0,0.0,0.0,0.0,0.0,0.0,0.0,0.0,0.0,0.0,0.0,0.0,0.0,0.0,0.0,0.0,0.0,0.7403,0.0,0.0,0.0,0.0,0.0,0.0,0.0,0.0,0.0,0.0,0.0,0.0,0.0,0.0,1.8097,1.9342,1.9216,1.9309,0.0,0.0,1.9526,1.8708,2.0223,1.9928,0.0,0.0,0.0,0.0,0.0,0.0,0.0,0.0,0.0,0.0,0.0,0.0,0.0,0.0,0.0,0.0,0.0,0.0,0.0,0.0,0.0,0.0,0.0,0.0,0.0,0.0,0.0,0.0,0.0,0.0,0.0,0.0,0.0,0.0,0.0,0.0,0.0,0.0,0.0,0.0,0.0,0.0,0.0,0.0,0.0,0.0,0.0,0.0,0.0,0.0,0.0,0.0,0.0,0.0,0.0,1.8514,2.3164,2.5887,2.6449,2.5896,2.531,2.4775,2.2548,2.0338,0.0,0.0,0.0,0.0,0.0,0.0,0.0,0.0,0.0,0.0,0.0,0.0,0.0,0.0,0.0,0.0,0.0,0.0,0.0,0.0,0.0,0.0,0.0,0.0,0.0,0.0,0.0,0.0,0.0,0.0,0.0,0.0,0.0,0.0,0.0,0.0,0.0,0.0,0.0,0.0,0.0,2.0059,1.9561,2.051,2.1461,0.0,0.0,2.1891,2.1546,2.359,2.3249,1.7434,0.0,0.0,0.0,0.0,0.0,0.0,0.0,0.0,0.0,0.0,0.0,0.0,0.0,0.0,0.0,0.0,0.0,0.0,0.0,0.0,0.0,0.0,0.0,0.0,0.0,0.0,0.0,0.0,0.0,0.0,0.0,0.0,0.0,0.0,0.0,0.0,0.0,0.0,0.0,0.0,0.0,0.0,0.0,0.0,0.0,0.0,0.0,0.0,0.0,0.0,0.0,0.0,0.0,1.7434,1.8802,2.328,2.5921,2.6449,2.5887,2.5335,2.48,2.2648,2.0614,0.0,0.0,0.0,0.0,0.0,0.0,0.0,0.0,0.0,0.0,0.0,0.0,0.0,0.0,0.0,0.0,0.0,0.0,0.0,0.0,0.0,0.0,0.0,0.0,0.0,0.0,0.0,0.0,0.9832,0.9853,0.9416,0.0,0.0,0.0,0.0,0.0,0.0,0.0,0.0,0.0,0.0,2.0348,2.1593,2.2142,0.0,0.0,2.2798,2.2571,2.2232,2.2671,2.1709,1.7647,1.6173,0.0,0.0,0.0,0.0,0.0,0.0,0.0,0.0,0.0,0.0,0.0,0.0,0.0,0.0,0.0,0.0,0.0,0.0,0.0,0.0,0.0,0.0,0.0,0.0,0.0,0.0,0.0,0.0,0.0,0.0,0.0,0.0,0.0,0.0,0.0,0.0,0.0,0.0,0.0,0.0,0.0,0.0,0.0,0.0,0.0,0.0,0.0,0.0,0.0,0.0,0.0,0.0,1.7533,1.9277,2.3293,2.5711,2.6474,2.6063,2.5536,2.4775,2.315,2.1292,0.0,0.0,0.0,0.0,0.0,0.0,0.0,0.0,0.0,0.0,0.0,0.0,0.0,0.0,0.0,0.0,0.0,0.0,0.0,0.0,0.0,0.0,0.0,0.0,0.0,0.0,0.0,0.0,1.0228,1.0019,0.9461,0.0,0.0,0.0,0.0,0.0,0.0,0.0,0.0,0.0,0.0,2.1003,2.2934,2.312,2.3187,2.3486,2.307,2.2632,2.2408,2.2199,2.1087,1.8195,0.0,0.0,0.0,0.0,0.0,0.0,0.0,0.0,0.0,0.0,0.0,0.0,0.0,0.0,0.0,0.0,0.0,0.0,0.0,0.0,0.0,0.0,0.0,0.0,0.0,0.0,0.0,1.6414,0.0,0.0,1.6343,0.0,0.0,0.0,0.0,0.0,0.0,0.0,0.0,0.0,0.0,0.0,0.0,0.0,0.0,0.0,0.0,0.0,0.0,0.0,0.0,0.0,0.0,1.7645,1.9885,2.3151,2.5385,2.6449,2.6474,2.5946,2.485,2.4255,2.2623,1.9811,0.0,0.0,0.0,0.0,0.0,0.0,0.0,0.0,0.0,0.0,0.0,0.0,0.0,0.0,0.0,0.0,0.0,0.0,0.0,0.0,0.0,0.0,0.0,0.0,0.0,0.0,0.8477,0.862,0.8678,0.0,0.0,0.0,0.0,0.0,0.0,0.0,0.0,0.0,0.0,2.0161,2.2374,2.3079,2.3176,2.333,2.3802,2.2898,2.2183,2.2314,2.2844,2.2347,0.0,0.0,0.0,0.0,0.0,0.0,0.0,0.0,0.0,0.0,0.0,0.0,0.0,0.0,0.0,0.0,0.0,0.0,0.0,0.0,0.0,0.0,0.0,0.0,0.0,0.0,0.0,1.8436,1.8066,0.0,0.0,0.0,0.0,0.0,0.0,0.0,0.0,0.0,0.0,0.0,2.2598,2.2975,0.0,0.0,0.0,0.0,0.0,0.0,0.0,0.0,0.0,0.0,0.0,0.0,1.8536,2.0415,2.3623,2.5745,2.6474,2.6499,2.6122,2.536,2.4481,2.2347,1.8857,0.0,0.0,0.0,0.0,0.0,0.0,0.0,0.0,0.0,0.0,0.0,0.0,0.0,0.0,0.0,0.0,0.0,0.0,0.0,0.0,0.0,0.0,0.0,0.0,0.0,0.977,0.0,0.0,0.0,0.0,0.0,0.0,0.0,0.0,0.0,0.0,0.0,1.6196,1.9124,2.0412,2.1557,2.2943,2.3138,2.3333,0.0,0.0,0.0,0.0,0.0,0.0,0.0,0.0,0.0,0.0,0.0,0.0,0.0,0.0,2.0326,1.6344,1.5649,1.5692,1.5765,0.0,0.0,0.0,0.0,0.0,0.0,0.0,0.0,0.0,0.0,0.0,0.0,0.0,0.0,2.2035,0.0,2.0929,0.0,0.0,0.0,0.0,0.0,0.0,0.0,0.0,2.406,2.5385,2.5737,2.6088,2.5929,0.0,2.4305,2.1948,0.0,0.0,0.0,0.0,0.0,0.0,0.0,0.0,1.9381,2.1227,2.409,2.5862,2.6474,2.6499,2.6223,2.5586,2.4356,2.2347,1.9459,1.8196,1.6799,0.0,0.0,0.0,0.0,0.0,0.0,0.0,0.0,0.0,0.0,0.0,0.0,0.0,0.0,0.0,0.0,0.0,0.0,0.0,0.0,0.0,0.0,0.0,1.1207,0.0,0.0,0.0,0.0,0.0,0.0,0.0,0.0,0.0,1.4513,1.6054,1.8061,2.0539,2.1227,2.1806,2.262,0.0,0.0,0.0,0.0,0.0,0.0,0.0,2.0638,2.0448,2.0482,2.0742,2.1415,2.2945,2.4038,2.3812,0.0,0.0,1.9798,1.9051,1.9029,1.9096,1.9509,1.987,1.987,2.0533,2.1171,0.0,0.0,0.0,0.0,0.0,0.0,0.0,0.0,2.5862,2.6088,0.0,2.4833,0.0,0.0,0.0,0.0,0.0,2.3715,0.0,0.0,2.8661,2.9991,2.9013,2.8963,2.8712,2.8247,2.8147,2.6992,2.4732,2.0087,0.0,0.0,0.0,0.0,0.0,0.0,2.0161,2.2368,2.4556,2.5912,2.6499,2.6499,2.6223,2.5586,2.4023,2.2644,2.1543,1.9987,1.8606,1.7519,1.5515,0.0,0.0,0.0,0.0,0.0,0.0,0.0,0.0,0.0,0.0,0.0,0.0,0.0,0.0,0.0,0.0,0.0,0.0,0.0,0.0,1.2653,0.0,0.0,0.0,0.0,0.0,0.0,0.0,0.0,0.0,0.0,1.6144,1.812,2.0146,2.129,0.0,0.0,0.0,0.0,2.2745,2.188,2.1711,2.1647,2.1461,2.2496,2.3124,2.2448,0.0,0.0,2.5004,2.4894,2.461,2.3463,2.462,2.5521,2.5411,2.4006,2.3079,2.3052,2.3088,2.3153,2.3189,2.3795,2.4356,3.1913,0.0,0.0,0.0,0.0,2.8047,2.9202,3.0909,3.0507,2.9754,2.88,2.7921,0.0,0.0,0.0,0.0,0.0,0.0,2.5955,2.7741,2.9326,3.0457,3.126,3.1286,3.1185,3.1009,3.0256,2.9352,2.8273,2.5737,2.2196,1.7877,0.0,0.0,0.0,0.0,2.1895,2.4029,2.5511,2.6524,2.7077,2.67,2.6223,2.5611,2.4782,2.3772,2.2669,2.182,2.0834,1.9737,1.8617,0.0,0.0,0.0,0.0,0.0,0.0,0.0,0.0,0.0,0.0,0.0,0.0,0.0,0.0,0.0,0.0,0.0,0.0,0.0,1.3136,1.3647,1.3475,0.0,0.0,0.0,0.0,0.0,0.0,0.0,0.0,0.0,1.9917,1.9798,2.0002,0.0,0.0,2.1217,2.131,2.2167,2.3012,2.3603,2.3664,0.0,2.4274,2.3816,2.3511,2.3831,2.5197,2.6282,2.6499,2.697,2.7357,2.7244,2.7666,2.7959,2.786,2.6675,2.5611,2.5621,2.6025,2.6392,2.6465,2.709,2.7658,3.6408,3.3545,3.1336,3.0909,3.1763,3.1989,3.2943,3.4349,3.4022,3.3294,3.2315,3.1336,2.9603,2.7369,2.6289,0.0,0.0,0.0,2.8213,3.0256,3.0834,3.1612,3.2516,3.2566,3.2566,3.2516,3.1662,3.1085,3.0733,2.9076,2.6264,2.2372,0.0,0.0,2.0539,2.2246,2.3904,2.5435,2.66,2.7203,2.7268,2.6776,2.6223,2.5611,2.5084,2.4374,2.3471,2.2723,2.1875,2.1008,2.0066,1.8808,0.0,0.0,0.0,0.0,0.0,0.0,0.0,0.0,0.0,0.0,0.0,1.1388,0.949,0.0,0.0,0.0,1.3098,1.4352,1.5567,1.5684,0.0,0.0,0.0,0.0,0.0,0.0,0.0,1.7788,1.9853,2.1565,2.2323,2.1994,2.1814,2.2183,2.2335,2.2559,2.3014,0.0,2.5231,2.6135,2.576,2.5523,2.5947,2.5033,2.4554,2.5487,2.6028,2.6695,2.7551,2.7998,2.8399,2.8858,2.8987,2.8987,2.8987,2.8216,2.7556,2.7556,2.7923,2.8264,2.8301,2.8656,2.9044,3.9798,3.9446,3.5906,3.465,3.5027,3.5533,3.6081,3.6606,3.6606,3.6556,3.6355,3.4776,3.3194,3.1512,2.9001,0.0,2.9389,3.0432,3.1345,3.2365,3.2885,3.3136,3.3136,3.3111,3.3136,3.3068,3.2516,3.229,3.219,3.0733,2.9176,2.763,2.5511,2.433,2.413,2.5084,2.5912,2.6625,2.7544,2.7795,2.7293,2.6826,2.6273,2.5611,2.5051,2.4525,2.4004,2.2899,2.2099,2.1552,2.0425,1.9502,1.8841,0.0,0.0,0.0,0.0,0.0,0.0,0.0,0.0,0.0,0.0,0.0,0.0,0.0,0.0,0.0,1.6919,0.0,1.874,1.8216,0.0,0.0,0.0,1.6849,1.6638,1.9181,2.0801,2.0509,0.0,0.0,2.3759,2.4276,2.4754,2.4903,2.5338,2.5803,2.6247,2.7379,2.8528,2.877,2.7891,2.7029,2.6979,2.6218,2.5925,2.6824,2.6972,2.7078,2.8013,2.8112,2.8215,2.8881,2.8987,2.8987,2.8987,2.8913,2.8987,2.8913,2.895,2.8987,2.895,2.8987,2.8998,4.0701,4.0249,3.932,3.8291,3.7287,3.7839,3.814,3.8316,3.8266,3.7838,3.6935,3.6179,3.5077,3.3897,3.3244,3.3093,3.3345,3.3194,3.3269,3.347,3.3194,3.3136,3.3136,3.3136,3.3136,3.3111,3.2943,3.2867,3.2817,3.2039,3.1235,3.0382,2.9076,2.7143,2.4757,2.5259,2.6314,2.7695,2.757,2.7419,2.7293,2.7168,2.6615,2.5611,2.5084,2.4556,2.4004,2.2899,2.2274,2.2159,2.1511,2.0627,1.9609,1.7376,0.0,0.0,0.0,0.0,0.0,0.0,0.0,0.0,0.0,1.4034,1.1058,0.0,1.4833,0.0,1.657,1.8382,1.9631,1.9192,0.0,0.0,1.9622,1.996,2.1584,2.247,2.29,2.2807,2.3694,2.4545,2.5053,2.5262,2.5944,2.738,2.6765,2.6167,2.6324,2.7774,2.8866,2.9085,2.9685,2.9702,2.8536,2.73,2.6521,2.6807,2.6775,2.7003,2.7848,2.7968,2.8134,2.8834,2.8987,2.8987,2.8987,2.8987,2.8987,2.8987,2.8987,2.8987,2.8987,2.8987,2.8987,4.153,4.1229,4.0978,4.0074,3.8793,3.9094,3.9145,3.8919,3.8919,3.8366,3.7513,3.6734,3.5906,3.5031,3.4826,3.468,3.47,3.4399,3.4274,3.4223,3.3696,3.3445,3.342,3.3194,3.3136,3.3136,3.3136,3.3136,3.3111,3.2742,3.229,3.1763,3.116,2.9704,2.7469,2.6942,2.7168,2.8097,2.7795,2.777,2.7996,2.7544,2.6741,2.5636,2.4858,2.4079,2.3276,2.22,2.1483,2.1248,2.0733,2.0152,1.9485,1.7623,1.6314,0.0,0.0,0.0,0.0,0.0,0.0,0.0,0.0,0.0,0.0,0.0,1.6226,1.6625,1.8159,1.9803,2.151,2.1029,2.1141,2.2472,2.2317,2.2719,2.4335,2.4747,2.4926,2.4926,2.5525,2.6093,2.6422,2.6752,2.744,2.8846,2.8539,2.8295,2.8748,3.0052,3.116,3.1451,3.188,3.1393,2.9348,2.8299,2.7486,2.686,2.6691,2.6954,2.7754,2.7897,2.8147,2.8834,2.8987,2.8987,2.8987,2.8987,2.8987,2.8987,2.8987,2.8987,2.8987,2.8987,2.8987,4.2263,4.2162,4.1656,4.0852,3.9898,3.9823,3.9396,3.8768,3.8818,3.8467,3.7939,3.6935,3.6232,3.5683,3.5177,3.4926,3.4926,3.4851,3.4781,3.4756,3.4198,3.3897,3.3872,3.3345,3.3136,3.3136,3.3136,3.3136,3.3136,3.3136,3.2792,3.224,3.2139,3.1612,3.0583,2.9076,2.8247,2.8122,2.8172,2.8386,2.88,2.7745,2.664,2.5511,2.4456,2.3401,2.2347,2.127,2.0465,1.9936,1.9384,1.9126,1.915,1.7491,1.6677,0.0,1.4943,0.0,0.0,0.0,0.0,0.0,0.0,0.0,0.0,1.7157,1.8031,1.9731,2.039,2.1555,2.3548,2.313,2.3357,2.4805,2.4993,2.5262,2.6033,2.6542,2.6841,2.6841,2.7315,2.7585,2.7555,2.8184,2.8816,2.9472,2.9981,3.047,3.1459,3.2536,3.3562,3.439,3.3862,3.2408,3.033,2.9314,2.8468,2.73,2.6826,2.7005,2.7768,2.7897,2.8134,2.8822,2.8987,2.8987,2.8987,2.8987,2.8987,2.8987,2.8987,2.8987,2.8987,2.8987,2.8987,4.2615,4.2187,4.2112,4.163,4.1003,4.0551,3.9521,3.8165,3.8165,3.8115,3.7965,3.7337,3.6985,3.6835,3.6307,3.6103,3.6078,3.5579,3.5332,3.5307,3.4374,3.3897,3.3872,3.3345,3.3136,3.3136,3.3136,3.3136,3.3136,3.3136,3.2792,3.2215,3.1763,3.1235,3.0608,0.0,0.0,0.0,2.8512,2.8562,2.8247,2.7203,2.6122,2.4951,2.3847,0.0,2.2322,2.127,2.0668,2.0515,1.9962,0.0,0.0,0.0,0.0,0.0,0.0,0.0,0.0,0.0,0.0,0.0,1.8152,1.7895,1.7352,1.8497,1.9654,2.051,2.1076,2.2219,2.4139,2.4221,2.4931,2.6768,2.7046,2.7525,2.8663,2.8457,2.8218,2.8218,2.7884,2.7615,2.7675,2.8158,2.8846,2.9535,3.0133,3.073,3.1411,3.269,3.3624,3.3756,3.3647,3.3267,3.2679,3.0601,2.9179,2.8468,2.7453,2.714,2.7766,2.7954,2.8134,2.8846,2.8987,2.8975,2.8987,2.8987,2.8987,2.8987,2.8987,2.8987,2.8987,2.8987,2.8987,4.2811,4.2615,4.2615,4.2082,0.0,4.0752,3.9722,3.8467,3.8718,3.8693,3.8417,3.814,3.7713,3.7161,3.6656,3.6207,3.5931,3.5332,3.5232,3.5458,3.4675,3.4299,3.4299,3.3746,3.3345,3.3136,3.3136,3.3136,3.3136,3.3136,3.296,3.2641,3.2365,3.2089,3.1813,3.126,3.0306,2.895,2.8888,2.8888,2.89,2.8122,2.7017,2.5661,2.4808,0.0,0.0,0.0,0.0,0.0,0.0,0.0,0.0,0.0,0.0,1.9638,1.9446,1.9526,1.9979,1.9889,2.0162,2.0964,2.129,2.0891,1.956,2.0665,2.185,2.2824,2.3223,2.4204,2.6142,2.6412,2.6989,2.8379,2.8603,2.8903,2.9442,2.9295,2.9086,2.9056,2.8813,2.8603,2.8603,2.8846,2.9325,2.9924,3.0283,3.0761,3.1417,3.2407,3.3261,3.3971,3.4379,3.4213,3.3457,3.2341,3.0818,3.0194,2.945,2.8938,2.8692,2.8697,2.8709,2.8719,2.8713,2.8749,2.8952,2.8987,2.8987,2.8987,2.8987,2.8987,2.8987,2.8987,2.8987,4.2986,4.2986,4.2986,4.2459,4.1526,4.1028,4.0174,3.9221,0.0,0.0,0.0,3.8919,3.8366,3.7437,3.6857,3.6257,3.5759,3.5232,3.5207,3.5608,3.5082,3.4831,3.4781,3.4198,3.3646,3.3244,3.3119,3.3136,3.3136,3.3136,3.3136,3.3136,3.3136,3.3136,3.3043,3.2491,3.1562,3.0256,2.9478,2.9302,2.9754,2.8988,2.7996,2.6675,2.5937,2.4707,2.2849,2.2221,2.1697,2.1117,2.0639,2.0388,2.0413,2.084,2.1337,2.1742,2.1873,2.2322,2.3215,2.2937,2.292,2.3371,2.3954,2.3653,2.2171,2.2899,2.3847,2.4949,2.5222,2.6099,2.7911,2.8282,2.8764,2.966,2.9771,2.9801,2.9894,2.9804,2.9771,2.9771,2.9651,2.9621,2.9562,2.9681,2.9924,3.0372,3.0642,3.0853,3.1446,3.2299,3.3287,3.4341,3.4988,3.5092,3.4112,3.3402,3.2949,3.1765,3.1326,3.087,3.0177,2.9903,2.9698,2.9433,2.8981,2.9021,2.9247,2.9148,2.9012,2.8987,2.8987,2.8987,2.8987,2.8987,2.8987,4.2986,4.2986,4.2986,4.2886,4.271,4.2213,4.1304,4.0224,3.9371,3.8994,3.8919,3.8919,3.8818,3.8642,3.7586,3.7036,3.691,3.6383,3.6229,3.6254,3.5633,3.5382,3.5332,3.4374,3.3872,3.3746,3.3319,3.3136,3.3136,3.3136,3.3136,3.3136,3.3136,3.3136,3.3086,3.2516,3.2089,3.1838,3.0432,2.9704,2.9754,2.8298,2.7419,2.7178,2.6163,2.5259,2.4474,2.3954,2.3376,2.2794,2.2694,2.2644,2.2644,2.2719,2.2774,2.2888,2.3356,2.3708,2.3876,2.4236,2.4474,2.4575,2.5084,2.5084,2.4399,2.4449,2.4639,2.4874,2.5569,2.6317,2.7268,2.8054,2.8996,3.0171,3.0372,3.0582,3.1062,3.0702,3.0372,3.0372,2.9894,2.9651,2.9744,3.0073,3.0402,3.0582,3.0943,3.1361,3.1622,3.2652,3.3668,3.4496,3.5168,3.5453,3.5092,3.4146,3.347,3.3152,3.2138,3.1531,3.145,3.142,3.1393,3.1611,3.0823,3.0406,3.0409,2.9635,2.9197,2.9097,2.906,2.8987,2.8987,2.8987,2.8987,4.2986,4.2986,4.2986,4.2986,4.2936,4.2439,4.153,4.0501,3.9998,3.9597,3.932,3.932,3.9145,3.8869,3.799,3.7287,3.6757,3.6157,3.5906,3.5906,3.5608,3.5483,3.5458,3.5027,3.45,3.3922,3.3646,3.337,3.3136,3.3136,3.3136,3.3136,3.3136,3.3136,3.3111,3.2817,3.2692,3.2641,3.1336,3.0507,3.0231,2.9478,2.88,2.8197,2.7645,2.6982,2.6189,2.5912,2.5511,2.4958,2.4933,2.4933,2.4933,2.5209,2.5259,2.4983,2.546,2.5787,2.5787,2.6289,2.6556,2.6615,2.6816,2.6866,2.664,2.6038,2.5745,2.5745,2.6486,2.7327,2.8081,2.8931,2.9871,3.0915,3.1032,3.1152,3.1391,3.1271,3.1032,3.1002,3.0821,3.0642,3.0642,3.0853,3.1032,3.1062,3.1331,3.1511,3.1539,3.2351,3.3287,3.3971,3.4934,3.5532,3.5566,3.5092,3.4619,3.4585,3.4044,3.3371,3.2895,3.2676,3.2494,3.2071,3.1449,3.1174,3.1282,3.042,2.9807,2.961,2.9244,2.906,2.8987,2.8987,2.8987,4.2986,4.2986,4.2986,4.2986,4.2936,4.2564,4.1781,4.0902,4.0752,4.0375,3.9898,3.9747,3.9446,3.9019,3.8467,3.7739,3.6958,3.6207,3.5884,3.5859,3.5734,3.5683,3.5683,3.5558,3.5031,3.4299,3.4048,3.3671,3.3294,3.3187,3.3136,3.3136,3.3136,3.3136,3.3136,3.3136,3.3136,3.3061,3.2256,3.1512,3.1009,3.0859,3.0306,2.9364,2.9264,2.88,2.7745,2.7645,2.7394,2.6901,2.6876,2.6851,2.6876,2.7218,2.7268,2.6952,2.7278,2.7469,2.7494,2.7871,2.8122,2.8122,2.8122,2.8122,2.8047,2.7379,2.6876,2.6955,2.7618,2.8438,2.9352,3.0208,3.1036,3.1812,3.1809,3.175,3.172,3.16,3.1511,3.1511,3.1511,3.1451,3.1511,3.1511,3.1481,3.1451,3.1511,3.1511,3.1597,3.2132,3.2841,3.3598,3.4616,3.5362,3.5554,3.5566,3.5532,3.56,3.5532,3.4912,3.4189,3.3897,3.3664,3.299,3.2351,3.2119,3.2148,3.1373,3.0598,3.0235,2.9684,2.928,2.9023,2.8987,2.8987,4.2986,4.2986,4.2986,4.2986,4.2986,4.2911,4.259,4.2011,4.148,4.0953,4.0375,3.9923,3.9672,3.9546,3.9044,3.8743,3.8542,3.7513,3.7036,3.6935,3.6556,3.6329,3.6254,3.578,3.5458,3.5182,3.4354,3.3947,3.3746,3.3294,3.3136,3.3136,3.3136,3.3136,3.3136,3.3136,3.3136,3.3136,3.2993,3.2641,3.2064,3.1562,3.1035,3.0482,3.0417,2.9891,2.8787,2.8737,2.8524,2.8021,2.7946,2.7946,2.7971,2.8021,2.8021,2.7946,2.7996,2.8021,2.8047,2.8072,2.8147,2.8122,2.8172,2.8172,2.8172,2.8047,2.7946,2.8091,2.8721,2.9533,3.0532,3.1367,3.2169,3.2974,3.2736,3.2378,3.2348,3.1869,3.1511,3.1511,3.154,3.1511,3.1511,3.1511,3.1511,3.1511,3.1511,3.1511,3.1568,3.202,3.2788,3.3469,3.4252,3.4911,3.5385,3.56,3.5554,3.5577,3.56,3.543,3.5194,3.5194,3.5272,3.4576,3.4226,3.3587,3.3195,3.2489,3.1423,3.0794,3.0332,2.9904,2.9244,2.9097,2.9097,4.2986,4.2986,4.2986,4.2986,4.2986,4.2986,4.266,4.2213,4.1932,4.1329,4.0551,4.0275,3.9998,3.9672,3.9446,3.9195,3.8843,3.8441,3.7814,3.726,3.6983,3.6732,3.6405,3.6132,3.5881,3.5508,3.5031,3.4525,3.3897,3.3345,3.3136,3.3136,3.3136,3.3136,3.3136,3.3136,3.3136,3.3136,3.3136,3.2968,3.2692,3.2164,3.1637,3.1135,3.1085,3.0733,3.003,2.9891,2.9679,2.9151,2.9101,2.9101,2.9101,2.9101,2.895,2.8624,2.8562,2.8562,2.8562,2.89,2.9101,2.9101,2.9101,2.9101,2.9101,2.9101,2.9101,2.9139,2.9326,2.9835,3.0758,3.1593,3.2521,3.324,3.3215,3.3095,3.3095,3.2497,3.2079,3.2079,3.175,3.1511,3.1511,3.1511,3.1511,3.1511,3.1511,3.1511,3.1539,3.1768,3.2379,3.3287,3.3547,3.4078,3.5168,3.5214,3.5214,3.5509,3.56,3.56,3.56,3.56,3.56,3.56,3.5074,3.4668,3.4542,3.3469,3.2408,3.1751,3.1174,3.0797,3.0467,3.0014,2.9757,4.3112,4.2986,4.2986,4.2986,4.2986,4.2986,4.2816,4.2439,4.2288,4.176,4.0978,4.0651,4.03,3.9948,3.9772,3.9446,3.912,3.8994,3.8492,3.7663,3.7337,3.7033,3.6656,3.6455,3.6157,3.5805,3.5558,3.4951,3.3972,3.352,3.3219,3.3136,3.3136,3.3136,3.3136,3.3136,3.3136,3.3136,3.3136,3.3136,3.3061,3.2667,3.219,3.1687,3.1612,3.1361,3.0859,3.0834,3.0658,3.0256,3.0231,3.0231,3.0231,3.0105,2.9754,2.9252,2.9176,2.9151,2.9176,2.9553,2.9779,2.9779,2.9779,2.9779,2.9779,2.9779,2.9779,2.9781,3.0127,3.0729,3.1227,3.2137,3.3077,3.3898,3.3903,3.3754,3.3724,3.3185,3.2766,3.2736,3.2228,3.169,3.154,3.1511,3.1511,3.1511,3.1511,3.1511,3.1511,3.1568,3.202,3.3287,3.2864,3.3287,3.5062,3.5075,3.4981,3.5339,3.56,3.56,3.56,3.56,3.56,3.5577,3.5416,3.5242,3.501,3.4164,3.3387,3.294,3.2251,3.1506,3.1201,3.0834,3.0613,4.3463,4.3011,4.2986,4.2986,4.2986,4.2986,4.2961,4.2891,4.2439,4.2162,4.1882,4.1003,4.0526,4.04,3.9948,3.9672,3.9572,3.9145,3.8894,3.8592,3.7713,3.7186,3.7111,3.6681,3.6405,3.6279,3.583,3.5006,3.4022,3.3872,3.3596,3.3119,3.3136,3.3136,3.3136,3.3136,3.3136,3.3136,3.3136,3.3136,3.3111,3.3086,3.2742,3.224,3.219,3.1913,3.1436,3.1361,3.1336,3.1311,3.1235,3.126,3.1235,3.0834,3.0331,2.9854,2.9779,2.9779,2.9754,2.9804,2.9804,2.9779,2.9779,2.9779,2.9779,2.9779,2.9779,2.9779,3.1282,3.2294,3.2443,3.3255,3.4247,3.5091,3.4771,3.4472,3.4474,3.3844,3.3514,3.3365,3.2886,3.2228,3.163,3.1511,3.154,3.1511,3.1511,3.1511,3.1511,3.1511,3.2132,3.2864,3.2761,3.2516,3.4887,3.4887,3.4864,3.5362,3.56,3.56,3.56,3.56,3.56,3.56,3.5576,3.5454,3.5277,3.4859,3.427,3.3599,3.2603,3.1952,3.2032,3.1568,3.1347,4.3162,4.2986,4.2986,4.2986,4.2986,4.2986,4.2986,4.2961,4.2841,4.2539,4.2187,4.1785,4.1178,4.0501,4.03,4.0023,3.9697,3.9471,3.922,3.8919,3.8492,3.7938,3.7186,3.6985,3.6684,3.6405,3.6157,3.568,3.4906,3.4248,3.3796,3.3571,3.3244,3.3136,3.3136,3.3136,3.3136,3.3136,3.3136,3.3136,3.3136,3.3136,3.3011,3.2792,3.2767,3.2491,3.1938,3.1913,3.1763,3.1411,3.1386,3.1386,3.1361,3.121,3.1035,3.0834,3.0809,3.0683,3.0382,3.0306,3.0156,2.9829,2.9779,2.9829,2.9779,2.9779,2.9779,3.0101,3.1526,3.2522,3.2876,3.4007,3.51,3.5362,3.528,3.51,3.5011,3.4532,3.4144,3.4023,3.3544,3.2916,3.2318,3.2108,3.1959,3.157,3.1511,3.154,3.1511,3.1511,3.2053,3.2971,3.2544,3.2461,3.5201,3.4592,3.4219,3.5155,3.56,3.56,3.56,3.56,3.56,3.56,3.56,3.5577,3.5403,3.5186,3.4676,3.4157,3.3153,3.2844,3.2996,3.2483,3.2239,4.2986,4.2986,4.2986,4.2986,4.2986,4.2986,4.2986,4.2986,4.2986,4.2816,4.2489,4.2288,4.1785,4.1053,4.0676,4.0325,3.9948,3.9772,3.9496,3.9145,3.8994,3.8467,3.7789,3.7362,3.7059,3.6681,3.648,3.6081,3.5483,3.4756,3.4274,3.3897,3.3495,3.3287,3.3162,3.3136,3.3136,3.3136,3.3136,3.3136,3.3136,3.3136,3.3136,3.3111,3.3136,3.2918,3.2491,3.2491,3.234,3.1989,3.1938,3.1838,3.1687,3.1662,3.1562,3.1411,3.1386,3.126,3.0934,3.0859,3.0708,3.0357,3.0306,3.0306,3.0306,3.0306,3.0231,3.0508,3.1718,3.2806,3.3003,3.4341,3.5457,3.5489,3.5489,3.5489,3.5459,3.51,3.4773,3.4474,3.4083,3.3544,3.2976,3.2856,3.2647,3.2168,3.2138,3.2079,3.1869,3.1868,3.2063,3.298,3.2516,3.2841,3.435,3.4268,3.4399,3.5224,3.56,3.56,3.56,3.56,3.56,3.56,3.56,3.56,3.554,3.5351,3.5033,3.4658,3.4148,3.3683,3.3617,3.3382,3.3093,4.2986,4.2986,4.2986,4.2986,4.2986,4.2986,4.2986,4.2986,4.2986,4.2936,4.2811,4.2464,4.2213,4.1936,4.1078,4.0523,4.0375,3.9973,3.9722,3.9572,3.9221,3.8944,3.8718,3.7789,3.7262,3.7086,3.6656,3.6107,3.5583,3.5382,3.4926,3.4123,3.3972,3.3671,3.3162,3.3212,3.3162,3.3136,3.3136,3.3136,3.3136,3.3136,3.3136,3.3136,3.3136,3.3111,3.3086,3.3043,3.2968,3.3011,3.2968,3.2767,3.229,3.2215,3.1989,3.1637,3.1486,3.1436,3.1411,3.1411,3.1386,3.121,3.1311,3.121,3.116,3.121,3.106,3.0961,3.2228,3.3239,3.3119,3.4545,3.5639,3.5489,3.5489,3.5489,3.5489,3.5489,3.525,3.4711,3.4533,3.4234,3.3724,3.3514,3.3395,3.3275,3.3245,3.3066,3.2587,3.2527,3.2549,3.2656,3.2592,3.2924,3.3539,3.412,3.4736,3.5339,3.5532,3.56,3.56,3.56,3.56,3.56,3.56,3.56,3.5611,3.5442,3.5304,3.4942,3.4641,3.4339,3.403,3.3785,3.3703,4.2986,4.2986,4.2986,4.2986,4.2986,4.2986,4.2986,4.2986,4.2986,4.2986,4.2936,4.2841,4.259,4.2213,4.181,4.1229,4.0526,4.0325,4.0074,3.9722,3.9521,3.922,3.8868,3.8492,3.7989,3.7211,3.6634,3.6329,3.6056,3.5683,3.5282,3.4981,3.465,3.4198,3.3671,3.3621,3.347,3.3162,3.3136,3.3136,3.3136,3.3136,3.3136,3.3136,3.3136,3.3136,3.3136,3.3136,3.3136,3.3136,3.3136,3.3036,3.2842,3.2792,3.2759,3.2591,3.2583,3.234,3.2014,3.1938,3.1788,3.1512,3.1411,3.1386,3.1386,3.1411,3.1361,3.1362,3.2889,3.3965,3.4222,3.5619,3.6347,3.5609,3.5489,3.5519,3.5489,3.5489,3.54,3.525,3.519,3.4891,3.4414,3.4204,3.4023,3.3664,3.3604,3.3425,3.3245,3.3185,3.3185,3.3211,3.3005,3.2791,3.3285,3.3706,3.4158,3.473,3.5075,3.5532,3.5577,3.56,3.56,3.56,3.56,3.5622,3.5577,3.554,3.5424,3.5227,3.4863,3.4586,3.4323,3.4132,3.3966,4.2986,4.2986,4.2986,4.2986,4.2986,4.2986,4.2986,4.2986,4.2986,4.2986,4.2986,4.2986,4.2841,4.2514,4.2313,4.1835,4.1103,4.0727,4.0325,3.9998,3.9747,3.9496,3.9145,3.8944,3.8316,3.7312,3.6835,3.6606,3.638,3.6031,3.5708,3.5458,3.5157,3.4705,3.4223,3.3997,3.3696,3.3395,3.3237,3.3136,3.3136,3.3136,3.3136,3.3136,3.3136,3.3136,3.3136,3.3136,3.3136,3.3136,3.3136,3.3136,3.3136,3.3111,3.3136,3.3136,3.3086,3.2893,3.2591,3.2541,3.2416,3.2089,3.2014,3.2014,3.2014,3.2014,3.1964,3.2,3.354,3.4665,3.4706,3.6199,3.6884,3.6327,3.6028,3.5759,3.5579,3.5489,3.5489,3.5459,3.5459,3.525,3.5011,3.4831,3.4711,3.4322,3.4233,3.4053,3.3963,3.3844,3.3789,3.3691,3.3565,3.337,3.3122,3.3347,3.352,3.4032,3.452,3.5098,3.5509,3.5577,3.56,3.56,3.56,3.56,3.5588,3.5588,3.5494,3.527,3.5059,3.483,3.4567,3.4253,3.4069,4.2986,4.2986,4.2986,4.2986,4.2986,4.2986,4.2986,4.2986,4.2986,4.2986,4.2986,4.2986,4.2961,4.2836,4.2514,4.2238,4.2011,4.1178,4.0701,4.045,4.0074,3.9747,3.9572,3.912,3.8366,3.7538,3.7287,3.6935,3.6556,3.648,3.6132,3.5658,3.5558,3.5282,3.4801,3.4248,3.4022,3.3771,3.3395,3.3212,3.3136,3.3136,3.3136,3.3136,3.3136,3.3136,3.3136,3.3136,3.3136,3.3136,3.3136,3.3136,3.3136,3.3136,3.3136,3.3136,3.3136,3.3111,3.3111,3.3036,3.2968,3.296,3.2935,3.3111,3.296,3.2885,3.2692,3.2441,3.4126,3.5151,3.5087,3.646,3.7446,3.7404,3.6866,3.6327,3.5729,3.5669,3.5669,3.5609,3.5549,3.5489,3.54,3.54,3.54,3.537,3.528,3.5011,3.4743,3.4472,3.4173,3.4089,3.4,3.3694,3.341,3.3088,3.3301,3.3598,3.4021,3.448,3.5247,3.5464,3.56,3.56,3.56,3.56,3.56,3.56,3.56,3.5482,3.5284,3.5079,3.4832,3.4527,3.4279,4.2986,4.2986,4.2986,4.2986,4.2986,4.2986,4.2986,4.2986,4.2986,4.2986,4.2986,4.2986,4.2986,4.2961,4.2811,4.2615,4.2213,4.1886,4.148,4.1025,4.0551,4.0074,3.9647,3.9145,3.8718,3.8391,3.7939,3.7513,3.701,3.6935,3.6659,3.6157,3.6107,3.5855,3.5307,3.5107,3.465,3.3997,3.3796,3.347,3.3212,3.3162,3.3136,3.3136,3.3136,3.3136,3.3136,3.3136,3.3136,3.3136,3.3136,3.3136,3.3136,3.3136,3.3136,3.3136,3.3136,3.3136,3.3136,3.3136,3.3136,3.3136,3.3136,3.3136,3.3136,3.3136,3.3036,3.32,3.4739,3.5947,3.6091,3.7564,3.8454,3.8153,3.7584,3.7135,3.6836,3.6507,3.6237,3.6207,3.5818,3.5639,3.5549,3.5549,3.5549,3.5519,3.5489,3.5459,3.516,3.507,3.4831,3.4472,3.4299,3.3907,3.3517,3.3123,3.3079,3.3287,3.3522,3.3662,3.4504,3.5247,3.543,3.56,3.56,3.56,3.56,3.56,3.56,3.56,3.5429,3.5178,3.5064,3.4848,3.4623,4.2986,4.2986,4.2986,4.2986,4.2986,4.2986,4.2986,4.2986,4.2986,4.2986,4.2986,4.2986,4.2986,4.2986,4.2961,4.2866,4.2564,4.2313,4.2037,4.1605,4.0852,4.0224,3.9722,3.932,3.9094,3.8894,3.8542,3.8065,3.7563,3.7312,3.701,3.6709,3.6531,3.6254,3.5906,3.5558,3.5232,3.4675,3.4399,3.4073,3.3796,3.352,3.342,3.337,3.3262,3.3136,3.3136,3.3136,3.3136,3.3136,3.3136,3.3136,3.3136,3.3136,3.3136,3.3136,3.3136,3.3136,3.3136,3.3136,3.3136,3.3136,3.3136,3.3136,3.3197,3.3454,3.3768,3.3969,3.5722,3.6671,3.7137,3.8435,3.9086,3.8871,3.8482,3.8033,3.7524,3.7075,3.6896,3.6776,3.6537,3.6178,3.5968,3.5938,3.5789,3.5609,3.5489,3.5489,3.5429,3.5489,3.54,3.5011,3.4771,3.4503,3.4144,3.3788,3.3276,3.3417,3.3571,3.3571,3.4129,3.503,3.5291,3.5508,3.5566,3.56,3.56,3.56,3.56,3.5576,3.5429,3.5311,3.5192,3.5119,3.4939,4.2986,4.2986,4.2986,4.2986,4.2986,4.2986,4.2986,4.2986,4.2986,4.2986,4.2986,4.2986,4.2986,4.2986,4.2986,4.2961,4.2911,4.2539,4.2288,4.1911,4.1229,4.0526,3.9923,3.9672,3.9396,3.9069,3.902,3.8617,3.814,3.7638,3.7362,3.7186,3.6807,3.6556,3.6358,3.5956,3.5583,3.5332,3.4956,3.47,3.45,3.4173,3.3947,3.3721,3.3294,3.3136,3.3136,3.3136,3.3136,3.3136,3.3136,3.3136,3.3136,3.3136,3.3136,3.3136,3.3136,3.3136,3.3136,3.3136,3.3136,3.3136,3.3136,3.3136,3.3283,3.3911,3.4511,3.4511,3.6582,3.7548,3.8107,3.8907,3.9271,3.929,3.9284,3.8745,3.7938,3.7554,3.7494,3.7464,3.7464,3.7105,3.6806,3.6537,3.6387,3.6237,3.6028,3.5848,3.5729,3.5609,3.5549,3.54,3.525,3.519,3.4831,3.4474,3.3965,3.3668,3.3815,3.3934,3.4287,3.4881,3.5138,3.5345,3.5541,3.561,3.56,3.56,3.56,3.5588,3.5528,3.5429,3.5324,3.5311,3.52,4.2986,4.2986,4.2986,4.2986,4.2986,4.2986,4.2986,4.2986,4.2986,4.2986,4.2986,4.2986,4.2986,4.2986,4.2986,4.2986,4.2986,4.2785,4.264,4.2187,4.2037,4.1229,4.045,3.9973,3.9647,3.9496,3.9496,3.9195,3.8743,3.8467,3.8316,3.7789,3.7312,3.701,3.691,3.6458,3.5956,3.5558,3.5357,3.5177,3.4851,3.465,3.4349,3.3972,3.342,3.3162,3.3136,3.3136,3.3136,3.3136,3.3136,3.3136,3.3136,3.3136,3.3136,3.3136,3.3136,3.3136,3.3136,3.3136,3.3136,3.3136,3.3136,3.3136,3.3154,3.4189,3.4677,3.5061,3.6582,3.8289,3.8929,3.9228,3.9373,3.9403,3.9373,3.9284,3.896,3.8482,3.8212,3.8093,3.7793,3.7375,3.7255,3.7225,3.7075,3.6926,3.6656,3.6327,3.6088,3.5878,3.5759,3.5699,3.5459,3.537,3.522,3.4891,3.4502,3.4173,3.4241,3.4364,3.4704,3.5091,3.5497,3.5584,3.5582,3.5597,3.5633,3.56,3.56,3.56,3.56,3.5552,3.5492,3.547,3.5445,4.2986,4.2986,4.2986,4.2986,4.2986,4.2986,4.2986,4.2986,4.2986,4.2986,4.2986,4.2986,4.2986,4.2986,4.2986,4.2986,4.2986,4.2986,4.2891,4.2564,4.2338,4.1886,4.1254,4.0475,3.9973,3.9772,3.9697,3.9496,3.927,3.8994,3.8718,3.8391,3.7839,3.7412,3.7211,3.6885,3.6458,3.6056,3.5931,3.5755,3.5529,3.5157,3.4851,3.4299,3.3771,3.347,3.3514,3.3194,3.3162,3.3136,3.3136,3.3136,3.3136,3.3136,3.3136,3.3136,3.3136,3.3136,3.3136,3.3136,3.3136,3.3136,3.3136,3.3136,3.3615,3.4721,3.5602,3.61,3.7696,3.9697,3.9815,3.9493,3.9433,3.9403,3.9403,3.9403,3.9313,3.908,3.8871,3.8811,3.8601,3.8242,3.8033,3.7913,3.7614,3.7375,3.7195,3.6896,3.6746,3.6507,3.6178,3.5998,3.5669,3.5489,3.5429,3.525,3.504,3.4861,3.4865,3.4933,3.5095,3.5531,3.6013,3.5908,3.5808,3.5616,3.562,3.561,3.5735,3.5667,3.5667,3.5633,3.5622,3.561,3.5598,4.2986,4.2986,4.2986,4.2986,4.2986,4.2986,4.2986,4.2986,4.2986,4.2986,4.2986,4.2986,4.2986,4.2986,4.2986,4.2986,4.2986,4.2986,4.2911,4.2836,4.259,4.2288,4.1861,4.1078,4.0375,3.9873,3.9722,3.9672,3.9521,3.9321,3.9069,3.8894,3.8417,3.8015,3.7588,3.726,3.6935,3.6533,3.6332,3.6304,3.6254,3.5855,3.5403,3.4851,3.4324,3.4048,3.3922,3.3596,3.3244,3.3194,3.3119,3.3136,3.3136,3.3136,3.3136,3.3136,3.3136,3.3136,3.3136,3.3136,3.3136,3.3136,3.3136,3.3187,3.3743,3.5387,3.6511,3.7641,3.9015,4.0912,4.0576,4.0217,3.9888,3.9768,3.9709,3.9559,3.9529,3.9463,3.9313,3.9284,3.914,3.8871,3.8691,3.8542,3.8182,3.7853,3.7674,3.7524,3.7375,3.7105,3.6776,3.6447,3.6148,3.5669,3.5519,3.5519,3.531,3.531,3.534,3.5342,3.5407,3.5585,3.59,3.6078,3.5984,3.598,3.6112,3.6409,3.6343,3.5971,3.596,3.6163,3.6028,3.5769,3.5836,4.2986,4.2986,4.2986,4.2986,4.2986,4.2986,4.2986,4.2986,4.2986,4.2986,4.2986,4.2986,4.2986,4.2986,4.2986,4.2986,4.2986,4.2986,4.2986,4.2986,4.2785,4.261,4.2187,4.1555,4.0927,4.0375,3.9998,3.9772,3.9697,3.9597,3.9471,3.9396,3.8994,3.8668,3.8316,3.7788,3.7236,3.691,3.6681,3.6505,3.638,3.6254,3.5931,3.5378,3.4876,3.4625,3.4474,3.4098,3.3771,3.3721,3.3319,3.3187,3.3162,3.3162,3.3136,3.3136,3.3136,3.3136,3.3136,3.3136,3.3136,3.3136,3.3197,3.3474,3.4221,3.5915,3.7521,3.8573,3.9867,4.1362,4.1272,4.0965,4.1063,4.0943,4.0546,4.0247,4.0157,3.9918,3.9553,3.9553,3.9463,3.9343,3.917,3.902,3.8841,3.8571,3.8392,3.8272,3.8182,3.7793,3.7345,3.7015,3.6716,3.6148,3.5609,3.5639,3.5579,3.5579,3.5579,3.5519,3.5522,3.5524,3.5707,3.6105,3.6633,3.6986,3.7153,3.7162,3.7188,3.6986,3.6907,3.6795,3.6705,3.6614,3.6614,4.2986,4.2986,4.2986,4.2986,4.2986,4.2986,4.2986,4.2986,4.2986,4.2986,4.2986,4.2986,4.2986,4.2986,4.2986,4.2986,4.2986,4.2986,4.2986,4.2986,4.2961,4.2886,4.2564,4.2007,4.1681,4.1178,4.0576,3.9948,3.9722,3.9697,3.9697,3.9647,3.9396,3.917,3.8894,3.8416,3.7713,3.736,3.6983,3.6681,3.6455,3.643,3.6157,3.5906,3.5454,3.5132,3.5006,3.4625,3.4349,3.4223,3.3822,3.3571,3.3445,3.3312,3.3136,3.3136,3.3136,3.3136,3.3136,3.3136,3.3136,3.3197,3.3556,3.4194,3.5231,3.703,3.9017,4.0423,4.0539,4.1572,4.1871,4.1662,4.1452,4.1362,4.1085,4.0965,4.0846,4.0576,4.0277,3.9918,3.9649,3.9493,3.9373,3.9313,3.9373,3.929,3.908,3.896,3.8841,3.8452,3.7913,3.7614,3.7315,3.6866,3.6327,3.6237,3.6118,3.6028,3.5998,3.5908,3.5797,3.5864,3.6101,3.6404,3.7017,3.7378,3.7402,3.7209,3.7571,3.7932,3.7662,3.7483,3.7516,3.7527,3.7483,4.2986,4.2986,4.2986,4.2986,4.2986,4.2986,4.2986,4.2986,4.2986,4.2986,4.2986,4.2986,4.2986,4.2986,4.2986,4.2986,4.2986,4.2986,4.2986,4.2986,4.2986,4.2961,4.2811,4.2539,4.2112,4.1886,4.1153,4.04,3.9973,3.9747,3.9697,3.9672,3.9697,3.9521,3.9094,3.8843,3.8216,3.7814,3.7362,3.7109,3.6707,3.6455,3.6405,3.6405,3.5931,3.5658,3.5608,3.5177,3.4926,3.4705,3.4399,3.4073,3.3997,3.3646,3.337,3.3244,3.3187,3.3136,3.3136,3.3136,3.3136,3.3111,3.4095,3.4921,3.6282,3.8256,4.0884,4.2604,4.2581,4.2043,4.2432,4.2171,4.1893,4.1803,4.1743,4.1602,4.1542,4.1294,4.0965,4.0516,3.9978,3.9642,3.9553,3.9403,3.9403,3.9403,3.923,3.926,3.914,3.896,3.8542,3.8212,3.7913,3.7584,3.7225,3.7045,3.6866,3.6686,3.6626,3.6567,3.6406,3.6269,3.6503,3.6631,3.6648,3.6942,3.7057,3.7459,3.8028,3.8305,3.8158,3.827,3.8565,3.8294,3.7956,4.2986,4.2986,4.2986,4.2986,4.2986,4.2986,4.2986,4.2986,4.2986,4.2986,4.2986,4.2986,4.2986,4.2986,4.2986,4.2986,4.2986,4.2986,4.2986,4.2986,4.2986,4.2986,4.2911,4.2464,4.2338,4.2213,4.158,4.0924,4.0501,4.0023,3.9697,3.9722,3.9697,3.9622,3.9471,3.917,3.8869,3.8567,3.814,3.7613,3.7086,3.6656,3.6505,3.638,3.6304,3.6182,3.6107,3.5705,3.5408,3.5332,3.4881,3.465,3.46,3.4575,3.4248,3.3822,3.342,3.3136,3.3136,3.3136,3.3136,3.3326,3.423,3.5215,3.7274,3.9549,4.1913,4.3051,4.3021,4.297,4.3021,4.305,4.3021,4.2821,4.2491,4.2312,4.2261,4.2073,4.1713,4.1324,4.0816,4.0157,3.9762,3.9553,3.9403,3.9403,3.9403,3.9403,3.9343,3.92,3.905,3.8691,3.8542,3.8242,3.8093,3.7913,3.7644,3.7375,3.7285,3.7225,3.694,3.6712,3.6553,3.6671,3.663,3.678,3.7118,3.7681,3.8417,3.854,3.8247,3.8899,3.9749,3.9242,3.8443,4.2986,4.2986,4.2986,4.2986,4.2986,4.2986,4.2986,4.2986,4.2986,4.2986,4.2986,4.2986,4.2986,4.2986,4.2986,4.2986,4.2986,4.2986,4.2986,4.2986,4.2986,4.2986,4.2936,4.276,4.269,4.2489,4.2108,4.1756,4.1229,4.0576,4.0049,3.9747,3.9722,3.9697,3.9747,3.9471,3.917,3.8793,3.8291,3.7739,3.7262,3.7008,3.6732,3.643,3.643,3.643,3.6355,3.6254,3.6006,3.5906,3.5479,3.5157,3.5056,3.4856,3.4575,3.4424,3.4173,3.3746,3.3262,3.3162,3.3162,3.3726,3.502,3.7235,3.9414,4.1297,4.2629,4.321,4.329,4.329,4.329,4.329,4.329,4.317,4.303,4.297,4.2821,4.2731,4.2491,4.2073,4.1624,4.1025,4.0367,3.9918,3.9709,3.9523,3.9493,3.9463,3.9433,3.9313,3.923,3.911,3.902,3.8931,3.8871,3.8715,3.8422,3.8153,3.7973,3.7823,3.7404,3.7169,3.7045,3.6836,3.6753,3.6932,3.7219,3.7575,3.8032,3.8191,3.8297,3.889,3.9387,3.9399,3.8872,4.2986,4.2986,4.2986,4.2986,4.2986,4.2986,4.2986,4.2986,4.2986,4.2986,4.2986,4.2986,4.2986,4.2986,4.2986,4.2986,4.2986,4.2986,4.2986,4.2986,4.2986,4.2986,4.2961,4.2936,4.2936,4.2986,4.2559,4.2288,4.1936,4.1379,4.0727,4.0124,4.0049,3.9973,3.9873,3.9722,3.9446,3.912,3.8592,3.8115,3.7788,3.7487,3.7134,3.6807,3.6606,3.6531,3.643,3.6405,3.638,3.6279,3.5981,3.5755,3.5705,3.5479,3.5152,3.5002,3.4806,3.4474,3.3922,3.3664,3.3593,3.4493,3.625,3.8991,4.1528,4.294,4.329,4.329,4.329,4.329,4.329,4.329,4.329,4.329,4.326,4.329,4.326,4.308,4.2931,4.2671,4.2282,4.2021,4.1332,4.0516,4.0068,3.9768,3.9612,3.9582,3.9493,3.9463,3.9343,3.929,3.926,3.9194,3.9194,3.9164,3.896,3.8841,3.8661,3.8512,3.8182,3.7853,3.7674,3.7404,3.7105,3.7037,3.7288,3.7375,3.7499,3.7581,3.7719,3.8265,3.869,3.8827,3.9236,4.2986,4.2986,4.2986,4.2986,4.2986,4.2986,4.2986,4.2986,4.2986,4.2986,4.2986,4.2986,4.2986,4.2986,4.2986,4.2986,4.2986,4.2986,4.2986,4.2986,4.2986,4.2986,4.2986,4.2986,4.2986,4.2986,4.2811,4.2559,4.2338,4.2187,4.1656,4.1254,4.0727,4.0526,4.0249,3.9898,3.9697,3.9421,3.9044,3.8768,3.8517,3.8165,3.7688,3.7262,3.7086,3.691,3.648,3.643,3.6405,3.6405,3.6304,3.6182,3.6132,3.6103,3.5805,3.5579,3.5433,3.5198,3.4951,3.4775,3.493,3.5982,3.7839,4.0253,4.2276,4.3,4.323,4.329,4.329,4.329,4.329,4.329,4.329,4.329,4.329,4.329,4.329,4.329,4.314,4.308,4.288,4.2551,4.241,4.1594,4.0816,4.0487,4.0277,4.0247,3.9768,3.9649,3.9499,3.9409,3.9373,3.9343,3.9343,3.9254,3.92,3.917,3.908,3.914,3.9074,3.8781,3.8332,3.8123,3.7823,3.7554,3.7263,3.7327,3.7313,3.703,3.7175,3.7658,3.8371,3.8827,3.9262,4.2986,4.2986,4.2986,4.2986,4.2986,4.2986,4.2986,4.2986,4.2986,4.2986,4.2986,4.2986,4.2986,4.2986,4.2986,4.2986,4.2986,4.2986,4.2986,4.2986,4.2986,4.2986,4.2986,4.2986,4.2986,4.2986,4.2961,4.2936,4.271,4.2665,4.2585,4.2158,4.1455,4.0799,4.0475,4.0074,3.9798,3.9672,3.9471,3.9245,3.8843,3.8693,3.8266,3.7739,3.7262,3.7111,3.6908,3.6556,3.6455,3.6477,3.6524,3.6593,3.664,3.664,3.6467,3.624,3.6214,3.6386,3.6573,3.6408,3.6678,3.8575,3.9922,4.1142,4.2712,4.317,4.329,4.329,4.329,4.329,4.329,4.329,4.329,4.329,4.329,4.329,4.329,4.329,4.329,4.32,4.314,4.303,4.291,4.2761,4.1953,4.1235,4.1055,4.0816,4.0337,3.9978,3.9918,3.9798,3.9798,3.9553,3.9553,3.9493,3.9403,3.9403,3.9403,3.9403,3.9403,3.9343,3.8955,3.8781,3.8512,3.8212,3.7803,3.7406,3.7218,3.7174,3.6997,3.697,3.7757,3.8743,3.9253,4.2986,4.2986,4.2986,4.2986,4.2986,4.2986,4.2986,4.2986,4.2986,4.2986,4.2986,4.2986,4.2986,4.2986,4.2986,4.2986,4.2986,4.2986,4.2986,4.2986,4.2986,4.2986,4.2986,4.2986,4.2986,4.2986,4.2986,4.2961,4.2936,4.2961,4.2911,4.266,4.2233,4.163,4.1028,4.03,3.9948,3.9923,3.9722,3.9546,3.9145,3.9094,3.8894,3.8341,3.7939,3.7638,3.7556,3.7343,3.7369,3.7381,3.7464,3.752,3.752,3.7428,3.7428,3.7428,3.752,3.7815,3.8158,3.8412,3.8699,4.0355,4.104,4.201,4.2882,4.329,4.329,4.329,4.329,4.329,4.329,4.329,4.329,4.329,4.329,4.329,4.329,4.329,4.329,4.326,4.326,4.323,4.317,4.3021,4.2581,4.1803,4.1354,4.1145,4.0905,4.0636,4.0546,4.0427,4.0307,4.0038,3.9798,3.9858,3.9858,3.9403,3.9403,3.9403,3.9403,3.9433,3.9433,3.917,3.8931,3.8751,3.8552,3.8327,3.7867,3.7443,3.7358,3.7393,3.7872,3.8875,3.9185,4.2986,4.2986,4.2986,4.2986,4.2986,4.2986,4.2986,4.2986,4.2986,4.2986,4.2986,4.2986,4.2986,4.2986,4.2986,4.2986,4.2986,4.2986,4.2986,4.2986,4.2986,4.2986,4.2986,4.2986,4.2986,4.2986,4.2986,4.2986,4.3042,4.3295,4.324,4.3351,4.3347,4.2793,4.2116,4.1109,4.0578,4.04,4.0,4.0134,3.9623,3.97,3.9576,3.8994,3.8918,3.8688,3.8528,3.8799,3.8885,3.8945,3.9177,3.9328,3.939,3.9326,3.9343,3.9404,3.9492,3.9667,3.983,4.025,4.09,4.1587,4.2059,4.2594,4.3101,4.329,4.329,4.329,4.329,4.329,4.329,4.329,4.329,4.329,4.329,4.329,4.329,4.329,4.329,4.329,4.329,4.329,4.329,4.32,4.294,4.2402,4.1773,4.1474,4.1452,4.1332,4.1205,4.0905,4.0756,4.0636,4.0427,4.0397,4.0247,3.9738,3.9582,3.9858,3.9798,3.9738,3.9679,3.9529,3.929,3.908,3.92,3.929,3.8686,3.8157,3.8223,3.8321,3.868,3.8905,3.9179,4.2986,4.2986,4.2986,4.2986,4.2986,4.2986,4.2986,4.2986,4.2986,4.2986,4.2986,4.2986,4.2986,4.2986,4.2986,4.2986,4.2986,4.2986,4.2986,4.2986,4.2986,4.2986,4.2986,4.2986,4.2986,4.2986,4.2986,4.2986,4.3017,4.3713,4.4235,4.4427,4.4942,4.4304,4.3222,4.2631,4.3037,4.1285,4.1593,4.2063,4.0185,4.0465,4.0539,3.9601,3.9974,4.006,3.9897,4.0435,4.074,4.0723,4.0974,4.0729,4.0618,4.0479,4.0114,4.0,3.9972,4.0318,4.1,4.1756,4.2393,4.2712,4.2832,4.306,4.329,4.329,4.329,4.329,4.329,4.329,4.329,4.329,4.329,4.329,4.329,4.329,4.329,4.329,4.329,4.329,4.329,4.329,4.329,4.329,4.312,4.306,4.2521,4.2222,4.2102,4.2021,4.1901,4.1482,4.1242,4.1212,4.1153,4.1085,4.0965,4.0606,4.0606,4.0846,4.0666,4.0247,4.0157,4.0127,3.9768,3.9403,3.9403,3.9373,3.9224,3.8983,3.8819,3.85,3.8388,3.8637,3.9062,4.2986,4.2986,4.2986,4.2986,4.2986,4.2986,4.2986,4.2986,4.2986,4.2986,4.2986,4.2986,4.2986,4.2986,4.2986,4.2986,4.2986,4.2986,4.2986,4.2986,4.2986,4.2986,4.2986,4.2986,4.2986,4.2986,4.2986,4.2986,4.3073,4.4372,4.5209,4.5925,4.7043,4.6179,4.5096,4.487,4.4765,4.3426,4.381,4.3443,4.221,4.1898,4.1887,4.1459,4.1519,4.1737,4.191,4.226,4.2711,4.2587,4.2471,4.2136,4.1924,4.1639,4.127,4.1198,4.1197,4.1532,4.2234,4.267,4.3071,4.318,4.329,4.329,4.329,4.329,4.329,4.329,4.329,4.329,4.329,4.329,4.329,4.329,4.329,4.329,4.329,4.329,4.329,4.329,4.329,4.329,4.329,4.329,4.323,4.326,4.323,4.3,4.2731,4.2611,4.2491,4.2162,4.1923,4.1953,4.1863,4.1782,4.1632,4.1452,4.1512,4.1564,4.1265,4.0846,4.0786,4.0666,4.0277,3.9888,3.9493,3.9343,3.9373,3.932,3.9097,3.8677,3.8153,3.8489,3.9071,4.2986,4.2986,4.2986,4.2986,4.2986,4.2986,4.2986,4.2986,4.2986,4.2986,4.2986,4.2986,4.2986,4.2986,4.2986,4.2986,4.2986,4.2986,4.2986,4.2986,4.2986,4.2986,4.2986,4.2986,4.2986,4.2986,4.2986,4.3042,4.3184,4.4779,4.603,4.735,4.8688,4.8126,4.75,4.7019,4.6478,4.5563,4.556,4.4955,4.3861,4.3719,4.3403,4.3074,4.3203,4.3385,4.364,4.4078,4.4391,4.4647,4.4859,4.4691,4.4523,4.4306,4.3888,4.3449,4.318,4.305,4.309,4.325,4.329,4.329,4.329,4.329,4.329,4.329,4.329,4.329,4.329,4.329,4.329,4.329,4.329,4.329,4.329,4.329,4.329,4.329,4.329,4.329,4.329,4.329,4.329,4.329,4.329,4.329,4.329,4.326,4.309,4.312,4.303,4.303,4.2851,4.2821,4.2671,4.2402,4.2312,4.2132,4.1953,4.1923,4.1654,4.1504,4.1482,4.1235,4.0786,4.0427,4.0217,3.9948,3.9738,3.9619,3.9679,3.926,3.8841,3.8931,3.9399,4.2986,4.2986,4.2986,4.2986,4.2986,4.2986,4.2986,4.2986,4.2986,4.2986,4.2986,4.2986,4.2986,4.2986,4.2986,4.2986,4.2986,4.2986,4.2986,4.2986,4.2986,4.2986,4.2986,4.2986,4.2986,4.2986,4.2986,4.3073,4.3657,4.5155,4.7808,4.9873,5.0143,5.0047,4.9911,4.9794,4.8273,4.7412,4.7655,4.6747,4.5675,4.5298,4.4772,4.4331,4.461,4.4794,4.5046,4.5783,4.6153,4.6399,4.6139,4.5873,4.5813,4.5274,4.4695,4.4037,4.3608,4.329,4.329,4.3319,4.3349,4.3379,4.3319,4.329,4.329,4.329,4.329,4.329,4.329,4.329,4.329,4.329,4.329,4.329,4.329,4.329,4.329,4.329,4.329,4.329,4.329,4.329,4.329,4.329,4.329,4.329,4.3319,4.3349,4.3319,4.3349,4.329,4.329,4.326,4.311,4.314,4.297,4.294,4.2851,4.2611,4.2491,4.2521,4.2372,4.2201,4.1871,4.1384,4.1145,4.0995,4.0726,4.0397,4.0516,4.0516,4.0008,3.9619,3.9559,3.9583,4.2986,4.2986,4.2986,4.2986,4.2986,4.2986,4.2986,4.2986,4.2986,4.2986,4.2986,4.2986,4.2986,4.2986,4.2986,4.2986,4.2986,4.2986,4.2986,4.2986,4.2986,4.2986,4.2986,4.2986,4.2986,4.2986,4.3129,4.3326,4.4264,4.6474,4.9161,5.0793,5.1229,5.1229,5.1058,5.0733,5.0081,4.9395,4.9015,4.8518,4.7777,4.6981,4.6155,4.57,4.6072,4.6061,4.6166,4.7062,4.7222,4.7309,4.683,4.6561,4.6292,4.5663,4.5214,4.4646,4.4466,4.4257,4.4227,4.3898,4.3778,4.3618,4.3469,4.3319,4.329,4.329,4.329,4.329,4.329,4.329,4.329,4.329,4.329,4.329,4.329,4.329,4.329,4.329,4.329,4.329,4.329,4.329,4.329,4.329,4.329,4.329,4.3409,4.3529,4.3499,4.3469,4.3379,4.329,4.329,4.326,4.329,4.329,4.32,4.311,4.308,4.3021,4.32,4.306,4.2671,4.2342,4.2051,4.1811,4.1534,4.1392,4.1145,4.1265,4.1235,4.0816,4.0247,3.9738,3.9841,4.2986,4.2986,4.2986,4.2986,4.2986,4.2986,4.2986,4.2986,4.2986,4.2986,4.2986,4.2986,4.2986,4.2986,4.2986,4.2986,4.2986,4.2986,4.2986,4.2986,4.2986,4.2986,4.2986,4.2986,4.2986,4.2986,4.324,4.3742,4.5555,4.7605,4.9582,5.1135,5.1229,5.1229,5.1229,5.1229,5.078,5.0614,5.0258,4.9889,4.9624,4.9029,4.8356,4.8015,4.7627,4.7312,4.7252,4.7309,4.7309,4.7309,4.7219,4.692,4.6471,4.5873,4.5514,4.5274,4.5125,4.5005,4.4855,4.4586,4.4436,4.4197,4.3838,4.3768,4.3828,4.3409,4.3319,4.329,4.329,4.329,4.329,4.329,4.329,4.329,4.329,4.329,4.329,4.329,4.329,4.329,4.329,4.329,4.329,4.329,4.329,4.329,4.3529,4.3768,4.3898,4.3798,4.3708,4.3559,4.3349,4.3349,4.329,4.329,4.329,4.329,4.3319,4.329,4.326,4.317,4.312,4.2821,4.2551,4.2222,4.1983,4.1953,4.1953,4.1863,4.1773,4.1564,4.1025,4.0427,4.0237,4.2986,4.2986,4.2986,4.2986,4.2986,4.2986,4.2986,4.2986,4.2986,4.2986,4.2986,4.2986,4.2986,4.2986,4.2986,4.2986,4.2986,4.2986,4.2986,4.2986,4.2986,4.2986,4.2986,4.2986,4.3042,4.2986,4.3351,4.4563,4.6578,4.8439,4.9873,5.1058,5.1229,5.1229,5.1229,5.1229,5.1229,5.1199,5.105,5.0614,5.0196,4.9897,4.9434,4.8716,4.8057,4.7728,4.7549,4.7309,4.7309,4.7309,4.7309,4.7189,4.704,4.6441,4.6142,4.5992,4.5693,4.5544,4.5424,4.5274,4.5095,4.5035,4.4855,4.4855,4.4556,4.3738,4.3349,4.3349,4.3349,4.3349,4.329,4.329,4.329,4.329,4.329,4.329,4.329,4.329,4.329,4.329,4.329,4.329,4.329,4.329,4.329,4.3529,4.3917,4.4227,4.4466,4.4496,4.4456,4.4216,4.3559,4.3409,4.3439,4.3439,4.3529,4.3409,4.3379,4.3349,4.3319,4.323,4.317,4.32,4.3021,4.2731,4.2671,4.291,4.2851,4.2581,4.2372,4.2162,4.1983,4.1474,4.1175,4.2986,4.2986,4.2986,4.2986,4.2986,4.2986,4.2986,4.2986,4.2986,4.2986,4.2986,4.2986,4.2986,4.2986,4.2986,4.2986,4.2986,4.2986,4.2986,4.2986,4.2986,4.2986,4.2986,4.3042,4.3602,4.3742,4.5342,4.6888,4.7959,4.9357,5.0698,5.1135,5.1229,5.1229,5.1229,5.1229,5.1229,5.1229,5.1229,5.099,5.0524,5.0255,4.9986,4.9224,4.8596,4.8177,4.7818,4.7519,4.7309,4.7309,4.7309,4.7309,4.7189,4.692,4.677,4.6681,4.6471,4.6172,4.6082,4.5933,4.5783,4.5723,4.5394,4.5185,4.5125,4.4436,4.4137,4.4107,4.3928,4.3898,4.3409,4.329,4.329,4.329,4.329,4.329,4.329,4.329,4.329,4.329,4.329,4.329,4.329,4.329,4.3379,4.3828,4.4257,4.4855,4.5065,4.5274,4.5244,4.5125,4.4515,4.4216,4.4407,4.4197,4.3858,4.3708,4.3589,4.3439,4.3409,4.3349,4.329,4.3349,4.3349,4.323,4.323,4.329,4.329,4.3021,4.291,4.2791,4.2611,4.2432,4.2222,4.2986,4.2986,4.2986,4.2986,4.2986,4.2986,4.2986,4.2986,4.2986,4.2986,4.2986,4.2986,4.2986,4.2986,4.2986,4.2986,4.2986,4.2986,4.2986,4.2986,4.2986,4.2986,4.2986,4.3098,4.3742,4.5342,4.7197,4.8139,4.8964,5.0239,5.0964,5.1182,5.1229,5.1229,5.1229,5.1229,5.1229,5.1229,5.1229,5.1229,5.096,5.0614,5.0315,4.9777,4.9224,4.8536,4.8177,4.7848,4.7489,4.7309,4.7309,4.7309,4.7309,4.7219,4.7219,4.713,4.71,4.704,4.704,4.6651,4.6531,4.6292,4.5783,4.5574,4.5574,4.5424,4.5125,4.4825,4.4646,4.4287,4.3828,4.3589,4.3618,4.3559,4.3559,4.3409,4.3379,4.3349,4.3319,4.3319,4.3319,4.3319,4.329,4.329,4.3618,4.4107,4.4706,4.5334,4.5813,4.5992,4.6082,4.6082,4.5813,4.5603,4.5304,4.4915,4.4396,4.4336,4.4216,4.3828,4.3559,4.3678,4.3678,4.3529,4.3499,4.3409,4.3319,4.329,4.329,4.3319,4.32,4.309,4.309,4.297,4.308,4.2986,4.2986,4.2986,4.2986,4.2986,4.2986,4.2986,4.2986,4.2986,4.2986,4.2986,4.2986,4.2986,4.2986,4.2986,4.2986,4.2986,4.2986,4.2986,4.2986,4.2986,4.2986,4.3184,4.3602,4.3962,4.582,4.7988,4.8985,4.9679,5.065,5.1229,5.1229,5.1229,5.1229,5.1229,5.1229,5.1229,5.1229,5.1229,5.1229,5.1229,5.096,5.0674,5.0285,4.9956,4.9194,4.8596,4.8207,4.7788,4.7489,4.7309,4.7309,4.7309,4.7309,4.7309,4.7309,4.7309,4.7309,4.7189,4.707,4.695,4.695,4.6621,4.6681,4.6681,4.6681,4.6322,4.5873,4.5603,4.5155,4.4796,4.4736,4.4706,4.4556,4.4496,4.3988,4.3648,4.3529,4.3439,4.3379,4.3349,4.3319,4.329,4.3409,4.3648,4.4197,4.4825,4.5484,4.6292,4.6591,4.683,4.68,4.677,4.6172,4.5514,4.5424,4.5095,4.5035,4.4915,4.4586,4.4377,4.4246,4.4186,4.4097,4.3738,4.3499,4.3409,4.3499,4.3349,4.3349,4.3319,4.326,4.329,4.329,4.329]}]]